ECMWFNIL_925_spd_000.txt.gz
Wind_Speed
28 26 25 25 23 21 21 22 20 17 16 15 15 14 12 11 10 10 8 7 7 7 7 8 10 9 9 9 11 13 13 13 13 13 14 15 14 14 14 13 13 14
29 27 25 25 24 23 23 22 21 19 17 17 16 14 13 13 11 10 9 9 9 8 7 8 8 8 7 8 10 12 14 15 14 14 15 15 15 16 16 16 15 15
29 27 26 25 25 24 23 22 22 20 18 18 18 16 14 14 12 11 10 10 9 8 7 8 7 7 7 8 10 13 14 15 16 16 16 15 15 15 16 17 17 17
30 29 27 26 26 24 22 22 23 21 20 20 20 17 16 14 13 12 11 10 9 8 8 8 7 7 8 10 12 14 15 16 16 17 18 17 16 16 16 17 19 19
32 30 28 27 25 24 22 23 23 22 21 21 20 18 16 15 13 12 11 10 9 8 8 8 8 8 9 11 12 13 14 14 16 17 18 19 18 18 18 18 20 21
33 30 29 27 26 24 24 24 24 23 22 21 19 18 16 15 14 13 11 10 9 8 8 8 9 10 10 11 11 12 12 12 13 14 16 18 19 20 20 21 21 22
34 32 30 28 26 25 25 24 24 23 22 20 18 16 15 14 13 12 10 9 9 9 9 9 10 9 9 10 11 11 11 12 12 12 14 16 18 20 20 21 21 22
34 32 30 28 27 26 25 24 24 23 21 19 17 15 14 13 13 11 9 9 10 10 10 9 8 8 9 10 10 10 10 10 10 12 13 15 17 18 20 20 20 22
34 32 30 29 27 26 26 25 24 22 20 18 16 14 14 13 11 9 9 9 10 9 8 7 7 8 9 9 10 11 11 12 13 14 15 16 17 18 19 19 20 22
33 32 31 30 28 27 26 24 23 21 19 17 15 14 13 11 10 9 9 10 9 8 7 7 7 8 9 10 12 14 15 16 17 17 17 18 20 20 19 19 20 21
33 32 31 31 30 28 26 24 22 20 17 15 14 13 12 10 10 10 10 9 8 7 7 6 7 9 10 12 14 15 16 17 17 18 19 19 19 19 19 19 20 21
33 32 32 31 29 27 25 23 21 18 16 14 13 12 11 10 10 9 9 8 7 7 7 7 8 9 11 13 14 15 15 16 17 18 19 19 19 19 19 20 20 21
32 32 31 30 28 26 24 21 19 17 14 13 12 11 11 10 9 9 8 8 7 7 8 9 9 11 13 15 16 17 17 17 17 18 19 18 19 19 19 20 20 21
29 29 29 28 27 24 22 20 18 15 13 12 12 11 11 10 9 9 8 8 9 10 10 10 11 13 15 17 19 20 20 20 20 20 21 20 20 20 20 20 21 21
24 25 26 25 24 23 21 19 16 14 13 12 12 11 10 10 9 9 9 10 11 11 10 10 12 14 17 19 21 21 21 22 22 23 24 24 23 22 22 23 23 23
23 23 24 24 24 22 20 18 15 13 12 12 12 11 10 10 9 9 11 12 11 11 11 11 13 16 18 20 21 21 22 23 24 25 25 25 26 25 25 25 25 25
24 24 24 24 24 22 20 17 14 12 12 12 11 11 10 9 9 10 11 11 10 9 11 13 15 17 19 20 21 22 23 24 24 25 26 27 27 27 27 27 27 26
29 27 27 26 24 22 19 16 14 13 12 12 12 11 9 9 9 9 8 7 7 9 12 15 16 18 19 21 22 22 23 23 24 25 26 27 28 27 28 28 28 28
32 31 30 28 25 22 18 15 14 12 12 12 11 9 8 8 7 5 4 6 10 13 15 16 18 19 20 21 22 23 23 24 24 25 27 28 28 28 29 29 29 29
35 36 33 29 25 21 17 15 13 12 11 11 9 7 7 6 3 3 6 9 12 14 15 17 19 21 22 23 23 24 25 25 26 27 28 29 30 29 29 30 30 30
39 39 35 30 26 21 17 14 12 12 11 10 8 7 6 4 4 6 8 10 13 15 18 20 23 24 25 25 25 25 26 27 28 29 30 31 30 30 30 30 30 29
39 38 34 30 25 20 17 15 13 12 11 10 8 6 5 5 6 6 8 11 14 16 20 23 25 27 27 27 27 27 27 28 30 30 31 30 30 30 30 30 29 28
34 34 31 27 23 19 17 15 13 12 11 9 7 6 6 7 6 7 10 13 13 15 19 23 25 27 27 27 27 27 28 29 30 30 30 30 30 30 29 29 29 29
32 30 28 24 20 18 15 13 12 10 10 8 6 7 8 7 8 10 11 11 11 14 19 23 25 27 27 27 27 28 28 30 30 30 29 29 30 30 30 30 30 30
31 29 26 23 19 16 14 13 11 9 8 7 7 9 10 10 12 12 9 8 9 15 20 23 26 28 27 27 28 28 28 29 29 29 29 29 29 30 29 29 30 30
29 26 23 21 19 16 13 12 9 7 7 8 10 12 13 13 14 12 7 6 9 16 21 23 26 28 27 27 28 28 28 28 28 28 28 29 30 30 30 30 30 30

ECMWFNIL_925_spd_003.txt.gz
Wind_Speed
27 26 25 25 25 24 22 20 18 16 14 12 11 9 8 7 6 5 5 5 5 6 7 8 10 10 10 10 11 12 12 12 13 13 13 13 13 12 12 11 11 10
29 28 27 26 26 26 24 22 19 17 15 13 11 10 9 9 8 7 7 7 6 7 7 8 10 10 10 11 11 12 14 14 13 13 13 14 14 14 13 13 13 12
30 30 29 28 28 27 25 23 21 19 17 15 13 11 11 10 10 9 8 8 7 7 7 8 9 10 11 11 12 14 15 15 14 14 14 14 14 14 14 15 15 15
32 31 30 29 28 27 26 25 23 21 19 16 14 13 13 11 10 10 9 8 7 7 7 8 9 10 11 11 12 14 15 14 14 14 15 14 14 15 15 16 17 17
33 32 31 30 29 27 27 26 25 23 21 19 16 16 15 13 11 10 10 9 8 8 9 9 10 11 11 12 13 14 15 15 14 14 15 16 16 16 17 18 18 19
35 33 33 32 30 29 28 27 26 24 23 21 19 18 17 15 13 12 11 10 9 8 9 10 11 11 12 12 13 14 15 15 15 15 16 16 17 18 18 19 19 20
36 35 33 32 31 29 28 27 26 25 24 23 21 20 19 17 15 13 12 10 8 8 8 9 10 12 12 12 13 14 14 14 15 15 16 17 18 19 19 20 21 21
37 36 34 32 31 29 28 27 26 25 25 24 23 21 20 18 16 14 12 9 7 7 7 9 10 12 12 12 12 12 13 13 14 15 16 17 18 18 19 19 20 21
36 35 34 32 31 29 27 26 25 24 24 24 23 21 19 17 15 13 10 7 6 6 7 9 11 11 10 10 10 11 13 14 14 15 15 16 17 18 18 18 19 20
31 33 33 32 31 28 26 25 23 23 23 23 22 20 18 16 14 11 8 6 6 7 8 10 10 9 8 9 10 11 13 14 15 16 16 16 16 17 17 17 17 18
26 27 29 31 30 27 25 23 22 22 22 21 19 17 16 15 13 10 8 7 7 7 8 8 7 7 7 9 11 13 14 16 17 18 18 17 17 16 16 16 17 18
26 25 26 28 28 26 24 22 21 21 21 19 16 15 14 13 11 9 8 7 7 7 6 5 5 7 8 10 12 15 17 19 19 19 19 19 18 17 16 17 17 17
32 30 29 29 28 26 24 22 21 21 19 17 15 14 13 11 10 9 8 7 7 6 4 5 6 7 9 11 14 17 18 19 20 20 21 20 20 19 18 18 18 18
34 34 34 33 31 28 25 23 22 21 19 17 15 14 12 11 10 9 9 7 5 4 4 5 6 7 9 12 15 16 18 19 20 21 22 22 22 21 20 19 19 19
30 34 35 35 33 30 27 25 23 21 19 17 15 13 12 11 10 10 8 6 3 2 3 3 4 6 9 12 14 16 17 19 21 22 23 24 24 24 23 22 21 21
33 35 36 36 34 32 30 27 25 22 20 17 15 14 13 12 11 10 7 4 2 2 1 1 4 7 10 12 13 15 17 19 21 22 23 24 25 26 25 25 24 24
34 34 36 35 34 33 31 29 27 25 21 18 16 15 14 13 12 10 7 4 4 3 1 3 6 9 12 14 15 16 18 20 21 23 23 24 25 27 27 27 27 27
27 28 31 34 35 35 33 31 29 27 22 20 18 17 16 15 13 10 7 5 4 2 2 5 9 12 13 15 17 18 19 20 22 23 24 25 26 27 28 28 29 29
29 29 30 33 35 34 33 32 31 27 23 21 20 18 17 16 13 10 8 6 4 1 3 6 9 12 15 17 18 19 18 19 21 23 25 26 27 27 28 28 29 29
32 34 35 36 36 34 33 33 30 25 22 20 20 19 18 16 13 10 8 5 3 1 4 6 8 12 17 19 20 21 19 19 21 23 25 27 28 28 29 29 29 29
26 27 28 31 34 33 33 32 27 23 21 21 20 19 17 15 12 9 7 5 2 2 4 6 9 14 17 19 21 22 21 21 22 24 26 27 28 28 29 29 29 29
24 21 20 23 30 31 30 28 24 21 21 21 20 18 16 13 11 9 6 4 3 4 6 8 10 14 16 19 22 23 22 22 23 25 27 28 28 29 29 29 28 28
24 24 22 24 29 30 28 25 21 19 20 21 20 18 15 13 10 8 7 5 5 6 7 9 10 13 16 19 22 23 23 23 24 26 27 28 30 29 29 28 27 27
25 28 29 30 29 27 23 20 17 17 19 20 19 16 13 11 10 8 8 7 7 8 9 9 11 13 16 19 22 24 24 24 25 27 28 30 31 30 29 29 28 27
29 32 34 35 31 23 18 16 16 18 18 17 15 12 11 10 10 9 9 9 9 10 11 11 12 14 16 19 22 24 25 25 26 27 29 31 31 31 30 29 29 29
30 32 33 32 27 19 17 19 20 19 17 15 13 11 10 10 11 11 11 10 10 11 13 13 14 16 17 20 22 24 26 27 27 27 30 31 31 30 30 30 31 31

ECMWFNIL_925_spd_006.txt.gz
Wind_Speed
30 27 25 23 22 20 18 17 17 16 14 12 10 9 9 8 7 6 4 2 0 2 4 6 8 9 9 11 12 14 15 15 15 15 15 15 14 14 13 12 12 11
31 28 26 25 24 23 21 18 17 17 16 14 11 10 11 9 8 6 5 4 3 2 2 4 6 8 9 10 11 13 15 14 14 14 15 15 15 15 15 14 14 14
32 30 29 27 26 25 23 21 19 18 17 15 14 13 12 12 10 8 7 6 5 3 1 2 5 6 8 9 10 12 14 14 13 14 13 13 13 14 14 14 15 15
34 33 31 30 28 26 24 22 22 21 19 18 16 15 14 13 12 10 10 9 7 5 3 1 3 4 6 7 9 10 12 12 12 13 13 13 13 13 13 14 14 14
35 35 33 31 29 28 26 25 24 23 22 20 18 16 15 14 13 12 11 11 9 7 4 2 1 2 4 6 7 8 10 10 11 12 13 14 14 14 14 14 14 14
32 33 33 33 32 30 28 27 25 25 23 22 20 18 16 15 13 13 12 11 9 7 5 3 1 1 3 5 6 7 8 9 10 12 13 14 15 16 16 16 16 15
31 32 33 33 33 32 30 28 27 26 25 23 22 20 17 16 14 13 12 11 9 7 6 4 2 1 2 4 5 6 7 9 10 11 12 13 14 15 15 16 16 16
32 32 33 34 34 33 32 31 29 27 26 24 23 22 19 17 16 14 13 12 10 8 6 5 4 3 3 5 6 6 7 9 11 12 13 14 15 15 15 14 14 14
33 33 33 34 35 34 33 32 31 29 26 25 24 23 21 19 17 16 15 13 11 8 7 6 5 5 5 6 6 6 8 9 11 13 14 15 16 16 16 15 14 13
38 37 35 36 36 37 36 34 33 30 27 26 25 24 22 21 19 18 16 14 12 10 8 7 6 6 6 6 6 7 8 10 11 13 14 15 16 16 17 16 16 15
40 37 36 37 39 38 37 36 35 32 29 27 26 25 23 22 21 19 17 15 13 11 9 8 7 7 6 6 6 7 8 9 11 12 14 15 16 17 17 17 16 16
39 37 36 38 39 40 39 38 36 33 30 28 27 26 25 24 22 20 18 16 13 11 9 9 8 7 5 5 5 6 7 9 10 12 13 15 16 17 17 17 17 16
38 39 38 38 39 39 38 36 35 33 31 30 29 28 27 26 23 21 18 15 13 11 10 8 6 4 3 4 5 6 7 9 11 13 14 15 16 16 16 17 17 17
34 37 37 37 35 33 31 31 31 32 31 30 30 30 29 27 25 22 18 15 13 11 10 7 5 4 3 4 5 7 9 11 13 14 15 16 16 17 17 17 18 18
31 33 34 34 33 31 31 32 32 32 31 31 31 31 29 27 24 22 19 17 14 12 10 8 7 5 4 4 6 9 12 14 15 16 17 18 19 19 20 20 20 21
29 30 32 33 33 33 35 36 36 35 34 34 33 31 28 25 23 21 19 18 16 14 11 10 8 5 3 5 8 10 12 13 14 16 17 18 20 21 22 22 23 23
27 28 30 31 32 32 35 37 36 35 34 33 32 29 26 24 22 20 19 17 15 14 12 10 7 4 3 5 7 9 10 11 12 14 16 17 19 20 22 24 24 25
25 26 28 29 31 33 34 35 35 34 32 31 31 29 27 24 22 21 18 16 14 13 11 9 6 3 3 3 7 9 10 11 12 14 15 17 19 21 23 24 25 26
24 25 27 29 31 33 34 34 35 36 36 34 32 30 28 26 23 20 18 16 15 13 10 8 5 4 2 3 7 9 10 11 13 15 16 19 20 22 24 25 26 27
23 25 26 28 29 30 30 31 31 32 33 33 31 30 28 26 24 21 19 17 14 12 10 7 6 5 4 6 8 10 11 13 14 16 18 20 22 24 25 25 26 27
22 23 24 25 27 27 27 27 28 29 30 30 28 27 25 24 23 21 19 17 14 11 9 7 6 6 6 8 9 11 12 14 16 17 19 21 24 25 25 25 26 26
21 22 23 25 26 28 28 29 31 32 31 29 28 27 25 23 22 20 18 16 14 11 8 6 6 7 8 9 10 12 13 15 17 19 20 22 24 26 26 26 26 26
22 22 23 25 26 28 29 32 36 36 33 30 29 28 26 23 21 18 16 15 12 10 8 7 8 9 9 10 12 13 14 15 18 19 20 23 25 26 26 26 25 26
22 23 24 25 26 28 30 33 36 35 33 30 29 27 24 22 19 16 13 11 11 10 9 9 10 11 11 12 13 13 14 16 18 20 22 24 26 26 26 26 26 26
23 24 25 25 27 30 33 34 34 33 31 28 25 23 21 18 14 11 10 12 13 12 11 11 13 12 12 14 14 15 15 16 19 21 23 25 26 26 26 26 26 26
23 25 26 26 28 31 34 34 31 28 26 23 21 19 16 12 10 10 13 15 14 13 13 14 14 14 14 15 16 16 17 18 19 22 24 25 26 26 26 26 26 26

ECMWFNIL_925_spd_009.txt.gz
Wind_Speed
26 24 24 24 24 23 21 19 17 17 15 14 14 14 14 13 13 11 10 8 8 8 9 9 9 9 11 12 13 14 14 14 14 12 12 11 10 10 10 9 9 8
27 26 25 25 25 24 22 20 18 17 16 14 14 14 15 14 13 12 10 9 8 7 7 8 7 7 8 8 10 12 12 12 11 10 10 9 8 8 8 7 7 6
26 26 26 26 27 25 23 21 19 18 17 16 15 15 15 15 14 13 11 10 9 8 8 7 7 6 6 6 7 9 10 10 9 8 8 8 7 6 6 5 5 5
28 27 27 27 28 26 24 23 21 20 19 18 17 17 16 16 15 14 13 11 10 9 8 7 6 5 5 5 6 7 8 8 8 7 7 7 6 6 5 5 4 5
31 29 28 29 29 28 26 25 24 22 22 21 19 18 18 17 16 15 14 13 12 10 9 8 6 5 4 4 5 6 7 7 7 6 6 6 5 5 5 4 4 4
30 29 29 30 30 30 29 27 26 25 24 23 21 20 20 19 18 17 16 15 14 12 11 9 7 6 4 3 3 4 5 5 6 6 5 5 5 4 4 4 3 3
30 30 32 32 33 33 32 31 29 27 26 25 24 23 22 21 20 19 18 17 16 15 13 11 9 8 6 5 3 3 4 4 5 5 5 5 5 5 5 4 4 3
32 34 34 34 34 35 35 34 32 30 28 27 26 26 25 24 23 21 20 19 18 17 15 13 11 9 8 7 5 4 4 4 4 4 5 5 6 6 6 6 6 5
34 36 37 35 34 35 36 36 35 33 31 29 28 28 27 26 25 23 22 21 21 19 17 14 12 10 9 8 6 6 5 4 4 4 4 4 5 6 7 8 8 7
32 36 38 37 35 35 36 37 36 34 33 31 30 29 29 28 27 24 23 23 22 20 18 16 14 12 10 8 7 6 6 5 4 3 3 3 4 6 7 8 8 9
31 33 36 37 36 35 35 35 35 34 33 33 32 31 30 30 28 26 25 25 23 21 19 17 15 12 10 9 7 6 5 3 2 2 3 4 5 6 7 7 8 9
29 31 33 35 35 34 33 33 33 33 33 33 33 33 32 31 30 29 27 26 24 22 19 17 14 12 11 9 7 5 2 0 2 4 6 7 8 8 8 8 9 9
26 29 31 32 33 32 32 31 31 31 32 33 33 30 29 30 31 30 29 27 24 21 19 17 15 13 11 9 6 4 1 2 5 7 8 9 10 10 10 10 10 10
22 26 29 31 31 30 29 29 30 31 31 32 32 29 27 30 33 32 29 27 24 21 19 16 15 13 11 8 5 2 1 3 6 7 7 8 9 10 10 11 11 10
16 21 25 28 30 29 28 28 29 30 30 31 32 31 31 33 33 30 28 26 23 21 19 17 16 14 11 8 5 3 2 3 5 5 5 7 8 9 10 11 11 11
12 15 19 23 27 28 29 29 29 29 29 30 32 33 33 34 33 30 29 28 25 22 20 18 16 13 10 8 5 3 2 2 2 3 5 6 7 8 10 11 12 12
13 12 13 17 22 25 27 28 28 28 28 30 32 32 33 34 33 32 31 29 25 23 20 18 14 11 9 7 5 3 1 0 2 3 5 6 7 8 9 11 12 13
15 12 11 14 18 22 24 25 26 27 27 30 31 31 32 33 33 33 31 28 25 22 19 16 13 11 9 6 4 2 1 1 2 3 4 5 7 8 10 11 13 14
18 14 12 12 15 18 22 23 25 26 27 29 31 31 33 34 34 33 30 27 24 21 18 16 14 12 9 7 4 2 2 2 2 3 5 6 8 9 10 12 13 14
19 16 14 12 13 16 19 22 23 25 27 28 30 32 35 36 35 32 29 27 24 20 17 16 14 12 10 6 3 2 3 3 3 5 6 7 9 11 12 13 14 15
18 16 14 12 12 15 19 21 22 25 26 28 32 35 37 36 34 32 29 26 22 19 17 16 14 11 8 5 3 3 4 5 5 7 8 9 11 13 13 14 15 16
16 15 14 12 12 16 19 21 23 25 27 31 34 35 36 35 33 31 29 25 21 19 18 16 13 10 7 5 4 4 5 6 7 8 9 10 12 14 15 15 15 16
16 14 13 13 14 17 20 22 24 26 30 33 35 35 35 35 34 31 27 24 22 21 18 15 12 9 7 6 6 6 7 8 8 9 10 12 14 16 16 15 17 20
16 14 13 14 15 18 22 24 25 27 30 33 36 37 37 37 34 30 27 24 22 20 16 11 9 8 7 7 7 7 8 10 10 9 11 13 14 14 15 15 18 23
16 15 14 15 17 20 23 25 26 28 30 32 33 33 32 31 31 29 27 25 21 17 13 9 6 7 8 9 8 8 10 12 11 10 12 13 13 14 15 15 17 20
17 15 15 16 17 21 24 25 26 28 30 32 33 32 30 29 28 26 25 22 17 13 11 9 7 7 9 9 9 10 13 14 13 12 13 13 14 14 16 17 18 18

ECMWFNIL_925_spd_012.txt.gz
Wind_Speed
14 12 12 13 12 11 12 12 11 11 10 9 9 10 11 11 12 10 9 9 9 10 10 9 9 8 8 8 7 7 7 7 7 6 6 6 5 5 4 4 2 1
16 15 13 13 13 13 13 13 12 12 11 11 10 10 11 12 13 11 10 10 10 10 10 9 9 8 8 7 7 7 7 7 6 6 5 5 5 4 4 3 3 2
21 20 18 16 14 14 14 15 14 13 12 12 11 12 13 14 14 13 12 12 11 11 10 9 9 9 8 8 8 7 7 6 6 6 5 5 4 4 3 3 3 3
24 22 21 19 16 16 16 16 16 15 13 13 13 13 14 15 15 14 13 13 12 11 11 10 10 9 9 9 8 8 8 7 6 6 5 5 4 4 3 3 2 2
23 23 22 20 18 17 17 17 18 17 16 15 15 15 15 16 16 16 15 14 13 12 12 11 10 10 9 9 8 8 8 7 7 6 5 5 4 3 3 2 2 2
21 24 22 18 17 17 18 18 19 19 18 17 17 16 16 17 17 17 16 16 14 13 13 12 11 10 9 9 8 8 8 7 7 7 6 5 4 3 3 2 1 1
21 23 21 18 16 16 17 18 18 19 19 19 18 18 18 18 18 17 17 16 16 15 14 13 12 11 10 9 8 8 7 7 7 7 6 5 4 4 3 2 1 1
20 21 21 19 17 17 17 17 16 17 18 19 19 20 20 20 19 18 18 17 16 16 15 14 13 12 11 9 8 8 8 7 7 6 5 5 4 4 3 2 1 0
17 19 21 20 19 19 18 17 16 16 17 18 19 19 20 21 20 19 19 18 17 16 15 15 14 13 12 11 10 9 9 8 7 6 5 5 4 3 2 1 1 1
12 16 19 20 19 18 17 17 16 16 16 18 18 18 19 21 21 21 20 20 18 17 17 16 15 14 13 12 11 11 10 9 8 6 5 4 3 2 1 1 1 2
10 14 18 20 19 17 16 16 16 16 16 17 17 18 18 20 21 22 22 22 21 20 18 17 17 16 14 13 13 12 11 9 8 7 5 4 3 2 2 2 2 2
11 14 17 19 19 18 17 16 16 17 17 17 17 18 18 19 21 21 21 21 21 21 20 19 18 17 15 14 13 12 11 9 8 7 6 4 3 3 3 2 2 3
11 13 14 16 17 17 17 17 17 17 18 17 17 18 19 20 22 23 22 22 22 21 20 20 18 17 16 15 14 13 11 10 8 6 5 4 3 3 2 2 2 3
9 10 11 13 14 14 15 16 17 18 18 17 17 18 20 21 23 25 24 23 22 21 20 19 18 17 16 15 14 12 11 9 8 6 5 4 3 3 2 2 2 2
10 10 10 11 11 12 14 16 18 18 18 18 17 18 20 21 23 24 23 23 23 21 20 19 18 17 16 16 14 12 11 9 8 6 6 5 4 3 2 2 2 2
9 10 10 10 10 11 12 14 16 17 17 18 18 18 19 19 20 21 21 22 22 22 21 20 18 18 19 18 15 12 10 8 7 6 5 4 4 3 2 2 2 3
9 10 10 10 10 10 11 12 14 15 16 17 17 18 18 18 19 20 22 22 22 22 22 20 19 21 22 20 16 13 10 7 6 6 4 4 3 3 3 3 3 4
10 10 11 11 10 10 10 11 11 13 15 16 16 17 16 17 18 20 21 22 21 21 21 19 20 23 22 18 15 13 10 7 5 4 4 4 4 3 3 4 4 5
11 11 11 11 11 11 10 11 11 12 13 14 15 15 15 16 17 18 20 20 21 20 19 18 21 22 19 16 13 10 8 6 5 5 4 5 5 4 5 5 5 6
12 12 12 12 12 11 11 11 11 11 11 13 15 15 15 16 17 18 20 20 21 20 17 18 22 22 18 15 12 8 6 5 5 5 5 5 6 6 6 6 7 7
12 12 12 12 12 12 12 12 11 11 11 13 15 15 16 17 17 18 19 19 20 20 18 19 22 21 17 14 11 8 5 4 5 6 6 7 7 7 8 8 8 9
12 12 13 13 13 13 13 13 12 11 11 13 14 14 14 15 16 18 20 19 19 20 20 21 22 20 16 14 11 8 4 3 5 7 7 8 8 9 10 10 10 10
12 13 13 13 13 14 14 13 12 12 12 14 15 14 13 15 16 17 19 21 22 23 22 21 20 18 16 14 11 7 4 3 5 7 7 9 9 10 11 11 11 11
13 14 15 14 14 14 14 13 12 12 13 14 16 14 13 15 15 15 18 24 26 24 21 20 21 19 15 12 10 7 5 3 5 7 8 9 10 11 11 11 12 13
15 15 16 16 16 15 14 14 13 12 13 15 15 13 13 15 16 17 20 24 25 23 19 18 19 17 13 10 9 8 5 3 5 8 9 10 11 12 12 11 12 14
15 16 16 16 16 15 15 14 13 12 14 15 14 13 15 18 21 22 24 25 24 22 18 14 14 14 11 10 9 8 6 5 6 9 10 11 11 12 12 14 15 15

ECMWFNIL_925_spd_015.txt.gz
Wind_Speed
15 15 14 14 13 13 13 12 11 11 10 9 9 9 9 9 9 7 6 6 5 5 5 5 5 5 5 5 5 5 5 6 6 6 5 5 5 5 5 5 5 4
15 15 14 14 14 13 14 13 12 11 10 9 9 10 10 10 10 9 7 7 6 6 6 5 5 5 5 5 4 4 5 5 5 4 5 4 4 5 5 5 6 5
16 15 14 14 14 13 14 14 13 12 12 11 11 11 12 12 12 11 10 9 8 7 7 6 6 6 5 5 5 4 4 4 4 4 4 4 3 4 4 4 5 5
16 16 15 14 13 13 13 14 14 14 13 13 12 12 13 14 14 13 12 11 10 9 9 8 7 7 6 6 6 5 5 5 4 4 3 3 3 2 3 3 3 4
17 17 16 15 13 12 12 13 14 14 14 14 14 14 15 15 15 15 14 13 12 11 11 10 9 8 8 7 7 6 6 5 5 5 4 3 3 2 2 1 1 2
16 15 15 15 15 13 13 13 12 13 14 15 16 16 16 17 17 16 16 15 15 13 13 12 11 10 10 9 8 7 7 6 6 5 5 4 3 2 2 1 1 1
14 14 14 15 15 14 14 14 13 13 15 15 16 17 18 19 18 18 18 17 16 15 15 14 13 13 12 11 10 9 8 7 7 6 6 5 4 3 3 2 1 2
12 12 13 14 14 14 13 13 13 14 15 16 16 17 18 19 19 19 19 19 18 17 16 16 15 15 14 13 12 11 10 9 8 7 7 6 5 4 4 3 2 2
12 12 12 13 14 15 14 14 16 16 16 15 16 16 17 19 20 20 20 20 19 19 18 17 17 16 15 14 13 12 12 10 9 9 8 7 6 5 5 4 3 3
9 10 10 10 11 12 12 13 17 19 18 17 16 17 18 18 19 20 20 20 20 20 19 19 18 17 17 15 14 14 13 12 11 10 9 8 7 6 4 4 4 4
7 8 8 8 10 13 14 14 16 18 18 18 18 18 19 19 20 20 21 21 21 20 20 19 19 18 18 17 16 15 14 13 12 11 10 8 7 6 5 4 4 4
3 5 6 7 10 14 16 17 18 19 18 17 17 18 19 20 21 21 22 21 21 20 20 19 19 18 18 17 16 16 15 14 12 11 10 9 8 6 5 5 4 4
2 2 4 5 6 10 13 16 19 20 17 15 15 16 18 21 24 23 23 22 22 21 20 20 19 19 19 18 17 17 16 15 14 12 11 9 8 7 6 6 5 5
2 4 5 6 7 8 11 15 17 16 15 15 17 19 20 23 24 23 22 22 22 22 21 21 20 20 20 20 18 18 17 16 15 13 12 11 9 8 8 7 6 6
4 5 6 7 8 9 11 13 14 13 14 15 20 23 24 23 22 21 21 21 21 21 21 22 21 21 22 22 19 18 18 16 15 13 12 11 10 9 9 8 7 6
3 4 6 7 9 10 11 11 11 11 12 14 18 21 21 20 20 20 20 20 21 22 22 22 21 20 22 23 21 19 17 16 14 13 12 11 10 9 9 8 8 7
5 5 6 8 9 9 9 10 10 10 11 12 14 15 16 17 18 19 19 19 20 21 20 19 20 20 22 24 24 20 17 15 14 13 12 11 10 9 9 8 8 7
6 7 8 8 9 9 9 9 10 10 11 11 12 13 14 15 16 17 17 17 17 18 17 16 18 20 23 27 27 23 18 14 12 12 12 10 10 9 8 7 7 6
7 8 9 9 9 9 9 9 9 10 11 11 11 12 12 13 14 14 16 16 14 16 17 16 16 19 24 28 27 24 21 14 10 11 11 9 9 9 7 7 6 6
8 9 9 9 10 10 10 11 11 11 11 10 11 12 11 12 13 13 15 16 15 17 18 18 18 21 24 28 26 24 21 15 9 9 9 8 8 8 7 7 7 7
8 9 9 9 10 10 11 12 12 12 12 11 11 12 12 12 13 14 15 15 16 17 18 18 20 21 25 27 25 21 19 14 9 8 8 7 7 8 8 8 8 8
8 9 9 10 11 11 12 12 12 13 13 12 12 12 12 11 12 13 14 14 15 15 15 18 21 23 26 26 22 19 17 13 9 8 7 7 7 8 8 8 9 9
9 9 10 10 11 12 13 13 13 13 13 12 13 12 13 12 11 12 14 15 16 14 14 18 22 25 26 24 20 17 14 10 8 8 7 7 8 8 8 8 9 9
10 10 10 11 12 13 14 13 14 14 13 12 13 13 14 13 11 12 12 13 14 15 17 21 26 27 25 21 18 15 12 9 7 7 7 7 7 7 7 8 9 11
11 11 11 12 12 13 14 14 14 14 14 13 13 13 13 12 11 12 10 8 11 15 18 23 28 27 23 18 15 13 11 7 4 4 4 4 5 7 8 8 9 11
13 12 12 12 13 13 13 14 14 14 14 14 12 13 13 11 10 10 8 10 12 15 19 25 28 26 21 17 14 12 10 6 2 1 3 5 5 7 8 8 9 11

ECMWFNIL_925_spd_018.txt.gz
Wind_Speed
18 18 18 15 15 15 14 13 13 12 10 10 10 9 9 8 7 6 5 4 4 4 5 5 5 6 7 7 7 7 7 8 9 9 9 9 10 10 9 8 9 9
19 18 18 16 14 15 15 13 12 13 11 10 11 10 10 10 8 8 7 6 5 5 5 5 4 5 5 5 6 6 6 8 8 8 8 8 8 8 8 8 8 10
20 19 18 17 15 15 16 14 11 12 11 10 10 11 11 11 10 10 9 8 7 6 6 5 5 5 4 4 5 5 5 6 6 6 7 7 8 7 7 6 7 8
19 18 17 17 15 14 16 15 12 12 11 10 10 10 12 12 11 11 11 10 9 9 8 7 6 6 6 5 5 5 5 5 5 5 6 6 6 5 6 6 6 7
18 17 15 15 14 13 15 16 13 12 11 11 11 11 12 13 12 12 12 12 11 11 10 9 9 8 8 7 6 6 6 5 5 5 5 4 4 4 5 5 5 5
15 15 14 13 12 11 11 13 14 13 11 12 12 12 12 13 13 13 13 13 13 13 12 12 12 11 10 9 8 8 8 7 6 6 5 4 3 3 4 3 3 3
12 12 12 11 10 10 9 10 12 12 11 11 12 12 13 14 14 14 15 15 15 15 14 14 14 13 13 12 11 10 10 9 9 8 7 6 5 4 4 3 2 2
7 8 10 9 8 9 9 10 12 13 13 13 13 13 13 15 15 14 15 16 16 16 16 15 15 15 15 14 13 13 12 11 11 10 9 9 8 6 5 5 3 2
4 3 4 6 6 6 6 9 11 12 14 16 15 14 13 13 15 15 15 16 17 17 17 16 16 17 17 16 15 15 14 14 13 12 10 11 9 7 7 6 4 3
6 3 2 2 4 6 6 8 10 11 13 15 15 15 13 11 11 13 15 17 18 18 17 17 17 17 17 17 16 16 16 15 15 13 12 12 10 9 8 7 6 5
9 10 9 5 3 5 5 6 7 9 12 12 11 12 14 13 12 14 16 17 19 19 19 18 18 18 17 17 16 16 16 15 14 14 14 13 12 11 10 9 7 6
10 12 12 7 4 6 9 10 11 11 10 10 10 11 14 16 18 18 16 18 21 22 22 21 19 18 18 18 17 16 16 16 14 14 14 13 13 12 11 10 8 7
8 8 8 5 2 6 10 14 16 16 16 15 16 18 19 18 18 18 19 22 24 23 22 20 20 20 19 18 18 17 17 17 16 15 15 14 13 12 10 9 9 8
5 6 7 6 4 5 7 11 14 15 16 17 19 22 23 20 18 18 22 28 29 25 22 20 19 18 19 19 20 20 19 19 18 16 15 14 13 12 10 10 10 8
2 2 3 5 7 7 7 9 10 11 12 14 16 19 19 18 19 21 23 27 29 27 26 24 21 19 20 22 22 22 21 20 19 17 16 15 13 11 10 10 10 9
2 3 4 6 8 9 8 8 9 11 13 13 12 13 14 16 20 25 26 27 27 26 25 24 21 21 24 25 25 25 23 20 20 17 15 15 14 12 11 11 10 9
3 4 5 6 7 7 8 8 8 8 10 10 10 12 13 15 18 22 25 25 25 22 22 22 21 23 26 26 24 25 24 20 19 18 15 15 14 13 12 12 11 10
2 3 4 5 5 5 6 6 6 6 7 8 9 11 13 14 15 17 18 18 19 18 18 22 24 25 27 25 21 22 23 20 18 17 15 14 13 13 12 11 12 11
3 3 5 5 4 5 6 6 7 7 8 8 9 10 11 11 13 14 14 14 15 14 14 19 23 24 24 24 22 22 22 20 17 16 15 14 12 12 11 10 11 11
3 4 4 4 4 5 6 6 8 9 9 9 9 9 10 11 12 13 13 13 13 12 14 17 19 19 20 22 22 23 23 21 17 15 15 13 11 12 12 10 9 8
4 4 4 4 5 6 6 7 8 9 10 10 10 10 11 11 12 12 12 13 13 12 13 15 16 17 19 21 22 23 24 22 17 14 14 11 10 11 11 10 9 8
4 4 3 4 5 6 7 8 8 9 10 10 11 11 11 11 11 11 10 12 12 12 13 14 15 17 18 20 22 23 23 20 13 11 12 10 8 9 9 9 10 10
5 5 5 6 6 7 7 8 9 10 10 11 12 12 11 11 12 11 10 11 11 12 14 14 14 17 20 21 23 22 21 18 11 9 10 8 7 8 9 9 10 11
6 6 6 6 7 8 9 9 10 11 11 12 13 13 12 11 11 11 11 11 11 11 12 14 15 19 20 21 22 20 18 15 10 7 7 7 8 9 10 10 10 11
7 7 8 8 9 10 10 10 11 11 12 13 14 14 14 12 12 12 10 8 7 8 10 12 16 20 19 19 18 17 15 14 9 7 8 8 8 8 8 8 7 8
9 9 10 10 10 10 10 11 11 12 12 13 14 14 14 12 10 9 7 6 6 7 8 10 15 20 19 18 17 16 15 14 10 7 5 3 3 3 4 4 5 7

ECMWFNIL_925_spd_021.txt.gz
Wind_Speed
26 25 24 22 20 21 19 18 18 16 15 13 12 11 10 10 11 11 9 8 7 8 9 10 10 10 10 8 6 7 9 10 10 10 10 10 10 10 12 12 10 9
26 23 22 21 19 19 18 17 17 15 15 13 11 11 9 9 10 9 7 7 7 7 7 8 10 10 9 7 5 6 9 10 10 8 8 9 10 10 11 12 10 8
23 22 21 20 20 18 16 16 16 14 14 14 12 11 10 9 10 9 7 6 6 6 7 7 9 9 7 6 5 6 8 8 7 6 6 7 7 8 10 10 10 8
19 20 19 18 19 18 16 15 16 14 13 14 13 12 11 10 10 9 8 6 5 6 6 6 8 8 6 7 6 5 7 6 6 7 6 5 5 5 8 9 9 7
16 17 17 16 16 17 17 16 16 15 13 12 13 12 11 10 9 9 8 7 6 6 5 5 7 8 7 7 8 6 7 7 5 6 5 5 4 3 6 8 8 6
16 15 16 16 14 16 19 17 15 15 14 12 11 11 11 9 8 8 8 7 7 7 7 6 6 8 7 7 8 7 7 7 6 7 6 4 4 3 4 5 4 3
16 15 14 14 13 14 19 18 14 14 13 11 11 11 10 10 8 7 8 8 8 8 8 8 7 8 9 8 8 8 7 7 6 8 8 6 5 6 5 3 3 1
15 13 11 11 11 12 16 17 14 13 10 9 11 10 9 9 9 9 9 9 9 10 10 10 9 9 10 10 9 9 9 9 8 9 9 8 8 8 7 6 5 4
13 12 10 9 9 10 12 13 13 12 11 9 10 9 7 6 8 9 10 10 11 12 12 13 13 12 12 12 11 11 11 11 11 11 10 10 11 9 8 8 7 6
12 12 12 10 8 7 8 10 11 11 12 12 10 9 7 5 6 10 11 12 13 15 15 15 16 15 15 14 13 13 14 13 14 13 12 11 12 11 9 9 9 7
13 14 15 14 13 13 13 13 12 11 12 12 11 12 11 8 7 9 11 13 15 16 16 17 18 18 18 18 17 16 16 16 16 16 14 13 13 12 10 10 9 7
11 12 13 15 14 14 14 15 14 13 13 12 12 14 16 15 14 13 13 15 16 14 13 15 18 19 20 20 20 19 18 18 19 19 16 14 15 13 11 10 10 7
9 9 10 12 12 10 12 14 14 14 14 13 15 18 20 21 20 19 19 19 19 17 15 13 15 19 21 21 20 20 20 20 21 21 19 17 17 15 13 13 11 9
8 8 9 9 7 6 7 9 11 12 11 12 15 19 21 21 21 21 21 22 23 23 20 18 16 17 20 21 19 18 19 22 24 23 21 20 19 18 17 16 14 12
9 9 9 8 7 6 6 6 7 8 10 12 15 17 19 20 20 20 21 23 25 24 22 21 21 20 20 21 21 19 19 22 25 26 24 22 22 20 18 17 14 13
9 8 8 7 7 7 7 8 8 9 10 12 13 14 14 16 18 19 19 21 24 25 23 22 22 23 23 23 23 23 23 22 23 27 27 24 23 21 19 17 16 15
5 5 6 5 3 4 5 7 9 10 11 11 12 12 13 14 17 18 19 19 21 23 22 21 21 22 23 24 24 25 26 24 22 26 27 25 24 24 21 19 18 16
3 4 4 3 2 3 3 4 5 6 8 9 11 12 13 14 16 17 17 17 17 18 18 18 19 19 20 23 23 24 25 24 22 25 27 26 26 25 23 21 18 17
2 3 2 1 1 2 2 1 0 1 3 4 6 7 9 10 11 13 14 14 13 13 13 14 15 16 17 19 20 21 22 22 23 26 29 28 25 24 21 19 17 16
3 2 2 2 3 3 2 1 2 3 5 6 6 6 6 6 7 9 11 12 11 10 10 11 12 14 14 14 15 17 19 22 24 26 27 24 22 20 18 16 15 15
3 3 2 2 1 1 1 1 2 3 5 6 7 7 7 7 8 9 9 11 13 12 10 9 11 13 13 13 14 14 16 20 23 23 22 20 17 16 15 14 13 14
5 4 4 3 2 2 2 2 3 4 4 6 7 8 8 9 10 10 10 9 11 12 11 10 11 13 13 12 12 11 15 21 22 21 19 17 14 13 14 14 13 12
6 5 4 4 4 4 4 3 4 4 5 7 8 9 10 11 11 11 12 10 9 11 11 10 11 13 12 10 10 13 18 20 20 18 16 15 14 13 12 11 10 9
5 4 5 6 6 5 5 5 6 6 7 8 9 11 12 13 13 12 12 12 11 11 10 9 10 12 12 12 13 16 17 16 16 16 15 14 12 9 6 6 7 8
4 4 5 5 6 7 8 9 9 9 8 8 9 11 13 14 15 14 12 12 12 13 11 9 10 12 14 15 16 16 15 14 14 13 12 9 7 6 6 6 6 6
8 8 8 9 11 13 13 13 12 10 9 9 10 11 13 15 15 13 11 11 11 12 11 10 11 14 16 17 17 16 15 15 13 12 11 9 9 8 7 4 2 2

ECMWFNIL_925_spd_024.txt.gz
Wind_Speed
26 25 24 24 24 24 23 22 21 20 19 19 19 18 17 16 15 15 15 14 14 14 12 10 9 9 8 8 9 11 11 11 11 9 10 11 10 10 10 10 8 7
24 24 25 24 24 23 22 21 20 18 17 18 18 18 18 17 16 14 14 14 14 15 13 11 10 9 7 7 8 9 10 10 11 9 10 11 10 10 9 9 8 6
24 25 26 25 23 23 22 21 19 17 16 17 17 17 18 18 16 13 12 13 14 15 14 12 11 9 7 7 7 7 8 9 9 8 9 11 10 9 8 7 7 7
24 26 25 24 22 21 22 21 20 18 17 17 17 16 16 16 15 13 12 11 12 13 14 13 11 9 7 6 6 7 6 6 6 5 7 8 8 8 7 6 6 7
24 25 24 23 22 21 22 21 21 21 20 19 18 16 16 15 14 13 11 11 10 11 12 12 11 9 8 7 6 6 5 5 5 4 4 6 6 6 6 5 5 6
25 26 24 24 23 22 23 23 22 22 21 21 19 18 16 15 14 13 11 11 10 10 10 10 10 9 8 8 7 6 5 6 6 5 4 3 4 5 6 5 4 4
26 26 24 24 25 25 25 24 24 23 21 21 21 19 17 15 13 12 10 10 9 10 10 9 10 9 8 8 9 8 7 6 6 6 5 4 3 4 6 4 2 1
22 24 25 25 26 28 27 26 26 25 22 21 20 19 18 16 14 12 11 10 9 9 9 9 9 9 9 9 10 10 10 9 8 8 8 7 6 5 5 3 2 2
14 17 22 25 26 28 27 26 26 26 23 22 21 20 20 18 15 14 12 12 11 10 10 10 10 10 10 11 12 12 13 12 11 10 10 11 10 8 7 6 5 4
13 13 17 18 18 22 24 24 26 26 24 23 22 21 21 19 17 16 15 14 14 13 13 13 12 12 13 12 13 13 13 13 13 12 12 12 12 11 10 9 7 6
18 19 20 17 12 14 19 22 23 25 23 22 22 21 21 20 19 18 18 17 17 16 15 15 14 14 15 15 15 15 15 14 14 14 14 14 13 13 13 12 10 8
21 20 19 20 15 12 14 16 17 19 19 19 20 19 19 17 16 16 17 17 18 18 18 18 18 18 18 18 18 18 18 17 16 16 15 15 15 15 15 14 12 10
21 18 15 18 17 14 15 17 16 14 14 15 15 15 14 13 12 12 13 15 16 17 17 17 18 20 21 22 22 21 21 20 19 19 18 17 17 17 16 15 13 12
15 15 14 14 14 15 17 17 15 13 12 13 14 14 14 14 13 14 14 15 16 16 16 15 16 17 20 23 24 24 24 23 22 22 21 20 20 19 18 17 15 14
9 11 12 12 12 13 13 13 11 11 11 13 14 14 14 14 15 16 16 16 18 19 19 19 20 20 19 19 21 22 23 24 24 24 24 23 23 22 20 19 18 16
8 8 8 9 9 8 9 8 8 8 8 9 10 11 12 13 14 15 15 16 18 20 19 19 19 20 19 19 19 19 20 21 23 25 25 25 26 26 24 22 21 20
8 7 7 8 7 6 6 6 6 6 7 8 9 10 11 12 12 13 14 15 16 17 16 16 17 17 18 19 19 19 19 19 21 23 24 25 27 28 27 25 24 23
6 7 8 8 7 6 6 6 6 7 7 7 8 9 9 11 12 13 13 13 14 15 14 14 14 14 14 16 17 18 20 20 21 23 24 24 27 29 29 28 27 25
6 7 8 7 7 6 5 5 4 3 2 2 2 3 5 6 9 10 10 10 11 12 12 12 10 10 11 12 14 15 16 18 20 22 23 23 25 28 30 30 28 26
5 5 6 7 7 7 7 6 5 4 3 1 1 1 2 3 5 6 7 7 8 9 10 10 9 9 9 10 10 11 11 13 15 18 20 22 24 27 30 29 27 24
4 3 5 7 7 6 6 4 3 2 2 1 2 2 3 4 5 6 6 6 7 8 9 9 9 9 9 9 9 9 9 10 13 16 18 20 22 24 25 24 21 18
5 4 5 6 5 4 4 3 4 3 3 4 5 6 6 6 6 7 8 8 7 7 8 10 10 10 10 10 9 9 9 9 11 13 15 17 19 20 20 18 16 13
8 7 7 7 7 5 5 5 5 5 5 5 6 8 8 8 9 9 9 9 9 9 9 10 11 12 12 11 10 9 8 6 7 10 11 13 14 15 14 13 12 11
7 7 7 8 8 7 7 7 7 7 6 6 7 8 9 9 10 11 10 10 10 11 12 12 12 12 11 11 9 8 6 6 8 11 13 13 13 12 11 11 12 12
4 5 5 6 6 7 7 8 8 8 8 8 8 8 9 10 11 12 13 12 11 12 13 13 13 12 11 10 8 7 7 9 12 14 15 14 13 13 13 12 11 10
7 7 6 5 5 6 7 9 10 11 11 10 9 9 9 10 11 13 14 12 11 11 13 14 14 13 11 10 9 9 11 13 14 15 15 15 14 14 13 10 8 7

ECMWFNIL_925_spd_027.txt.gz
Wind_Speed
24 24 22 19 17 16 16 16 14 14 14 12 12 11 12 13 12 11 9 9 9 10 11 11 11 11 10 9 9 9 8 8 8 7 7 8 9 9 8 8 7 7
25 24 22 18 16 16 16 15 14 14 14 12 11 11 12 13 13 12 11 10 10 9 10 10 10 10 9 9 8 9 9 9 9 7 6 8 8 7 8 8 7 7
25 24 22 18 16 17 16 15 14 13 13 12 11 12 12 12 13 13 12 12 10 9 9 9 9 8 7 8 8 9 9 9 10 8 7 8 7 6 7 7 7 8
25 25 23 17 14 15 15 15 15 13 13 13 12 13 13 12 12 12 13 13 12 11 10 9 9 8 7 7 7 9 9 9 10 9 8 8 6 6 6 6 7 8
24 26 25 18 15 17 17 16 16 15 14 13 13 14 14 13 12 11 12 13 14 13 11 10 10 8 8 8 8 9 9 10 9 8 8 8 7 6 7 7 7 7
26 28 26 20 18 19 18 17 17 17 16 16 15 15 15 15 14 12 12 13 14 14 13 12 11 10 9 8 8 8 8 9 9 8 8 8 8 7 7 7 6 6
28 29 26 22 20 19 19 18 19 19 19 18 18 17 16 16 16 14 13 12 13 13 14 13 12 11 10 9 8 7 7 7 7 7 7 7 7 7 7 6 5 5
25 27 25 22 21 20 19 18 20 22 21 21 22 21 19 18 17 16 14 13 12 12 12 13 13 12 11 11 10 9 8 7 7 7 7 6 6 7 6 5 3 3
21 24 23 22 22 22 19 18 21 22 22 22 24 23 23 22 20 18 16 14 13 11 11 12 12 13 13 12 11 10 10 9 8 8 8 7 7 7 7 5 4 3
17 20 22 22 23 23 20 18 20 21 21 21 22 23 24 23 21 20 19 17 15 13 12 11 12 13 14 14 13 12 11 10 10 9 9 9 8 8 8 7 6 5
18 19 21 22 22 21 18 17 18 19 21 21 22 24 24 21 18 17 18 19 17 15 13 13 13 13 15 15 14 14 13 12 11 11 10 10 11 10 10 9 9 7
20 19 19 20 21 21 20 20 19 19 21 23 24 24 23 22 19 20 22 24 21 17 15 14 14 14 16 17 16 15 15 15 14 13 12 12 12 13 13 12 12 11
18 18 17 17 18 19 20 20 18 19 21 24 24 23 22 22 22 23 26 27 25 21 19 18 17 17 18 19 18 18 18 18 18 17 16 15 15 14 15 15 14 13
17 17 16 16 16 16 16 16 17 20 21 21 20 20 20 18 18 21 23 23 22 22 21 20 19 18 18 18 18 18 19 20 21 21 20 19 18 17 17 17 17 16
18 19 16 15 16 16 15 16 18 18 19 19 20 20 19 16 17 21 22 21 20 19 18 17 17 17 18 18 18 19 20 20 21 23 24 23 21 20 20 20 19 18
13 15 13 13 15 17 17 19 19 19 19 20 20 20 20 19 22 24 22 20 19 18 17 17 17 18 18 18 18 19 18 18 18 21 23 24 24 23 22 22 22 21
9 11 12 13 15 16 17 18 19 18 17 17 16 16 18 21 23 23 19 17 16 16 16 16 15 14 13 14 14 15 16 16 16 17 18 21 23 24 24 25 24 24
12 13 14 16 17 16 14 14 14 13 12 12 12 12 13 14 14 14 12 11 10 10 10 9 8 8 8 9 11 12 13 14 15 16 17 18 20 22 24 25 26 26
11 12 14 15 15 14 12 11 11 10 8 7 6 5 4 3 3 3 3 3 4 4 5 5 5 5 6 7 7 8 8 10 11 14 16 17 19 21 22 23 25 26
6 7 8 9 9 9 9 9 9 8 7 6 5 4 3 3 2 2 1 1 2 3 3 4 5 6 6 5 5 5 5 6 7 9 11 13 15 17 19 21 22 24
4 3 4 6 7 8 8 8 8 6 5 4 2 2 2 2 3 3 2 2 2 3 4 5 6 6 6 4 4 5 5 6 7 9 11 11 13 14 16 18 20 22
3 3 5 7 7 7 6 6 5 4 3 2 1 1 2 3 3 4 4 4 5 5 5 6 6 7 6 6 6 6 7 7 7 8 9 9 10 11 12 14 16 18
5 5 6 7 8 7 6 5 4 3 3 2 1 2 4 5 5 6 7 7 8 8 8 8 8 8 8 8 8 7 7 7 7 6 5 5 5 6 7 9 11 13
5 6 7 8 10 9 7 6 5 5 5 4 4 6 7 8 7 8 9 11 11 11 11 11 10 11 11 9 9 9 8 7 6 4 3 4 5 7 8 10 11 12
3 4 6 8 10 10 9 8 7 7 6 6 6 7 7 8 7 8 10 13 15 15 14 12 11 12 13 11 9 8 7 5 4 3 5 7 9 10 11 11 11 10
5 4 4 5 6 7 7 7 7 6 6 7 7 7 7 7 7 7 8 11 15 16 14 13 12 12 12 11 8 7 6 5 5 6 9 11 12 12 11 10 10 9

ECMWFNIL_925_spd_030.txt.gz
Wind_Speed
18 17 15 12 11 11 10 8 6 4 4 4 3 4 5 6 5 4 3 4 5 6 7 7 7 7 8 8 8 8 8 8 9 9 9 10 11 11 12 12 11 12
20 18 16 14 13 12 11 8 5 3 3 3 2 2 4 5 5 4 4 4 3 3 4 4 4 5 6 7 7 8 8 9 10 9 9 10 10 10 11 12 12 12
20 19 17 15 14 13 12 9 4 2 4 4 3 3 4 6 6 5 4 4 3 2 1 1 1 2 4 5 6 7 7 8 9 8 8 9 9 10 11 12 12 12
20 20 18 16 14 12 12 10 7 4 7 5 4 4 5 6 6 6 5 4 4 3 3 2 1 1 1 3 4 5 6 7 7 7 7 9 8 9 11 11 12 12
21 21 20 17 14 13 14 14 11 8 8 6 5 5 6 6 7 6 6 6 6 6 5 4 3 2 1 0 1 3 4 5 6 5 6 8 8 9 10 10 11 11
22 22 22 19 17 17 17 16 14 11 9 7 6 6 6 7 6 6 6 6 7 8 8 7 6 5 3 2 2 0 2 3 4 3 4 6 7 8 9 8 9 10
22 24 24 21 20 19 18 18 16 13 11 9 8 8 7 7 7 7 6 6 7 9 10 10 9 8 6 5 4 3 1 1 2 2 2 3 5 6 7 6 6 7
21 22 22 20 20 20 19 19 18 14 12 12 12 12 11 10 9 9 8 8 8 9 10 11 11 10 9 8 6 5 4 3 2 2 2 2 2 4 5 4 3 4
22 21 19 19 21 22 21 21 19 16 13 13 15 15 14 13 12 10 10 10 10 10 10 11 12 12 12 11 9 8 6 5 5 4 4 4 3 3 4 3 2 3
23 22 20 20 22 23 23 21 19 17 15 15 17 16 14 14 14 14 13 13 12 11 11 11 13 14 14 14 13 11 9 8 7 7 7 6 5 5 5 4 3 3
22 21 21 21 24 24 23 22 20 18 16 15 14 11 10 12 13 15 16 15 13 12 13 13 14 15 17 17 17 15 12 11 10 9 9 9 9 8 7 7 6 5
19 19 19 20 23 24 23 23 22 18 15 13 11 8 10 12 13 15 16 16 14 14 16 16 16 18 18 20 22 20 15 13 13 11 11 12 12 11 10 10 9 8
17 17 16 16 19 22 23 23 21 18 15 14 12 14 16 16 15 13 12 14 16 18 20 20 18 17 17 18 23 24 19 16 15 14 13 14 14 14 13 13 12 11
18 17 16 15 17 20 22 22 19 16 15 14 13 15 16 15 15 12 10 14 20 22 22 21 19 19 19 19 22 24 23 18 15 15 15 16 17 17 16 15 14 14
17 17 16 15 16 18 19 19 16 15 14 13 12 13 12 13 14 15 16 20 23 22 20 20 20 20 18 16 16 19 19 17 15 15 16 17 18 18 18 18 17 17
14 15 16 16 16 16 16 15 15 14 13 12 11 11 11 12 15 16 18 21 20 19 18 18 19 19 16 14 14 15 15 15 15 15 15 16 17 17 18 19 19 20
12 12 14 15 15 15 15 14 14 13 11 10 10 9 9 10 12 13 15 17 18 18 17 17 17 17 17 15 13 12 12 12 12 12 12 13 14 15 16 17 18 20
9 10 12 14 14 13 12 11 11 11 10 9 7 7 7 8 9 10 11 13 15 16 14 13 13 13 12 10 7 7 7 8 9 10 10 12 13 14 15 16 17 18
7 7 9 10 11 10 9 7 7 7 6 6 5 5 7 8 8 8 7 9 11 11 9 8 7 7 6 4 3 3 3 4 5 7 8 10 11 13 15 17 17 17
6 6 6 7 7 8 7 6 5 5 5 6 6 7 7 6 5 5 4 5 5 5 5 3 3 3 2 2 2 2 1 2 3 5 7 8 10 11 13 15 15 16
4 5 5 6 7 7 8 7 7 8 9 10 10 10 9 8 7 6 5 4 2 0 1 2 2 3 3 3 3 3 2 3 4 5 7 9 10 10 11 12 13 13
3 3 3 5 6 6 7 9 11 12 13 13 11 10 8 7 6 5 4 3 2 2 2 2 3 4 4 5 5 4 4 4 4 5 6 8 8 8 8 9 10 10
4 4 4 5 6 7 9 10 11 11 11 10 10 9 7 5 4 3 3 3 3 3 3 3 4 4 5 6 6 6 5 5 4 4 4 6 6 6 5 5 5 5
2 5 7 8 9 9 9 9 9 9 9 9 8 7 6 5 4 5 4 4 5 7 7 6 5 4 4 5 6 7 6 5 5 4 2 3 4 4 4 3 3 2
2 1 4 7 9 11 11 10 9 9 9 9 8 6 4 5 5 3 2 4 7 9 10 9 7 5 4 4 5 6 6 5 5 4 2 1 1 1 1 1 1 2
10 7 4 3 5 7 9 9 9 9 8 8 6 5 4 4 4 1 1 3 6 8 10 10 7 5 4 4 4 5 5 5 5 5 3 4 5 5 5 6 7 7

ECMWFNIL_925_spd_033.txt.gz
Wind_Speed
14 13 12 12 12 12 12 12 12 12 11 11 9 8 6 5 5 5 5 6 7 7 7 7 6 5 4 4 4 4 5 6 8 8 8 9 9 10 10 10 10 12
16 14 13 12 13 13 12 11 11 11 11 10 8 7 6 5 5 4 4 6 7 7 8 9 8 7 6 4 3 4 5 6 7 8 8 8 9 10 10 11 11 12
16 15 14 13 13 14 13 12 11 10 10 10 9 7 6 5 5 4 4 5 5 6 7 8 9 9 8 6 5 5 6 6 7 7 7 8 9 10 11 11 12 12
17 16 15 13 12 13 13 13 13 12 11 10 9 7 5 5 4 4 4 4 3 4 4 6 7 8 8 7 7 6 6 6 6 6 7 8 8 9 10 10 11 11
17 16 16 15 12 13 14 15 15 14 12 11 9 8 6 5 4 4 4 3 2 2 3 4 5 6 7 7 7 6 6 6 5 5 6 7 8 8 8 8 8 9
17 17 17 16 14 14 15 16 15 12 11 11 10 9 7 6 5 5 4 3 3 2 2 3 3 4 5 5 5 5 5 4 4 3 4 5 7 7 7 6 6 6
17 17 19 18 16 16 15 15 14 11 10 10 10 9 8 8 6 6 5 4 3 2 2 2 1 2 2 3 3 4 3 3 3 2 2 2 3 5 5 5 5 5
16 17 19 19 19 17 15 14 14 13 11 10 10 9 8 8 7 6 5 4 3 1 1 1 1 1 1 0 1 2 3 3 3 2 1 1 1 3 3 3 3 3
16 17 18 19 19 18 15 15 15 15 12 11 11 10 8 8 6 5 4 4 3 2 1 1 2 2 2 2 2 3 3 4 4 4 5 5 4 4 4 3 2 2
14 15 16 17 17 16 15 15 16 15 13 12 12 11 10 9 7 5 5 5 5 4 3 3 2 3 3 3 4 4 4 5 6 7 8 8 8 7 6 5 4 4
13 14 14 14 14 14 14 15 17 16 14 13 13 12 13 11 9 7 5 6 7 7 5 5 4 4 5 5 5 6 6 8 9 10 9 10 11 12 11 9 7 7
13 14 14 14 13 13 12 15 17 16 15 15 14 13 13 13 12 10 8 9 10 9 8 8 7 6 7 8 8 8 8 9 11 12 10 9 12 15 16 15 12 9
12 13 13 13 13 13 14 16 17 18 18 17 15 13 13 14 14 13 13 13 12 11 11 11 10 10 11 10 10 10 10 11 13 14 13 13 14 15 17 18 16 12
11 10 10 10 11 12 14 16 18 19 20 18 16 14 13 15 17 16 14 13 11 10 11 11 11 12 14 12 11 11 11 12 13 13 14 15 16 16 18 19 18 15
8 9 10 10 10 11 13 16 18 19 20 19 16 14 13 14 16 16 14 12 11 11 13 14 14 14 13 12 11 10 10 10 10 11 13 13 14 16 17 17 17 16
7 9 10 11 11 12 12 15 17 18 18 17 16 13 12 13 14 14 13 13 13 15 17 18 16 13 12 11 11 10 10 10 10 11 11 11 13 14 14 13 13 13
7 8 8 9 11 11 12 13 14 15 15 15 15 13 13 14 15 14 13 13 14 14 14 14 13 12 11 11 11 10 10 10 10 9 9 10 11 12 12 11 10 10
7 6 7 8 10 10 11 11 12 13 14 14 14 14 15 16 16 14 12 11 12 12 12 12 11 11 11 10 9 8 7 7 7 8 8 9 10 10 11 11 10 10
5 5 5 5 8 10 10 10 10 11 13 15 15 14 15 15 13 11 10 9 10 10 10 9 9 8 8 8 7 6 5 4 4 4 5 6 8 9 10 10 10 9
3 5 4 3 4 7 8 9 8 9 12 13 13 12 12 11 10 9 9 9 8 8 8 7 7 7 8 9 8 7 6 4 2 2 3 5 7 8 9 10 9 8
2 3 3 3 3 4 6 7 7 7 9 10 8 9 9 9 8 8 8 8 7 7 7 7 8 9 9 9 9 9 7 6 4 2 2 4 6 7 8 9 9 9
2 2 2 2 2 2 4 7 7 7 7 8 9 9 9 10 9 9 8 8 7 6 6 6 6 7 9 9 10 10 9 8 6 4 3 2 3 4 5 6 6 6
1 1 0 1 1 2 4 6 8 9 10 11 11 10 9 8 8 8 8 8 7 6 5 4 4 6 7 8 10 10 10 9 7 6 4 2 1 2 3 4 3 2
2 2 3 5 6 6 7 9 11 12 12 12 11 10 10 9 9 10 9 8 7 6 5 4 4 5 6 7 9 9 9 9 8 6 5 3 2 2 3 4 4 4
4 4 3 6 9 10 11 12 13 14 13 12 12 12 11 11 11 10 8 7 7 6 6 5 4 4 5 6 7 8 9 9 8 7 6 5 5 5 5 5 4 4
11 10 8 7 7 9 11 12 13 14 14 14 14 13 12 12 11 9 7 6 5 5 5 5 5 3 2 3 5 6 7 8 8 8 7 7 8 7 8 8 7 7

ECMWFNIL_925_spd_036.txt.gz
Wind_Speed
10 10 11 10 11 12 12 12 12 12 11 11 11 10 9 8 8 9 10 10 10 11 10 10 9 7 7 7 7 7 8 8 8 7 7 7 7 7 7 7 6 6
10 10 10 10 10 12 13 13 14 13 12 12 12 12 11 10 9 9 10 11 11 11 10 10 9 8 7 7 7 7 7 7 7 7 7 7 7 7 7 7 6 6
10 10 11 11 12 12 13 13 14 13 13 14 14 14 12 11 10 9 10 10 10 10 10 10 9 9 8 8 7 8 7 7 7 7 7 7 7 7 7 6 6 6
11 11 11 12 13 14 13 12 13 13 13 13 15 16 14 12 11 10 10 9 10 10 9 9 9 9 9 8 8 8 7 7 7 6 7 7 6 6 6 6 6 6
12 12 12 13 14 15 13 11 12 15 13 11 13 16 15 13 12 11 10 9 9 9 9 9 9 8 8 8 7 7 7 6 6 6 6 6 6 6 6 6 6 6
10 11 12 13 14 14 13 10 11 14 12 10 11 13 14 14 13 11 11 10 9 9 9 9 8 8 8 7 7 6 6 6 5 5 5 5 5 5 5 4 4 5
10 11 11 12 14 14 12 11 11 11 10 9 9 11 13 14 14 12 11 10 10 10 9 9 8 8 7 7 7 7 6 6 5 4 4 4 4 4 3 3 3 4
8 9 10 11 13 14 13 12 11 11 10 9 9 10 12 13 14 13 12 11 11 10 9 9 8 8 7 6 7 7 6 6 5 4 4 4 3 2 2 2 2 2
7 8 9 10 12 13 13 13 13 12 11 10 9 10 11 12 13 14 13 12 12 11 10 9 8 8 7 7 6 6 6 5 5 4 4 4 3 2 2 2 1 1
7 8 9 10 11 13 13 13 13 13 12 11 10 9 10 11 13 14 14 13 12 12 12 10 9 8 7 7 6 5 5 5 5 4 3 3 2 2 1 1 1 1
8 9 10 10 10 11 13 13 12 12 13 12 11 10 11 11 12 13 13 13 13 13 13 12 11 10 8 7 6 5 5 5 5 4 3 3 3 2 2 2 2 2
8 9 10 10 9 10 12 13 12 12 13 12 12 12 12 12 12 13 13 13 13 13 13 13 12 11 10 8 7 6 6 5 6 5 5 5 5 5 5 4 4 4
10 10 11 11 10 9 10 12 12 13 13 13 13 14 14 13 13 13 13 12 12 12 12 12 12 12 11 9 8 7 6 6 6 7 7 7 7 6 6 7 8 7
9 9 10 10 11 11 11 11 12 13 14 14 14 15 15 14 13 13 12 12 11 11 11 11 11 10 10 9 8 8 7 6 7 7 7 7 8 7 8 9 10 10
6 6 7 8 9 11 11 12 13 14 14 14 14 14 13 13 13 12 12 12 11 10 10 11 10 10 9 9 8 8 8 7 7 7 7 7 7 8 8 9 11 11
4 4 5 6 7 8 9 10 11 12 12 13 13 12 12 11 11 11 11 11 11 10 10 10 9 10 11 11 9 9 9 8 7 7 7 7 7 8 8 9 10 10
3 3 3 4 5 6 7 8 9 10 10 11 11 11 11 10 10 10 9 9 9 9 8 8 8 10 13 14 12 12 10 8 7 7 6 6 7 7 7 8 8 8
2 2 2 3 4 5 6 7 7 8 8 8 9 10 10 8 7 7 6 6 7 8 8 8 8 10 12 12 12 12 11 10 7 6 6 5 6 6 6 6 6 7
2 1 1 1 3 4 5 5 6 6 6 6 7 8 8 7 6 5 6 8 9 10 10 9 10 12 12 11 12 12 11 10 7 5 5 4 4 4 5 5 5 6
2 2 1 0 1 3 5 6 6 6 6 7 8 9 9 9 8 7 9 11 10 10 9 8 11 12 11 11 11 11 11 10 7 5 4 3 2 2 3 3 4 5
3 2 1 0 1 2 4 5 6 6 7 8 9 10 9 8 7 8 9 10 9 9 8 8 11 11 11 12 12 12 12 10 7 4 3 3 2 1 1 2 2 3
2 2 1 0 1 2 4 5 5 6 7 8 8 8 8 9 8 8 9 9 8 9 10 10 10 11 12 13 13 13 12 9 6 5 4 4 3 2 1 1 0 1
3 3 3 3 3 4 5 5 6 7 7 8 9 9 9 10 10 9 10 11 10 10 10 8 8 11 13 13 13 13 12 8 6 6 5 4 4 3 3 2 2 2
4 4 5 5 6 7 6 6 6 7 8 9 10 10 11 11 12 12 11 11 10 9 8 6 7 10 12 13 13 14 13 9 7 7 6 5 5 5 4 3 3 3
6 6 6 6 6 7 7 6 6 7 9 10 10 10 11 11 11 11 11 10 9 9 8 7 6 8 10 11 12 13 13 10 7 6 7 6 6 7 6 6 5 5
6 6 7 7 7 6 6 6 6 7 9 11 10 10 11 12 11 11 11 11 11 11 10 8 7 7 8 9 10 11 13 11 8 7 7 7 7 8 8 8 7 7

ECMWFNIL_925_spd_039.txt.gz
Wind_Speed
10 10 10 10 10 9 10 9 10 10 10 11 11 11 11 10 9 9 9 8 8 9 9 9 9 9 9 9 10 10 10 10 10 10 10 10 11 11 11 10 9 8
11 10 10 10 9 10 10 10 10 10 10 11 11 12 12 12 10 9 9 9 9 9 9 9 9 9 9 9 9 10 10 10 10 9 10 10 10 10 10 10 10 9
12 11 11 10 10 11 10 10 10 9 10 10 11 12 12 12 12 10 9 9 9 9 9 9 9 9 10 10 9 10 10 10 10 9 9 9 9 9 9 9 9 9
12 12 11 11 11 11 11 10 10 10 10 10 11 11 12 12 13 11 10 9 9 9 9 9 9 10 10 9 10 10 10 9 9 8 8 9 8 8 8 8 8 9
12 12 11 12 12 12 11 11 10 10 11 11 11 11 12 13 13 12 11 10 9 9 9 9 9 9 9 9 9 9 9 9 8 8 8 8 8 7 7 8 8 8
12 12 12 12 13 12 12 11 10 10 11 11 11 11 12 13 13 13 12 10 10 10 9 9 8 8 8 8 8 8 8 8 7 7 7 7 6 6 6 6 7 7
11 12 12 12 14 14 12 11 11 11 10 10 11 11 12 13 13 13 13 11 11 10 9 9 8 8 8 7 7 7 7 7 6 5 6 6 5 5 5 5 5 6
11 11 12 12 14 14 13 13 12 12 11 10 11 11 12 12 12 13 13 12 12 11 10 10 9 9 8 7 7 7 6 6 5 4 5 5 4 3 4 4 4 4
11 12 13 13 14 14 14 14 14 13 12 11 10 11 12 12 12 13 13 13 12 11 11 10 10 9 8 8 8 7 7 6 5 4 4 4 3 3 3 4 3 3
12 13 13 14 14 14 14 15 14 13 13 12 11 11 12 11 12 12 12 12 12 12 12 11 11 10 10 9 9 8 7 6 5 5 4 4 3 3 2 3 3 2
12 12 13 14 14 14 14 15 15 13 13 12 11 11 12 11 12 12 12 13 13 12 12 12 11 11 10 10 10 9 8 8 7 6 5 5 4 3 3 3 4 3
11 12 13 14 14 14 14 14 14 14 13 12 12 12 12 11 12 12 12 13 13 13 12 12 12 11 11 10 10 10 10 9 8 8 7 7 6 6 6 6 5 5
10 11 12 13 13 13 13 14 14 14 13 12 12 12 12 12 12 13 13 13 13 13 12 12 11 11 11 10 10 10 10 10 9 8 8 8 8 8 9 9 8 7
8 9 9 11 11 11 12 13 13 12 12 11 11 11 12 13 14 14 13 13 12 11 11 11 11 11 10 10 10 10 10 10 10 10 10 10 11 11 11 11 10 10
7 7 7 9 9 10 10 10 10 9 9 9 9 10 11 13 14 15 14 13 12 11 11 11 12 12 12 11 11 11 11 11 11 11 12 12 13 13 13 12 11 10
5 5 5 6 7 8 10 9 8 8 9 10 11 13 13 13 13 14 14 13 12 12 14 14 13 11 11 13 14 13 11 12 12 13 14 14 14 14 14 13 12 10
5 4 4 4 4 6 8 8 8 9 10 12 13 14 13 12 13 12 11 12 12 13 14 14 11 9 10 13 16 15 13 13 13 14 15 14 14 14 13 13 11 9
4 4 3 3 3 3 5 6 7 8 9 9 10 10 11 14 16 14 11 12 14 14 13 10 7 8 12 14 16 18 18 17 15 13 11 9 10 13 12 10 10 8
3 3 2 2 2 3 3 4 6 7 7 7 8 10 13 14 16 15 13 13 15 13 12 10 8 10 14 15 16 17 19 18 16 13 11 11 13 13 10 7 7 7
3 3 2 1 1 2 3 4 5 5 6 7 7 9 11 11 12 13 12 13 13 12 11 11 11 13 15 15 15 14 14 16 15 11 12 15 14 9 5 4 5 6
4 3 3 2 1 1 2 4 5 5 6 7 7 8 9 10 11 12 12 13 14 13 12 11 12 14 13 12 13 13 14 14 11 8 11 12 7 5 4 4 4 4
3 3 2 2 2 1 3 4 4 5 6 7 7 8 9 10 11 11 12 13 13 12 12 12 13 13 10 11 13 13 12 13 10 8 9 6 4 4 4 4 4 3
4 4 4 3 3 3 4 5 5 5 6 7 7 8 8 9 10 10 10 11 11 10 11 12 12 11 10 10 13 13 14 12 9 8 7 6 5 5 5 4 4 3
5 5 5 6 5 6 6 6 6 7 7 8 8 8 8 9 9 9 9 9 9 9 10 12 12 12 14 14 15 17 15 11 9 8 8 6 5 5 5 3 4 4
7 7 6 7 7 7 7 7 7 8 8 8 9 9 9 9 9 10 9 10 10 10 11 12 12 13 16 17 17 18 16 12 10 9 8 7 6 6 6 4 5 7
7 7 7 7 8 8 8 8 8 9 8 8 10 10 10 10 11 11 10 10 10 11 13 13 12 14 16 16 17 17 17 15 12 9 9 9 8 8 7 7 7 8

ECMWFNIL_925_spd_042.txt.gz
Wind_Speed
19 17 14 12 11 10 9 8 8 8 8 8 9 9 9 9 9 10 10 11 10 11 11 10 10 11 12 13 13 14 14 14 14 14 15 16 15 15 15 15 14 14
18 17 16 14 12 11 10 9 9 9 9 9 10 10 10 9 10 10 11 11 10 10 10 10 10 10 11 12 13 13 14 14 14 14 14 15 15 15 15 15 15 15
18 17 17 15 13 12 11 10 10 9 9 10 11 11 11 10 10 10 10 10 10 10 10 10 10 10 11 12 12 13 14 14 14 14 14 14 14 14 14 15 15 15
18 18 18 16 14 13 12 11 10 10 10 11 11 11 11 10 10 10 10 10 11 10 10 10 10 10 11 11 12 13 13 13 13 13 14 14 14 14 14 14 15 14
19 19 18 16 15 15 14 13 11 11 11 11 12 11 11 11 11 10 10 10 10 10 10 10 10 10 10 10 11 12 12 12 12 12 13 13 12 12 13 13 13 13
19 18 18 17 17 16 15 14 12 12 12 12 12 11 11 11 11 10 10 10 10 10 10 10 10 9 9 9 9 10 10 10 10 10 10 10 10 10 11 11 12 12
19 18 18 17 17 16 15 14 13 13 12 12 11 11 11 11 10 10 10 10 10 10 10 9 9 9 8 8 8 8 8 8 7 8 8 9 9 9 9 9 10 11
19 18 17 17 17 17 15 15 14 14 13 12 11 11 10 11 10 10 10 10 10 10 9 9 8 8 8 7 7 8 7 7 5 6 7 7 6 6 7 8 8 9
19 18 17 17 18 17 16 16 15 14 13 12 11 10 10 10 10 10 10 9 9 9 9 9 8 8 7 6 6 6 6 5 4 4 5 5 4 4 5 7 6 7
18 17 17 17 19 18 16 16 16 14 14 12 10 10 11 10 10 10 9 9 9 9 8 8 8 8 7 6 6 5 5 5 4 4 4 4 2 2 4 5 4 4
17 17 17 16 18 17 15 15 15 13 13 11 10 10 11 10 10 10 9 9 9 9 9 9 8 7 7 6 6 5 5 5 5 4 5 4 3 2 3 5 3 2
18 17 17 16 16 15 13 12 12 11 12 12 11 11 11 10 10 10 10 10 10 9 9 9 8 7 7 6 6 6 6 6 6 6 6 5 4 4 3 3 4 3
15 15 16 17 16 16 15 14 12 12 12 12 11 11 11 10 10 10 11 11 10 11 11 11 11 9 7 7 7 7 7 7 7 7 6 6 5 5 4 4 5 4
12 12 14 16 17 17 17 17 16 15 13 11 10 10 10 11 10 10 11 12 12 11 11 10 9 8 6 8 9 10 9 9 9 9 8 8 5 4 4 4 4 4
12 12 12 14 15 15 16 17 17 15 13 12 10 10 9 10 11 12 12 13 13 12 8 6 6 8 10 12 12 11 12 12 12 10 8 5 4 3 5 5 5 6
11 10 9 11 12 12 13 14 13 13 13 11 9 10 9 9 10 12 12 11 11 10 7 8 12 14 14 14 12 11 12 12 11 9 7 6 6 6 9 10 9 10
10 10 9 10 10 10 11 11 10 10 11 10 9 11 13 12 12 12 12 10 9 8 8 9 13 15 15 15 14 13 13 11 9 8 8 9 10 10 12 13 13 12
9 9 9 9 9 9 10 10 10 10 10 9 10 12 15 17 16 15 14 12 10 9 9 10 12 14 15 17 17 15 15 13 10 8 9 10 10 11 12 14 14 12
7 8 9 8 7 7 7 7 9 9 10 10 10 11 14 17 19 19 17 15 13 11 10 11 12 13 14 17 19 18 18 17 13 11 12 13 11 11 12 13 12 11
7 7 7 6 6 6 6 6 8 8 9 10 10 10 11 14 16 17 18 17 15 13 12 11 13 15 16 17 19 19 20 19 15 13 14 13 11 11 12 11 11 11
8 7 6 5 4 4 4 5 7 8 9 10 9 9 9 11 13 15 17 17 16 14 13 12 13 16 17 17 18 19 19 17 13 13 14 12 10 10 11 10 10 11
9 8 6 5 4 3 1 1 4 6 7 9 9 9 9 10 12 13 15 16 15 14 14 14 15 16 17 17 18 19 18 15 12 13 14 11 9 9 9 9 11 12
13 12 11 9 8 6 5 5 2 1 3 6 8 9 10 11 13 14 14 15 16 16 16 16 17 17 17 18 19 18 16 15 14 14 14 12 10 12 11 11 13 13
14 13 13 12 11 11 11 10 7 5 4 4 6 7 9 10 11 12 14 15 16 17 17 17 17 17 18 19 19 17 15 16 17 15 14 14 12 13 13 13 13 11
14 12 11 11 11 12 12 12 10 9 9 9 8 8 9 9 11 12 13 14 15 15 16 16 16 16 17 18 17 16 15 18 19 16 14 16 15 12 10 11 12 11
14 11 10 10 10 11 11 12 12 11 12 12 11 9 10 11 11 12 13 14 15 15 15 15 15 15 16 17 16 17 18 19 19 16 13 17 18 13 11 11 11 12

ECMWFNIL_925_spd_045.txt.gz
Wind_Speed
22 21 20 19 19 17 17 16 15 15 15 16 17 16 15 13 13 14 14 13 13 14 13 14 15 14 12 12 12 13 14 14 15 15 15 17 16 16 16 16 16 18
21 20 19 18 19 17 16 15 14 14 17 17 17 17 16 14 14 15 15 15 15 15 14 13 14 14 14 13 13 14 14 15 15 15 15 17 17 17 16 14 14 16
20 19 18 18 18 17 16 15 14 15 18 18 17 17 16 15 15 15 15 15 16 15 14 13 13 14 14 13 13 14 15 16 15 14 15 17 17 16 15 14 14 14
19 19 18 17 17 17 16 16 15 17 19 18 17 17 15 15 15 15 15 15 15 15 15 15 14 14 15 14 15 16 16 16 15 15 16 17 16 16 15 14 14 14
18 18 17 16 16 17 16 16 16 18 19 18 17 16 16 16 15 14 15 15 15 15 15 16 15 15 16 16 16 16 15 15 16 16 17 17 16 15 14 14 13 13
17 17 17 16 16 18 17 15 16 17 17 17 16 16 17 16 15 14 15 15 14 15 16 16 15 16 16 16 16 16 16 16 15 14 15 15 15 13 13 13 14 13
17 17 16 15 16 17 16 15 15 16 16 15 16 16 17 16 15 14 14 14 15 16 16 16 15 15 15 15 15 15 14 14 13 13 14 14 14 13 12 12 13 13
16 18 17 15 16 16 16 15 15 16 16 15 16 16 16 16 15 14 14 14 15 15 14 14 14 13 14 15 15 13 12 14 15 14 14 13 13 13 12 10 10 10
16 16 16 15 16 15 15 15 15 16 15 15 16 15 14 16 15 14 14 14 14 14 13 13 14 13 12 14 15 14 12 13 14 13 12 12 12 12 11 9 8 9
14 14 15 16 16 14 14 15 15 15 15 15 16 14 14 16 15 14 14 14 15 14 13 13 13 13 12 11 14 14 12 11 11 11 10 10 10 12 11 9 8 7
2 7 11 14 15 16 15 16 16 15 14 15 14 14 14 15 15 14 13 14 15 14 14 13 13 13 11 10 12 12 10 10 10 10 10 8 8 11 11 10 8 7
5 7 12 11 11 16 17 16 15 14 14 14 13 13 13 13 14 14 13 14 15 14 14 14 13 12 11 10 10 10 9 9 9 9 9 6 6 8 9 9 8 8
8 13 16 14 13 15 16 15 15 14 14 14 12 13 13 12 14 15 13 13 14 13 14 15 13 13 12 12 11 10 9 9 9 10 10 7 6 6 6 6 6 6
13 17 18 17 17 17 17 17 16 14 14 14 12 13 13 11 12 14 13 13 13 13 14 16 15 15 14 14 13 12 10 9 10 12 12 10 9 7 7 7 8 7
14 17 18 18 18 18 19 20 17 14 13 13 12 12 13 13 12 13 12 12 12 12 14 16 17 16 16 15 14 14 12 11 11 12 12 11 10 9 8 8 9 10
11 13 15 17 17 15 16 18 18 14 11 11 10 10 13 14 14 13 13 11 11 11 11 12 14 14 15 14 14 14 13 12 11 12 12 12 11 11 11 11 11 12
9 9 11 13 15 13 12 13 15 14 12 11 10 9 11 12 13 13 13 11 10 10 10 11 11 10 11 12 12 13 13 12 11 12 13 14 14 13 14 15 14 14
6 6 6 8 10 10 11 11 12 13 13 12 11 10 10 10 10 11 12 11 10 11 12 13 13 12 11 11 12 13 14 13 12 12 13 14 14 14 15 15 15 15
12 13 11 12 13 13 15 14 11 11 11 11 11 12 12 12 13 13 14 13 12 12 13 14 15 16 14 12 13 15 16 15 13 13 13 13 13 14 15 16 16 16
11 12 12 14 16 15 13 9 7 7 8 8 9 11 11 12 14 15 16 16 14 13 14 14 16 17 16 14 14 16 18 17 15 15 15 14 15 16 16 17 17 17
17 13 11 8 8 8 7 6 7 7 7 7 8 9 9 10 11 13 14 15 15 14 14 16 17 18 17 15 15 16 18 19 17 16 16 16 16 16 15 15 16 16
26 23 20 18 16 12 8 3 5 7 7 7 7 7 9 10 11 12 13 13 14 14 14 15 16 16 16 16 16 16 17 18 18 17 16 16 16 14 13 12 13 15
25 24 21 19 18 16 15 12 6 1 3 5 6 6 8 9 10 11 12 12 13 14 14 15 16 16 16 17 17 17 18 18 18 17 17 16 14 13 12 12 13 14
20 21 20 18 17 16 15 14 12 10 8 5 5 7 9 12 12 11 11 13 14 14 14 14 16 17 18 19 19 19 19 18 17 16 17 16 13 12 12 12 13 13
15 16 16 17 17 16 15 15 14 13 12 11 10 11 11 12 14 16 14 13 14 15 14 13 15 16 17 18 19 19 19 18 16 17 17 15 13 13 13 13 13 13
14 15 15 16 16 16 16 15 15 15 15 15 14 14 15 14 13 14 17 18 17 17 16 16 16 17 18 19 19 18 18 18 17 18 18 15 14 16 17 16 14 12

ECMWFNIL_925_spd_048.txt.gz
Wind_Speed
28 27 26 24 24 23 22 21 19 18 17 15 13 12 13 14 13 13 12 12 13 15 15 13 13 12 12 13 13 15 15 15 14 15 16 17 17 16 15 14 13 12
27 26 24 24 23 21 19 19 19 18 17 15 14 14 13 13 12 12 13 13 14 14 15 14 13 12 12 13 14 16 16 16 17 17 18 18 17 17 17 18 18 18
27 26 23 22 22 20 18 19 19 18 17 17 17 15 13 12 11 11 13 15 14 15 15 14 13 14 15 16 16 17 17 17 17 17 17 16 15 15 15 16 18 20
27 24 21 21 21 19 18 19 20 19 19 19 17 15 13 13 12 12 14 15 15 15 15 14 15 16 17 17 17 18 18 18 17 16 15 14 13 13 13 13 15 18
25 21 20 20 19 18 18 19 20 20 20 19 17 15 14 15 15 15 15 15 14 14 14 14 15 16 16 16 16 17 18 17 15 14 14 14 14 14 14 14 14 16
22 20 21 20 17 18 18 18 20 21 20 20 18 16 16 17 17 17 16 15 14 14 13 14 15 16 16 16 16 16 17 17 15 14 15 16 15 14 13 14 15 15
22 21 21 20 18 18 18 19 21 22 20 19 18 17 18 18 17 17 17 16 16 15 14 15 16 17 17 16 17 17 17 17 16 15 15 14 13 12 11 12 14 14
21 20 20 20 20 18 18 21 23 22 20 19 18 18 19 17 16 17 17 16 16 16 15 15 16 17 16 16 17 17 16 15 14 14 13 13 12 12 10 10 10 11
22 21 21 22 21 19 20 22 23 22 20 19 18 19 18 16 15 17 17 16 17 17 16 16 16 15 15 16 16 15 15 15 14 13 12 12 11 11 10 9 8 8
22 22 24 23 20 19 20 21 22 21 20 18 17 18 18 16 14 15 16 17 19 18 17 16 15 14 15 15 14 13 15 16 15 13 12 11 10 10 9 7 7 7
18 19 21 21 19 18 18 19 20 19 18 17 16 17 17 16 15 15 16 18 19 18 17 16 15 15 15 15 13 12 15 16 14 13 12 10 10 9 7 6 6 6
19 18 17 17 18 18 17 17 18 17 16 15 15 16 17 18 17 16 17 18 18 17 17 17 16 15 14 14 14 13 13 14 13 12 11 11 11 11 9 7 7 6
23 20 17 15 15 17 18 18 18 16 14 15 15 15 16 17 18 17 17 18 18 18 17 17 17 16 13 14 16 14 12 12 13 13 12 12 13 13 12 10 9 9
21 19 19 16 15 17 19 18 17 16 14 16 15 14 15 16 16 17 17 17 18 19 18 17 17 17 16 15 16 16 14 14 14 14 13 13 14 14 14 12 10 11
19 19 20 17 15 16 17 16 16 15 15 16 14 13 14 14 14 17 19 17 17 19 19 19 19 19 18 17 18 17 17 16 16 16 15 14 13 13 14 13 11 11
17 18 18 16 14 15 16 15 13 12 12 12 12 11 11 11 12 17 19 16 15 17 18 19 21 21 20 19 19 19 19 18 17 17 17 16 15 14 14 14 14 13
11 12 12 12 13 13 14 14 11 9 8 7 7 8 9 9 11 14 16 15 14 14 14 15 18 20 20 19 20 20 20 19 19 18 18 17 16 16 16 15 15 15
6 6 6 7 8 9 10 11 10 9 7 5 4 5 7 8 8 9 11 11 12 12 11 12 13 16 18 18 18 19 20 19 19 19 19 19 18 18 18 17 17 18
6 5 5 5 5 6 7 9 10 10 8 6 4 2 3 5 6 7 8 9 10 10 11 11 12 14 15 16 17 18 18 19 20 20 20 20 20 19 19 19 19 20
14 11 8 7 5 4 4 4 6 8 7 5 5 5 5 6 7 8 9 9 10 11 12 12 13 13 14 15 16 17 18 19 19 20 20 20 20 19 19 19 20 21
24 22 19 16 13 10 8 5 3 2 3 3 5 7 9 10 11 10 8 9 10 11 13 14 14 15 15 15 16 16 17 18 19 20 20 21 20 20 20 20 21 22
26 25 24 22 20 19 18 15 12 9 7 5 6 8 10 12 14 13 10 9 9 10 12 14 14 15 16 17 16 16 16 18 19 20 20 21 22 21 21 22 22 23
24 23 23 22 20 20 20 19 16 14 12 10 7 7 8 9 11 12 11 11 10 10 10 12 13 14 15 16 16 16 17 17 18 20 21 22 23 22 22 23 23 23
23 21 21 21 21 20 19 18 16 14 13 12 10 10 11 11 12 12 12 12 13 13 12 12 13 14 15 17 17 17 17 17 18 19 21 22 23 23 23 23 23 22
21 21 21 21 21 20 19 18 17 15 14 13 13 14 14 14 15 15 14 13 13 14 15 15 16 15 15 16 17 18 18 19 19 20 21 22 22 22 23 23 22 21
19 20 20 20 20 19 18 18 17 17 16 16 16 16 16 16 16 17 17 16 15 15 16 17 19 20 18 17 17 18 19 20 20 22 23 23 22 23 24 23 22 20

ECMWFNIL_925_spd_051.txt.gz
Wind_Speed
24 24 24 24 23 21 20 19 17 17 15 14 13 13 12 11 8 7 9 12 12 10 9 7 7 7 7 7 7 8 9 9 10 10 10 10 9 8 8 7 6 7
24 23 23 22 21 20 19 19 17 15 13 12 12 12 13 12 10 9 10 12 13 11 10 8 8 7 7 8 8 8 9 10 11 12 11 12 11 10 9 8 7 7
24 22 21 20 20 20 20 19 16 13 11 11 11 13 14 13 12 10 9 12 13 13 11 8 8 8 8 9 9 8 10 12 14 14 14 14 13 13 12 11 10 9
23 21 20 20 19 19 19 18 16 14 12 11 11 13 15 14 12 11 11 12 13 13 11 8 7 8 9 10 10 11 12 14 14 14 14 14 14 14 14 12 12 11
22 21 19 19 19 18 18 18 16 15 13 11 12 13 14 14 12 12 12 12 12 12 10 8 8 9 11 11 12 12 13 13 12 11 11 12 12 12 13 13 13 12
20 19 19 19 19 18 20 19 17 15 14 12 13 13 13 13 12 12 14 13 12 11 10 9 9 10 11 11 12 12 12 11 10 8 9 10 11 12 12 12 13 13
19 19 19 19 20 19 19 19 16 13 14 13 13 13 13 12 11 12 14 13 11 10 10 9 10 10 10 10 11 12 11 10 9 9 10 11 11 11 11 11 12 14
20 19 19 19 21 20 17 17 15 13 14 15 13 13 12 11 12 13 12 11 10 9 9 10 10 10 10 10 10 12 11 10 9 9 10 10 9 10 10 9 10 12
19 18 18 19 20 18 14 13 14 14 16 16 14 13 13 12 12 13 12 11 11 10 9 10 10 10 10 10 10 11 11 10 9 9 8 8 8 8 8 7 7 9
20 19 20 19 18 15 12 13 15 17 18 17 15 14 15 13 12 13 14 13 12 11 10 10 11 11 10 10 10 10 10 9 8 8 7 7 7 6 5 4 4 5
23 22 23 22 20 15 12 15 18 18 19 17 15 15 15 13 13 14 15 14 13 13 12 11 12 11 10 10 10 9 8 8 8 7 6 5 5 5 4 3 3 4
25 24 23 22 20 16 14 17 20 19 19 18 16 16 16 14 13 15 15 15 14 13 13 12 12 11 11 10 10 9 9 9 9 8 7 7 6 6 4 3 3 4
25 25 23 19 14 13 14 18 20 20 19 18 17 17 17 15 14 14 13 14 15 15 14 13 12 11 11 11 10 9 9 11 11 10 10 10 9 8 6 4 4 4
27 25 24 18 12 12 14 17 20 21 21 20 19 18 18 16 15 14 13 14 15 15 15 14 14 13 12 12 12 12 11 12 13 13 13 12 11 10 9 8 8 7
28 26 25 20 16 16 17 19 22 23 22 20 20 19 17 16 15 14 14 15 16 16 16 16 17 16 15 14 14 15 15 14 14 15 15 14 12 12 11 12 11 11
25 25 25 23 21 21 20 18 19 21 19 17 17 17 16 16 16 16 16 17 17 18 18 19 19 19 18 17 16 17 18 18 17 16 17 16 15 14 14 15 15 14
19 20 20 20 21 21 19 17 18 18 16 14 14 13 13 14 16 16 16 17 19 19 19 20 21 21 21 20 19 19 20 20 19 19 19 19 18 18 17 17 17 17
13 14 13 13 14 14 13 13 16 16 13 11 11 10 10 10 11 12 13 15 16 16 16 17 19 21 23 23 23 22 22 22 22 22 22 21 21 21 21 20 19 19
15 14 13 11 9 9 9 10 11 11 10 8 9 9 8 7 6 6 6 8 9 9 10 11 12 14 18 21 23 23 23 24 24 24 24 24 24 24 23 22 22 21
23 23 21 16 12 12 12 11 10 8 7 6 6 6 5 4 3 2 2 2 4 5 6 7 8 10 12 15 18 19 20 22 23 24 24 25 25 25 24 24 23 23
28 27 26 23 20 18 18 16 14 12 9 7 6 5 4 3 2 0 1 3 3 4 6 7 8 10 11 13 15 16 17 19 20 22 23 24 25 25 25 25 25 25
27 27 26 25 23 22 21 20 18 16 14 12 10 9 8 7 5 3 3 3 5 6 8 9 9 10 12 14 15 17 18 19 20 21 23 24 25 26 26 26 25 25
25 25 24 23 23 22 21 20 19 17 16 13 12 12 10 9 9 7 6 5 4 5 7 9 10 11 12 13 14 16 18 19 20 22 23 24 25 25 25 25 25 25
23 23 23 22 21 21 20 18 17 17 16 14 13 12 11 10 9 8 8 7 6 7 7 8 9 9 11 13 14 15 17 19 20 21 22 23 24 24 24 24 25 25
21 21 21 21 20 19 18 17 16 15 14 13 13 12 11 11 10 9 9 9 9 9 9 9 10 9 9 11 13 15 16 19 20 21 22 23 24 24 24 24 25 26
19 19 19 19 19 18 17 16 15 15 14 14 13 13 12 11 11 10 10 9 9 9 10 10 12 12 11 11 12 13 15 17 21 24 24 24 25 26 25 25 25 26

ECMWFNIL_925_spd_054.txt.gz
Wind_Speed
24 23 23 22 21 19 18 18 16 14 14 13 12 12 11 9 8 9 11 11 9 8 7 5 3 4 4 3 3 3 4 4 5 5 5 5 4 4 5 6 9 9
24 22 21 21 20 18 17 16 15 14 14 13 13 13 11 9 8 8 10 11 10 8 7 5 4 4 3 4 3 2 3 5 5 5 5 4 4 4 4 5 6 7
22 22 20 19 18 18 17 16 15 14 13 13 13 13 11 9 8 8 9 10 9 8 7 6 5 4 3 4 3 3 4 6 6 6 5 4 4 4 4 4 4 6
22 21 19 18 18 18 18 17 16 14 12 12 12 13 11 9 8 7 8 8 9 8 7 5 4 3 3 4 4 5 7 9 8 8 6 6 5 4 5 5 6 7
22 21 19 18 18 18 18 18 16 14 12 10 10 12 11 10 8 7 7 8 9 8 6 5 3 3 4 5 5 7 10 10 10 8 7 7 6 5 5 5 7 8
23 21 20 19 18 18 18 18 16 13 11 10 10 11 11 10 8 7 7 8 9 8 6 4 4 5 6 7 7 9 10 10 9 7 6 6 5 4 4 4 5 7
24 22 21 19 18 18 19 18 16 13 12 10 10 10 11 10 8 7 9 9 9 8 7 5 5 6 8 8 9 10 9 8 6 4 4 5 5 4 4 4 5 6
24 22 20 19 19 19 19 18 16 15 14 12 11 10 9 9 8 8 10 10 10 9 8 7 6 7 8 9 9 9 8 6 5 4 5 6 6 5 5 4 5 7
23 22 21 21 20 20 18 17 16 16 15 13 11 10 9 8 8 9 11 11 10 9 8 8 8 8 8 8 9 9 8 6 6 6 6 6 6 6 5 5 5 7
23 22 22 22 20 18 17 15 15 16 16 14 12 9 8 8 8 10 11 11 10 9 8 8 9 8 8 8 9 10 9 7 7 7 6 5 5 5 5 3 3 5
23 23 22 21 20 17 15 13 13 16 16 14 11 9 8 8 9 11 12 11 10 9 8 8 8 9 8 8 8 9 9 8 7 6 5 5 5 4 4 3 2 3
23 23 21 20 18 15 13 11 11 15 17 14 10 8 8 9 10 11 12 11 10 10 8 8 8 9 9 8 8 8 8 7 6 6 6 6 5 4 3 2 2 3
24 23 22 20 17 14 11 10 11 15 16 14 10 7 8 9 9 10 11 11 10 9 8 7 8 9 8 8 8 7 6 6 7 7 7 6 5 5 4 3 2 3
22 21 20 19 16 12 10 8 7 10 13 12 10 8 8 8 8 9 11 12 11 10 9 8 8 8 8 8 8 7 7 6 7 8 8 7 7 6 6 5 5 4
17 17 18 18 15 9 7 8 6 4 7 9 8 7 7 8 9 9 11 12 12 12 11 10 10 10 9 9 9 9 8 8 9 9 10 9 9 9 8 8 8 7
14 15 16 17 15 8 6 10 9 5 6 7 6 7 10 11 11 11 12 11 12 12 12 12 12 12 11 11 11 10 10 11 11 11 11 11 11 11 11 11 10 10
13 14 14 15 16 11 10 15 15 10 8 8 8 11 13 13 13 14 13 13 13 13 13 13 13 12 12 12 12 12 12 12 13 14 14 14 13 13 14 14 13 12
13 14 12 11 12 11 11 14 13 11 10 11 11 11 11 11 12 14 14 15 15 15 16 15 15 14 14 15 15 15 15 15 15 16 16 16 16 15 16 16 16 15
15 15 14 12 11 11 11 11 11 10 10 10 8 7 6 6 7 7 8 9 10 10 12 12 12 13 14 16 17 19 20 20 20 19 19 19 19 19 19 19 19 19
19 19 17 15 15 14 13 13 13 12 11 11 10 8 7 7 7 6 6 5 4 5 5 5 6 7 8 9 12 14 17 19 20 22 22 22 22 22 22 23 22 22
25 24 22 19 17 16 16 15 13 12 11 10 9 8 6 6 6 5 5 5 4 4 4 4 4 5 6 6 8 9 11 13 15 17 19 21 21 22 23 23 23 24
28 28 27 24 22 20 19 17 16 14 13 10 9 7 6 6 5 4 4 3 2 2 3 3 4 5 7 8 9 10 11 11 13 14 16 18 20 20 21 22 22 23
27 28 27 24 23 22 21 20 18 16 15 13 12 11 11 10 8 7 7 6 4 3 2 1 1 2 4 6 8 10 11 12 13 15 16 18 20 20 21 22 22 23
24 25 24 23 23 22 20 19 18 16 14 12 11 12 13 12 11 10 9 9 8 7 6 6 5 4 3 4 6 7 9 11 12 14 15 17 18 19 20 21 22 22
22 22 21 21 21 20 19 18 17 15 13 12 11 10 10 10 9 9 9 10 10 9 8 7 7 7 6 6 6 7 8 9 10 13 14 15 16 17 19 20 21 21
21 21 20 19 18 16 16 15 14 13 12 11 11 10 8 8 8 8 8 9 9 9 9 9 9 9 8 8 8 8 8 8 9 11 13 15 16 18 19 20 21 21

ECMWFNIL_925_spd_057.txt.gz
Wind_Speed
21 22 22 23 23 23 23 22 19 18 16 16 15 13 11 10 9 9 9 9 7 7 6 5 6 5 5 5 5 4 4 4 4 4 4 4 5 5 5 6 7 7
22 23 23 23 24 24 23 21 19 17 16 16 14 13 12 10 10 10 10 10 9 7 6 6 6 6 6 7 6 6 6 6 6 6 5 5 4 4 4 5 7 7
23 24 24 23 23 23 23 21 18 16 15 14 14 13 12 11 11 11 12 11 10 8 7 6 6 6 6 6 6 6 7 7 7 7 5 5 4 3 3 4 6 8
24 25 24 23 22 23 22 20 18 16 14 13 12 12 12 11 11 12 12 11 10 9 7 6 5 5 6 6 6 7 8 9 9 8 7 7 6 4 5 6 7 8
24 25 24 23 22 22 21 20 18 16 14 13 12 12 12 12 12 13 13 12 11 10 8 6 5 5 7 6 6 8 10 10 10 9 8 8 7 6 6 8 9 11
25 25 24 23 22 21 21 19 17 16 14 13 12 12 12 12 12 12 12 12 11 10 9 6 5 6 7 7 7 9 10 10 9 8 7 7 7 6 7 8 10 12
24 24 24 23 22 21 19 18 16 15 14 13 12 12 13 12 12 11 11 12 12 11 9 6 6 7 8 7 8 10 9 9 8 6 5 5 6 6 7 7 9 11
23 23 23 23 22 21 19 17 16 14 13 12 12 13 13 12 11 10 11 12 12 11 9 7 7 8 8 8 8 9 8 7 5 4 3 4 5 6 7 7 7 9
22 23 23 22 21 21 19 17 15 14 13 12 12 12 13 12 10 10 12 12 12 11 9 8 7 8 9 8 8 8 7 5 4 5 5 5 6 6 7 7 6 7
23 23 23 21 20 20 19 17 15 14 13 12 11 11 12 11 10 10 12 12 11 10 8 7 7 8 8 8 8 7 5 4 5 6 6 6 7 6 6 6 6 5
23 23 22 20 20 19 18 16 15 15 13 12 11 11 11 11 10 10 11 12 11 9 7 7 7 7 7 7 7 7 5 5 5 5 5 6 6 6 6 5 5 4
22 22 21 21 20 19 18 16 15 15 14 13 11 11 11 11 11 11 11 10 9 8 7 7 7 7 7 7 7 7 6 5 5 4 4 4 5 4 4 4 4 4
19 20 19 19 19 18 17 15 14 14 14 13 12 11 11 11 11 11 10 9 8 7 6 6 7 8 8 7 7 7 7 5 4 4 4 4 4 3 3 3 3 3
16 17 17 17 17 16 15 13 12 12 11 11 11 11 11 11 10 8 8 8 8 7 6 6 7 8 8 7 7 7 6 5 4 5 6 6 5 3 3 3 3 3
15 16 17 16 16 15 14 13 12 11 10 9 8 9 10 10 9 7 6 7 8 7 6 6 6 7 7 7 6 6 6 5 4 5 6 7 6 5 5 5 5 5
18 19 18 17 17 17 16 15 14 11 10 7 5 6 8 7 7 6 5 5 6 6 7 6 6 6 6 6 7 7 6 6 6 6 6 7 8 8 7 7 7 7
18 18 17 15 15 14 14 13 9 6 8 7 3 4 6 3 2 4 4 4 4 5 6 7 7 8 8 8 9 8 8 8 8 8 8 9 10 10 9 8 8 8
15 15 13 11 10 8 8 10 12 10 9 9 5 4 5 1 1 2 3 4 6 6 7 8 9 10 11 11 11 10 11 11 11 11 11 11 11 11 11 10 9 9
14 14 13 12 11 10 10 12 13 11 8 8 7 6 6 3 0 2 3 4 6 6 6 7 8 10 11 11 12 13 13 14 15 14 14 14 14 14 14 13 13 12
16 16 17 17 16 16 16 14 12 11 10 10 10 9 8 6 4 3 4 4 4 4 4 5 5 6 8 9 10 11 12 13 14 15 16 16 17 17 17 17 16 16
21 21 21 20 19 18 17 16 14 13 13 12 12 11 11 10 8 7 7 6 6 6 5 4 2 2 4 6 7 7 8 9 10 11 12 13 15 15 16 16 15 15
25 25 24 22 20 20 19 18 16 15 14 14 14 14 14 13 11 10 10 10 9 9 7 6 4 2 1 3 5 6 7 8 8 9 10 11 12 12 12 12 12 12
26 26 25 23 22 22 21 20 19 18 18 17 17 16 15 15 14 14 13 13 13 12 11 10 9 8 5 3 3 4 6 7 9 9 10 11 11 12 12 13 13 13
25 25 25 24 23 22 21 19 18 17 17 16 16 16 16 15 14 12 12 11 11 11 10 11 11 11 9 7 6 4 4 5 6 7 8 10 10 11 12 12 13 14
23 23 23 22 22 21 20 18 17 16 14 13 13 13 13 12 10 9 9 9 8 7 6 6 8 10 9 8 7 7 6 6 6 6 7 8 9 11 11 12 12 13
20 20 19 19 18 17 16 15 14 13 12 11 11 11 10 9 9 8 8 7 6 5 4 4 4 6 8 8 8 8 8 8 8 8 9 9 10 12 12 13 14 13

ECMWFNIL_925_spd_060.txt.gz
Wind_Speed
11 12 14 13 12 13 14 13 12 13 11 10 11 11 11 11 11 11 10 9 8 7 7 6 7 6 6 5 5 5 7 7 7 7 7 6 6 6 6 6 6 7
15 12 13 13 12 13 14 13 13 13 12 12 12 11 11 11 11 11 10 10 8 8 8 7 7 7 6 6 6 7 7 8 8 8 7 7 6 6 7 7 8 7
21 15 14 14 13 13 14 13 13 13 13 12 12 11 11 10 11 11 11 10 9 8 8 8 8 7 7 7 7 8 9 9 9 8 8 7 6 6 6 7 8 7
24 19 17 16 13 14 14 13 13 13 13 13 12 11 11 11 11 11 11 10 9 9 9 9 8 8 8 8 8 9 9 9 9 8 7 7 6 7 6 6 7 7
25 21 19 16 14 15 15 14 14 13 13 13 12 12 12 12 12 12 11 10 9 9 9 9 9 9 9 9 9 10 10 9 9 8 8 7 7 7 7 7 7 7
24 22 19 16 15 16 15 14 14 13 13 13 13 12 12 12 12 12 11 10 9 9 9 9 10 10 10 10 10 10 10 10 9 8 8 8 7 8 9 9 9 8
24 21 18 16 16 17 16 14 14 13 13 13 13 12 12 12 12 12 12 11 10 9 8 9 10 11 10 11 11 10 9 9 8 8 9 8 7 8 9 10 10 10
22 20 19 18 18 17 16 14 14 13 13 12 12 12 12 12 11 11 11 11 10 9 8 9 10 11 11 11 11 10 9 8 7 8 9 8 8 8 9 10 10 11
19 18 19 20 19 17 16 15 14 13 12 12 12 12 12 12 11 11 11 11 11 9 8 9 11 11 11 11 11 10 9 7 6 7 8 8 8 9 10 10 11 11
18 18 19 20 18 16 16 15 14 13 12 12 12 12 12 11 10 11 12 12 11 10 9 9 11 11 11 10 10 9 8 8 8 8 8 8 8 9 9 10 10 11
11 12 16 19 18 16 16 15 14 14 12 11 12 12 11 10 10 11 11 11 11 10 10 10 10 11 11 10 10 9 8 8 9 9 9 8 8 8 8 8 9 9
12 10 11 16 17 16 17 16 15 14 13 11 11 11 11 10 10 11 11 11 10 9 9 10 10 11 10 10 10 9 9 9 9 9 9 8 8 7 7 7 7 8
20 16 11 12 15 16 17 16 15 14 12 11 11 11 11 10 10 10 10 10 9 8 8 9 9 10 10 10 10 9 9 9 8 8 8 8 7 7 6 6 6 6
20 17 12 10 11 13 15 15 14 13 11 10 10 10 10 10 10 10 9 9 9 8 8 8 9 10 9 9 10 9 9 8 7 8 8 8 7 6 6 5 5 5
16 14 15 13 9 10 13 13 13 12 11 11 10 9 8 8 8 9 9 9 9 8 8 8 8 8 9 9 9 9 8 7 6 6 6 6 6 5 5 4 4 4
15 14 16 14 11 11 12 12 12 12 11 11 10 8 7 6 6 6 7 8 9 9 8 8 7 8 9 10 9 8 7 6 6 6 5 5 5 5 5 4 4 4
17 18 19 19 17 15 15 15 14 13 13 12 11 10 8 7 6 6 6 7 7 8 8 7 7 8 9 9 8 8 6 4 5 5 5 5 5 6 5 5 6 6
18 20 21 21 21 20 19 18 15 13 12 10 10 10 9 8 7 6 6 7 7 8 7 6 6 7 7 8 8 8 7 5 4 5 6 6 6 7 6 6 6 7
17 18 18 18 19 18 16 14 11 8 6 6 7 7 6 8 8 7 7 8 8 8 7 5 4 4 5 7 7 8 8 7 6 5 6 7 7 7 7 7 7 8
15 16 15 16 16 16 15 14 12 10 8 8 8 8 7 7 8 8 8 9 8 8 7 4 2 2 3 6 6 7 8 8 7 7 8 8 8 8 8 8 8 8
17 18 18 18 17 17 17 15 13 12 12 12 12 12 11 10 10 9 10 10 9 8 6 4 2 1 1 3 4 5 6 5 5 6 7 7 7 8 8 9 9 9
17 18 19 19 20 21 20 18 17 15 14 14 14 15 15 15 14 13 13 12 11 8 7 6 5 3 2 1 2 3 3 2 3 4 4 5 5 6 6 7 7 7
19 19 19 18 19 21 20 20 19 17 16 16 17 17 17 18 18 17 16 16 15 12 10 9 7 6 4 3 1 0 1 1 1 3 3 4 4 5 5 6 7 8
22 22 21 18 17 17 18 19 18 17 17 18 17 17 16 17 17 16 15 14 13 12 10 8 7 6 5 3 2 1 0 1 1 2 2 3 3 4 5 6 8 11
22 22 22 21 19 18 18 18 17 16 16 15 14 14 14 14 13 13 12 10 9 8 7 5 4 3 2 1 1 1 0 1 1 2 2 2 3 3 5 6 7 9
17 18 19 19 18 18 18 17 16 15 15 14 12 12 13 11 10 10 10 9 7 6 4 2 1 1 2 2 2 3 3 2 1 2 3 4 5 6 7 8 7 7

ECMWFNIL_925_spd_063.txt.gz
Wind_Speed
24 23 21 17 15 15 14 12 12 11 10 10 9 10 10 10 10 9 8 7 6 5 4 4 4 4 4 4 4 5 5 6 7 7 7 7 6 7 7 7 7 6
26 24 21 16 14 14 14 11 12 11 10 10 9 10 11 10 10 10 8 8 6 5 5 4 5 5 5 4 4 5 5 6 6 6 7 7 7 7 7 7 7 7
27 25 22 16 14 15 14 12 12 11 10 10 10 10 11 11 11 10 9 8 7 6 5 5 5 5 5 5 5 5 5 5 5 6 6 6 6 7 7 8 8 7
28 27 24 20 16 15 14 13 13 12 11 10 10 10 10 11 11 10 10 8 7 6 6 6 6 5 5 6 6 5 6 6 6 6 5 5 5 7 7 8 8 7
29 29 27 22 18 15 14 14 13 12 12 11 11 10 10 11 11 11 10 9 7 7 7 7 6 6 6 6 7 7 6 6 6 6 5 5 5 6 8 9 9 9
27 28 27 22 18 16 15 14 13 13 12 12 11 10 11 11 11 11 10 9 8 7 7 8 8 8 7 7 8 7 6 6 6 6 6 5 5 5 7 9 10 9
24 25 26 22 18 17 16 15 14 13 13 12 11 10 11 11 11 11 11 10 9 8 8 9 9 9 9 8 8 8 7 6 6 6 6 6 6 6 6 7 9 9
22 22 24 22 19 17 17 15 15 14 13 12 11 11 11 11 11 11 11 10 9 8 8 9 10 10 10 9 9 8 8 7 6 6 6 7 7 7 7 7 9 10
22 20 22 22 19 18 17 16 15 14 13 12 11 11 11 11 11 11 11 10 9 8 9 10 10 10 10 10 10 10 9 7 6 6 7 7 8 8 8 8 10 11
23 21 22 22 20 19 18 17 15 14 13 12 12 11 11 10 10 10 10 10 9 9 9 10 11 11 10 10 10 10 9 8 7 8 8 7 8 10 10 9 10 11
23 23 24 23 21 20 18 16 16 14 13 12 12 11 10 10 10 10 10 10 10 9 9 10 11 11 10 10 10 9 8 9 9 9 9 8 8 9 11 10 10 10
21 22 23 22 20 19 18 16 16 15 13 12 12 11 10 10 10 10 10 11 10 10 10 10 11 11 10 10 9 8 8 9 9 9 8 8 8 8 10 10 9 10
20 19 19 21 20 18 18 16 15 14 13 12 12 11 11 10 10 10 10 10 10 9 10 10 10 10 10 9 10 9 8 8 9 9 8 8 8 7 8 8 8 8
18 16 16 19 19 18 18 17 15 15 13 11 11 10 10 10 10 10 10 10 10 9 9 10 9 9 9 9 9 9 9 9 8 9 8 8 7 7 7 7 7 7
16 15 14 17 19 18 18 17 16 15 13 12 11 10 9 9 9 10 9 8 9 9 9 9 8 9 9 8 7 9 9 9 9 9 9 8 7 7 7 6 7 7
17 15 14 15 17 17 17 17 16 15 13 12 11 10 8 8 8 9 8 8 9 9 9 8 7 9 11 8 7 9 8 8 9 8 8 8 8 7 7 6 6 6
16 15 15 14 14 15 16 15 15 15 13 12 11 10 8 7 7 7 6 6 8 9 9 8 6 8 10 8 7 7 5 5 8 8 7 7 7 7 7 6 6 6
16 15 16 15 13 14 14 15 15 16 14 12 12 10 9 8 7 6 7 8 9 10 9 8 7 8 9 7 6 6 4 4 4 6 6 6 6 6 6 6 7 6
18 17 18 18 16 14 15 16 16 16 15 16 15 12 11 10 8 7 6 6 7 7 6 5 6 6 7 5 4 4 3 1 2 2 4 5 5 5 6 5 5 6
19 19 18 18 18 17 17 16 16 15 14 14 15 13 12 12 11 9 8 6 5 5 5 5 5 5 4 4 3 2 4 5 5 4 4 5 4 5 6 5 6 6
19 19 17 16 18 18 16 12 11 11 10 9 9 9 10 10 10 9 9 9 9 8 8 7 6 4 3 2 2 1 3 5 5 5 6 6 6 6 7 7 7 8
18 19 18 17 17 15 13 11 9 9 9 9 9 8 8 8 9 9 9 9 10 9 9 8 7 6 3 2 2 1 2 3 5 7 8 7 7 6 7 7 7 7
19 19 18 18 18 17 15 15 13 12 11 10 11 11 11 10 11 11 10 9 9 8 8 9 9 7 4 1 3 5 4 3 5 8 8 7 6 6 5 7 6 6
21 20 19 18 18 17 17 17 16 14 13 11 11 12 11 11 11 11 10 10 11 9 8 8 8 6 3 2 3 5 5 3 5 7 6 4 5 4 4 6 6 6
21 20 20 19 17 16 15 16 16 15 13 12 13 12 11 11 11 10 10 11 11 10 7 7 7 6 5 4 4 4 5 2 2 3 2 3 4 4 4 5 5 6
20 19 18 18 17 16 15 15 15 14 14 14 13 12 11 10 10 8 8 7 7 6 4 4 4 3 3 2 2 3 3 3 2 2 4 4 5 6 6 6 6 5

ECMWFNIL_925_spd_066.txt.gz
Wind_Speed
27 28 28 26 25 23 20 18 17 15 14 13 12 11 11 10 9 8 8 8 7 7 7 7 7 7 6 6 6 6 6 8 8 7 8 7 7 10 11 10 10 9
29 30 29 27 25 22 20 19 18 16 14 13 12 12 11 10 10 9 8 8 7 7 7 7 7 7 7 6 7 6 6 8 8 7 8 8 7 9 10 11 10 10
30 31 28 27 25 22 20 18 18 17 14 13 13 12 11 11 11 9 8 7 7 7 6 7 7 7 7 7 7 7 6 7 7 7 8 8 8 9 10 11 12 11
30 30 27 25 23 21 20 18 17 16 14 13 13 13 12 12 11 9 8 7 7 7 6 6 7 7 7 7 7 7 7 7 8 8 8 8 9 9 10 12 12 11
31 30 25 23 22 21 22 19 17 16 15 14 14 13 13 13 12 10 8 7 7 6 6 6 6 6 7 8 8 8 8 8 8 8 7 7 8 9 10 11 11 11
31 29 24 22 22 22 22 20 17 17 16 15 14 14 13 12 12 10 9 8 7 6 6 6 6 6 7 8 8 8 8 8 8 8 8 7 7 8 9 10 11 12
29 26 24 23 23 22 22 20 18 17 17 16 14 13 13 12 11 11 9 8 7 6 7 6 6 7 6 7 8 7 8 8 7 9 10 8 8 8 8 9 11 11
27 24 23 24 24 22 22 21 19 17 17 17 14 12 13 12 11 11 10 9 8 7 7 7 7 7 6 7 7 6 7 6 6 7 10 10 9 9 10 11 12 11
26 23 22 24 23 22 21 21 19 18 17 16 14 13 14 12 11 12 10 9 9 8 8 8 8 8 7 6 6 6 6 5 3 7 11 10 8 10 11 11 12 13
25 24 23 23 23 22 22 21 20 20 18 16 14 14 13 12 11 12 10 9 9 8 8 9 9 9 7 6 7 7 5 4 3 8 9 9 9 9 10 12 13 13
25 25 24 22 23 23 22 21 20 19 17 15 14 14 13 12 12 11 10 9 8 8 9 9 9 9 8 7 8 7 6 4 4 5 6 8 12 12 10 12 13 12
25 26 24 22 23 23 21 21 19 18 16 15 14 14 13 11 11 10 9 9 8 8 9 9 9 9 8 8 8 7 7 6 6 7 5 6 12 14 11 11 11 11
26 26 24 22 22 22 21 20 19 17 16 15 14 14 13 11 10 9 9 9 9 8 9 8 9 8 8 8 9 7 7 8 8 7 5 7 9 12 12 11 11 11
26 25 24 22 21 20 20 20 19 16 15 15 14 14 13 11 10 10 9 9 8 8 9 10 9 8 8 8 8 8 8 8 8 7 7 8 7 8 11 10 10 11
26 25 22 21 21 20 19 19 19 16 15 16 15 15 13 12 11 10 9 8 8 8 10 11 9 8 9 8 7 8 8 8 8 8 8 8 6 8 9 7 9 10
24 22 20 21 22 20 18 19 19 17 16 16 15 14 12 11 11 10 8 8 10 10 11 11 10 9 10 8 7 8 7 7 9 9 8 8 7 8 8 6 8 9
21 21 20 22 22 19 19 20 19 17 17 16 15 14 13 12 12 10 9 11 13 12 12 11 10 9 9 8 7 7 5 5 7 8 9 8 7 8 7 5 6 6
15 17 19 19 18 19 20 20 18 17 17 17 17 15 14 15 14 14 14 14 14 13 13 11 9 8 8 7 7 7 7 7 6 5 5 5 5 6 6 5 4 5
15 19 20 17 17 20 22 21 20 20 20 20 19 18 18 17 15 17 17 16 14 13 12 10 7 6 5 4 5 5 5 7 8 6 5 3 2 2 1 2 2 3
20 23 23 22 24 26 26 25 24 22 22 21 20 19 18 16 15 16 16 14 13 11 10 9 6 4 3 2 2 1 1 5 6 6 8 8 6 5 5 5 5 3
22 23 24 25 27 28 28 26 24 22 21 21 20 18 17 16 15 16 14 12 11 9 8 8 7 5 4 3 1 0 0 2 4 5 7 8 8 8 9 9 10 8
22 23 23 24 25 26 25 24 22 20 19 20 19 18 17 17 17 16 14 12 10 9 9 10 9 7 6 5 4 3 2 2 2 3 6 8 9 9 9 8 10 10
23 23 23 23 24 24 23 21 19 17 15 14 15 16 15 15 15 15 13 12 11 9 9 10 10 8 7 7 6 6 5 5 3 2 6 9 10 10 9 8 8 9
23 24 23 24 25 25 23 22 21 19 16 13 14 15 14 14 14 14 13 12 11 9 8 8 9 8 7 6 5 6 6 6 4 1 5 8 10 11 9 6 6 6
22 23 23 23 24 23 22 21 21 20 17 16 16 16 16 14 14 14 14 12 11 9 8 7 8 7 6 5 4 4 5 4 4 2 3 6 7 8 8 7 6 5
22 22 22 22 22 21 20 20 20 18 16 16 16 16 16 15 14 14 14 12 10 8 7 6 6 6 6 5 4 4 4 4 4 3 4 5 4 2 2 4 6 6

ECMWFNIL_925_spd_069.txt.gz
Wind_Speed
25 23 23 22 22 23 23 22 20 20 24 24 21 22 21 18 18 17 16 15 14 14 15 13 12 12 12 13 14 13 13 14 15 14 13 13 14 15 14 14 15 15
22 22 20 20 20 21 21 21 20 20 21 21 21 21 21 19 18 17 17 16 15 15 15 14 13 12 12 13 13 12 14 15 14 13 12 11 13 15 14 13 14 14
18 19 18 19 20 20 19 20 20 19 20 21 21 21 22 21 19 18 17 16 16 15 14 14 14 13 12 12 11 11 13 15 14 14 12 10 13 15 14 13 14 14
16 18 18 18 21 20 18 20 20 19 21 21 21 22 22 21 19 18 16 15 16 14 13 14 14 13 13 12 11 11 13 13 13 14 13 11 12 14 14 14 14 14
17 18 18 19 20 18 18 21 20 19 20 21 21 22 22 20 18 17 17 18 16 14 13 14 14 13 13 12 11 12 13 12 12 13 13 12 12 12 13 14 14 13
17 17 19 20 18 17 20 23 21 18 20 22 22 22 21 20 18 17 18 17 16 15 14 13 13 14 13 12 12 13 13 13 13 12 12 12 11 12 13 13 13 13
17 18 20 20 17 17 21 23 21 19 20 22 22 22 20 19 18 17 16 14 14 16 13 12 14 15 13 12 13 13 12 13 15 13 12 12 11 11 13 12 13 13
18 20 21 18 16 18 21 22 22 21 21 22 22 21 19 18 18 17 14 11 13 14 12 12 13 14 13 12 11 12 11 11 13 13 13 14 12 11 14 14 14 14
21 22 21 18 17 20 20 20 22 22 21 22 21 20 19 18 17 16 13 12 13 13 12 12 12 12 13 11 10 11 9 7 12 15 15 14 12 13 15 15 15 15
23 22 22 20 20 21 21 21 22 22 21 20 20 20 18 17 17 14 13 14 14 13 13 12 12 12 11 11 12 10 7 10 15 17 15 12 12 14 15 15 16 16
25 25 24 22 22 22 21 22 23 22 21 18 19 20 17 17 17 14 14 14 14 13 12 12 13 11 10 12 13 9 7 12 16 15 13 13 12 13 14 15 16 16
27 29 26 24 24 24 23 23 23 22 21 19 19 19 17 18 18 15 14 13 13 13 11 11 14 12 10 12 12 8 6 10 11 9 11 14 14 14 15 15 15 16
28 32 29 24 24 25 26 25 22 21 21 19 19 18 17 19 18 15 15 13 13 14 12 13 15 12 11 14 12 7 7 9 7 5 10 16 16 15 16 15 14 14
30 32 30 25 23 25 28 26 23 21 20 20 19 18 18 19 18 16 16 14 13 15 14 14 14 11 12 15 13 9 9 8 7 7 13 18 17 15 16 15 14 13
30 29 26 24 25 27 28 26 24 21 20 20 20 18 17 18 16 14 15 15 15 17 16 15 14 13 14 15 13 11 10 8 8 10 13 16 17 16 16 16 16 13
26 25 23 22 24 28 28 24 22 21 19 20 20 18 17 18 16 14 16 18 18 19 18 17 16 15 15 14 13 12 11 10 10 10 11 14 16 16 15 17 17 14
23 22 22 22 22 25 26 24 22 22 21 20 19 19 19 19 18 18 19 21 21 20 20 19 18 17 16 15 14 13 12 11 11 10 10 12 12 13 14 16 15 12
22 22 23 23 20 18 20 24 25 25 24 22 21 22 22 21 21 21 22 22 22 22 21 21 19 17 16 16 15 13 12 12 12 11 11 12 12 12 12 14 13 12
21 21 21 21 19 16 19 25 27 26 25 24 24 24 24 24 24 24 23 22 22 22 21 21 19 16 14 15 15 15 14 14 15 14 14 14 14 13 14 15 15 15
20 18 17 19 19 19 23 27 28 28 28 27 27 27 26 27 26 25 24 22 21 21 20 19 17 14 12 12 12 13 13 14 15 16 16 16 15 15 16 16 14 13
19 19 20 22 22 24 26 28 29 30 29 28 28 28 28 27 25 24 23 21 19 18 17 17 16 13 11 10 10 10 10 10 11 13 14 15 14 14 15 15 13 10
21 22 23 24 24 26 28 29 29 29 29 28 29 28 27 26 24 22 22 20 19 17 16 16 15 12 11 11 10 9 8 7 7 9 10 10 11 11 11 11 10 8
23 23 24 24 25 27 29 29 29 28 27 28 30 29 26 25 24 22 21 20 18 16 15 15 14 12 11 11 11 10 10 10 9 8 6 5 8 10 9 8 9 7
24 24 24 25 25 26 28 29 28 26 24 23 26 27 24 22 22 21 20 18 17 15 14 13 13 11 10 10 10 9 10 12 12 12 12 11 11 12 11 10 10 9
24 24 25 26 26 25 26 27 26 25 22 19 20 20 19 18 17 16 16 16 15 14 13 12 12 11 10 9 9 9 10 12 14 16 18 17 15 14 13 12 11 9
24 24 24 24 25 25 25 24 24 23 21 20 18 17 16 14 13 13 15 15 14 14 13 13 12 11 11 9 8 8 9 9 10 13 15 15 14 13 12 10 8 7

ECMWFNIL_925_spd_075.txt.gz
Wind_Speed
21 20 20 20 22 21 20 20 22 22 22 23 23 22 21 20 20 19 19 18 17 17 17 18 18 18 18 18 17 17 17 17 17 16 16 17 17 17 17 18 19 17
22 21 20 20 21 20 19 20 22 22 23 23 23 21 20 20 20 19 19 18 17 17 17 18 18 17 17 18 18 17 17 17 17 16 16 16 17 17 17 17 17 16
23 23 21 21 21 21 20 20 21 22 22 23 22 20 20 21 21 20 19 19 18 18 17 17 17 17 17 18 18 17 18 18 17 16 15 15 15 16 17 17 16 16
24 24 23 22 22 21 20 21 21 22 22 23 22 20 21 22 21 20 20 19 19 18 17 17 17 17 17 17 18 17 17 17 16 16 15 14 14 15 15 16 16 16
25 25 24 24 23 22 21 21 21 22 23 24 23 23 24 24 21 21 21 20 19 19 18 18 17 17 17 17 18 18 17 16 16 16 15 14 14 14 15 15 15 15
24 23 23 22 21 21 22 21 21 23 24 23 24 25 26 24 23 22 22 21 20 20 20 19 17 16 16 17 17 17 16 16 16 17 16 15 14 14 15 15 15 15
20 20 20 20 20 20 20 20 21 22 23 24 25 26 25 24 24 23 22 22 20 20 20 19 18 17 16 17 17 17 17 16 17 17 16 14 14 14 14 15 15 14
19 19 19 19 19 19 20 21 22 22 22 24 26 26 25 25 24 23 22 21 20 19 20 19 18 17 16 17 17 16 17 17 17 17 16 15 14 14 15 15 15 15
20 20 20 20 20 21 22 23 24 23 22 25 27 26 27 26 24 23 22 22 20 19 19 19 17 17 17 17 17 16 16 17 17 17 16 16 15 15 15 16 15 15
19 19 21 23 23 24 25 25 25 24 24 26 28 28 28 26 24 24 23 22 22 20 19 19 18 17 17 17 16 16 16 17 17 16 16 16 16 15 15 16 16 16
18 17 19 22 22 21 23 25 25 25 27 29 30 29 29 27 25 25 25 23 21 20 20 20 19 18 18 17 16 16 16 16 16 15 15 15 15 14 15 15 15 15
18 17 18 21 21 20 19 20 22 25 27 29 30 31 29 28 28 27 26 24 21 21 21 20 19 19 17 16 16 16 15 15 15 15 14 14 14 14 14 15 15 14
16 18 20 22 23 22 19 20 23 26 26 27 29 32 31 29 29 28 26 24 23 22 20 20 20 19 17 16 15 15 16 17 17 16 15 14 14 14 14 16 16 13
17 21 22 22 22 21 20 22 26 28 28 26 26 30 32 29 28 28 27 25 24 22 20 21 21 19 18 16 14 14 15 17 18 18 16 15 14 13 14 15 15 11
17 21 22 20 21 21 20 24 27 27 29 27 23 24 29 31 28 27 26 25 25 23 21 22 20 19 19 17 13 12 12 13 16 17 17 16 13 12 12 13 13 10
16 19 20 21 22 22 22 24 27 27 27 28 26 23 25 30 30 27 26 26 26 24 22 22 20 19 20 18 15 13 12 13 14 15 16 16 13 12 11 12 12 11
13 17 18 20 23 23 24 25 27 29 27 29 31 27 25 30 31 27 27 26 25 25 23 21 21 20 20 17 16 15 13 13 13 15 17 16 14 13 12 13 15 15
9 15 18 20 22 24 26 25 26 29 28 28 31 28 26 30 31 28 27 26 25 24 23 22 22 21 19 17 16 16 15 13 13 15 17 17 16 16 16 16 19 20
5 11 18 21 21 23 27 27 27 28 28 28 29 27 27 30 30 28 27 26 25 25 23 23 23 22 20 18 16 16 15 14 13 16 19 19 18 19 18 18 20 21
10 3 12 18 21 23 25 27 28 26 25 26 27 25 27 30 29 27 27 26 25 25 24 22 22 22 21 19 16 15 14 14 15 17 19 19 19 20 20 20 20 20
16 9 1 10 18 23 25 26 27 25 24 26 28 26 28 30 29 27 27 25 24 24 23 22 21 22 22 20 18 16 15 15 17 19 19 19 19 20 20 20 19 18
21 15 10 6 11 20 23 24 24 24 23 25 26 25 26 28 28 26 25 25 24 23 23 22 21 21 21 20 19 18 17 18 19 20 21 21 21 20 20 20 19 18
24 20 16 14 12 15 20 22 23 24 23 23 24 24 24 25 27 26 24 24 24 24 24 24 22 21 21 21 20 20 19 20 21 22 22 22 21 20 20 20 19 18
25 23 21 19 17 16 18 23 25 24 23 24 25 26 25 24 26 27 24 23 24 23 24 25 24 22 22 23 23 22 22 23 23 22 22 20 20 20 19 18 18 16
25 24 22 21 20 18 18 23 28 28 26 26 27 27 27 25 26 28 27 25 24 23 22 23 23 21 21 22 23 22 22 24 24 24 22 20 19 19 16 14 13 12
25 24 22 21 21 21 21 24 28 29 29 29 28 28 28 26 26 28 29 27 25 24 23 22 21 19 18 19 21 22 22 22 23 23 22 19 15 13 11 9 9 9

ECMWFNIL_925_spd_078.txt.gz
Wind_Speed
16 17 18 19 20 21 21 21 20 18 20 24 23 21 20 19 18 18 18 18 18 18 17 18 19 18 18 18 19 21 21 20 20 19 20 20 19 19 18 17 17 18
18 20 20 21 22 23 22 21 20 19 19 21 22 20 19 18 17 17 18 19 18 18 17 18 19 18 18 18 19 21 21 20 19 18 18 18 17 18 17 16 16 16
20 24 25 25 24 25 23 19 18 18 17 18 20 19 19 19 18 18 19 19 18 18 18 18 19 19 19 18 19 21 21 20 19 18 17 16 16 16 15 15 15 15
19 25 27 27 25 24 21 16 15 15 15 17 19 19 19 19 19 19 19 19 19 19 18 18 18 19 19 19 19 19 20 19 18 17 17 16 15 15 14 14 14 14
17 22 24 23 21 18 15 13 14 15 16 18 20 19 20 20 20 20 20 19 19 19 18 17 17 18 18 19 19 19 19 18 18 18 17 16 15 14 14 14 14 15
14 18 19 17 17 17 17 16 16 17 18 20 20 20 21 22 21 21 20 20 20 19 18 18 17 17 18 18 18 19 19 19 18 18 17 16 14 13 13 13 13 14
16 18 17 15 16 18 19 18 17 18 19 20 20 21 22 22 22 22 21 20 20 20 19 19 18 18 18 18 18 19 19 19 18 18 17 16 15 14 13 12 12 13
17 17 17 17 17 17 17 17 18 19 20 20 21 22 23 23 24 24 23 22 21 21 20 19 19 19 19 19 19 20 20 19 18 17 17 16 15 14 13 12 12 13
13 13 14 14 14 16 18 19 19 20 20 21 22 23 24 24 24 25 25 24 22 22 21 20 20 20 19 19 19 20 20 19 18 17 17 17 16 14 13 13 13 14
11 12 13 12 15 18 21 20 19 20 21 21 22 24 25 25 25 26 26 25 24 24 22 20 20 20 19 19 19 19 19 18 17 17 17 17 15 14 13 14 14 14
13 13 11 12 16 19 20 20 20 21 22 23 23 24 26 26 26 27 27 27 26 25 23 21 21 21 20 19 19 18 17 16 16 17 17 16 15 14 14 14 15 14
14 14 11 12 15 16 17 20 22 23 24 25 25 24 26 27 28 28 28 28 27 25 23 21 21 22 21 20 19 18 16 15 15 15 15 15 14 14 13 14 14 14
14 14 12 13 14 15 18 21 23 25 26 27 26 25 26 28 28 28 28 28 26 24 23 21 22 22 21 19 18 18 16 15 15 15 15 15 14 13 13 13 14 15
15 14 13 13 14 16 19 22 23 24 26 27 27 26 26 27 28 28 28 27 25 24 23 21 22 22 21 19 18 17 17 16 16 16 16 15 14 13 13 12 13 14
16 14 14 14 15 17 19 21 23 25 26 27 28 27 26 27 29 28 28 27 25 24 23 22 23 23 20 19 18 17 17 16 16 16 16 15 13 12 13 12 12 13
17 15 14 15 17 18 19 20 24 27 27 27 29 29 28 29 30 28 26 27 26 24 23 22 22 22 20 19 18 17 17 17 18 18 17 15 13 12 12 13 13 12
20 17 15 15 17 19 20 21 25 27 27 28 29 29 27 28 29 27 25 26 27 25 23 22 21 21 20 19 17 16 15 16 18 18 18 15 13 11 12 13 13 14
22 20 18 15 17 19 20 21 25 27 27 27 28 27 25 26 28 27 25 26 27 25 23 22 21 20 20 19 18 15 13 14 15 16 16 15 13 12 12 14 15 16
25 22 19 16 15 19 20 20 24 27 26 26 27 26 26 27 27 25 24 26 25 24 23 23 21 20 20 20 18 16 14 13 13 14 15 15 14 13 13 15 16 17
26 23 20 16 12 14 17 19 22 24 22 24 26 25 26 27 27 25 24 24 23 23 23 23 22 21 22 21 18 16 16 14 13 14 16 17 17 16 16 16 17 19
27 24 20 17 13 7 7 9 14 16 17 20 22 22 23 24 25 24 23 22 22 22 22 22 22 21 21 20 18 17 16 15 15 17 19 21 20 19 19 19 20 22
27 25 22 18 15 11 7 5 5 9 14 17 19 19 18 16 17 20 20 19 20 20 20 20 20 20 19 18 17 17 16 17 18 20 22 23 22 21 21 22 22 23
27 26 24 20 17 16 15 13 11 10 12 15 18 18 15 12 13 14 16 17 17 16 15 16 16 16 17 17 17 17 17 19 21 23 24 24 23 22 22 22 22 22
27 26 25 22 19 18 18 17 15 15 14 16 19 19 17 17 16 16 16 16 17 15 13 14 14 15 16 18 18 18 18 20 23 25 25 25 24 23 22 22 22 21
26 26 25 23 21 18 18 19 19 19 19 20 22 23 23 22 20 21 21 19 19 18 15 15 16 16 16 18 20 20 20 22 24 26 26 27 26 25 24 22 21 20
26 25 24 23 21 19 19 20 21 22 23 25 26 27 27 26 25 25 25 25 23 21 18 17 17 16 15 16 18 20 21 23 25 27 28 28 27 26 24 22 19 18

ECMWFNIL_925_spd_081.txt.gz
Wind_Speed
12 12 11 10 10 10 11 11 10 12 15 15 15 15 15 15 15 15 16 14 15 16 14 14 13 13 14 16 17 16 15 16 16 15 15 16 16 15 15 15 15 16
11 11 11 10 9 9 9 10 10 12 16 20 18 14 15 18 18 19 19 17 16 16 15 15 15 16 17 17 17 16 16 18 17 16 16 16 16 16 15 14 15 16
10 9 9 9 8 9 11 13 14 13 16 19 18 14 15 19 19 19 20 18 15 15 16 17 18 19 19 19 17 16 16 18 18 18 18 17 16 16 14 14 15 17
10 9 8 9 12 15 15 14 13 13 16 18 18 16 16 18 19 19 20 18 16 17 17 17 18 19 20 20 18 17 17 18 18 19 19 17 15 15 14 14 15 16
10 9 9 10 14 17 17 15 13 14 17 18 16 13 13 15 18 19 20 19 19 20 20 19 18 19 20 20 19 17 16 17 18 19 18 15 14 15 14 14 14 14
9 8 9 10 12 14 16 17 16 16 19 18 14 12 14 17 19 21 21 21 21 22 22 22 21 20 20 20 19 18 17 17 18 18 16 14 14 14 13 13 13 13
11 9 9 11 11 13 15 16 16 17 17 15 14 15 18 19 20 22 22 23 23 23 23 23 22 21 20 19 18 18 18 18 19 18 15 14 15 14 13 14 13 13
12 9 8 10 11 12 14 14 14 14 14 14 14 16 18 20 22 23 23 24 24 24 24 23 22 21 20 19 19 19 18 16 17 19 17 16 16 15 15 15 13 12
12 10 9 10 11 11 12 13 13 13 14 16 16 17 18 20 22 23 23 24 24 25 24 23 22 21 20 20 19 20 19 16 16 18 18 18 17 16 15 15 14 13
13 12 11 11 11 12 13 14 13 13 14 15 16 17 18 19 21 22 22 22 23 24 24 23 22 21 20 20 20 20 20 19 18 18 17 17 17 16 15 14 14 14
16 13 13 12 12 12 14 14 14 13 14 13 13 15 16 18 20 22 22 22 22 22 23 23 22 22 21 21 21 20 19 19 18 18 18 17 16 17 16 15 15 15
18 16 15 14 14 14 14 14 13 14 14 14 13 13 14 17 20 22 23 24 23 20 22 23 22 22 22 22 21 20 19 18 18 18 18 17 16 17 17 16 15 15
20 18 17 16 16 15 15 15 13 13 13 13 13 13 13 15 19 22 23 24 25 23 23 25 23 22 22 21 20 19 18 17 17 17 17 17 17 16 16 16 15 16
19 20 19 18 17 16 16 16 14 12 12 12 12 13 14 14 17 21 23 24 25 24 24 26 25 23 21 21 20 18 17 17 17 17 17 18 17 16 16 15 14 16
18 19 20 19 18 16 16 16 15 13 12 12 12 14 15 14 16 20 23 25 25 23 24 26 25 23 21 21 20 18 18 18 18 18 17 17 17 16 15 14 14 15
17 18 20 21 20 18 17 16 17 15 13 13 13 14 16 15 16 20 24 25 25 24 25 26 25 23 21 20 19 18 18 19 19 18 17 17 17 16 15 14 14 14
17 17 19 21 21 21 19 17 16 16 14 14 14 15 18 17 17 21 24 24 24 25 26 26 24 22 20 19 18 17 17 19 19 19 18 17 17 16 15 15 14 14
20 19 20 21 22 22 20 17 15 15 15 15 16 17 18 18 19 22 23 24 24 25 25 25 24 21 19 18 17 17 17 19 19 19 18 18 17 16 15 15 16 16
22 21 21 22 22 22 21 18 14 13 13 14 17 18 18 18 20 22 23 25 25 24 24 24 23 20 18 18 18 17 17 18 19 20 20 19 18 16 16 16 17 18
22 22 21 21 22 23 22 19 15 12 9 9 12 15 16 16 17 18 19 21 22 23 23 23 21 19 17 17 17 18 18 18 19 21 21 20 18 16 16 17 18 18
22 23 21 21 22 22 21 20 16 13 9 5 2 7 10 11 12 13 14 15 17 17 19 20 20 18 17 17 18 19 18 16 16 19 20 19 18 17 16 17 17 17
22 23 22 21 21 19 19 19 18 15 13 10 7 5 4 5 7 7 8 10 11 10 12 15 17 17 17 18 20 20 18 16 16 18 19 19 18 17 17 16 17 18
20 21 22 21 20 19 17 17 17 17 15 13 11 11 11 10 9 10 10 9 10 10 8 9 12 14 16 17 18 19 19 17 18 18 18 19 19 18 18 17 18 20
18 19 20 21 20 19 17 16 16 17 17 15 14 14 15 16 16 16 17 15 13 12 10 9 11 12 14 15 16 18 19 19 19 19 19 20 21 20 20 20 22 24
18 19 18 19 19 18 17 16 15 16 17 18 19 19 19 19 20 22 23 22 18 16 14 13 13 14 14 16 16 18 19 19 20 21 22 22 23 23 24 24 24 25
20 20 18 17 18 17 16 16 16 19 21 19 18 21 25 24 24 28 28 26 23 21 18 16 15 13 12 13 14 16 18 19 20 23 25 25 25 25 26 26 24 23

ECMWFNIL_925_spd_084.txt.gz
Wind_Speed
10 10 8 8 10 11 12 13 13 13 14 15 18 20 17 15 16 17 17 18 19 19 18 16 16 16 15 14 15 16 17 18 18 16 16 17 16 15 15 15 15 13
11 10 9 10 11 11 12 14 15 14 13 13 16 19 16 13 15 17 18 18 18 19 19 17 16 15 14 15 17 19 18 17 18 16 16 17 16 17 17 16 15 14
12 11 11 11 11 11 11 12 13 13 12 13 14 15 14 12 15 17 18 17 17 18 18 17 17 16 16 17 18 20 18 16 17 16 15 16 16 17 18 17 16 15
13 13 12 11 11 11 11 11 11 10 11 12 13 14 13 13 15 17 18 18 19 20 19 18 18 17 18 18 19 19 18 15 16 16 15 16 16 16 15 15 15 14
12 13 13 11 11 11 11 11 11 10 10 11 12 13 14 13 14 17 18 18 19 20 20 19 19 19 19 20 20 19 17 15 15 16 16 16 15 15 14 14 14 14
11 11 12 11 11 11 11 10 10 10 10 11 12 12 13 13 13 15 17 16 17 20 20 19 19 20 20 20 20 18 17 16 15 15 16 16 15 15 15 15 16 15
12 10 11 12 11 10 10 10 10 10 10 11 12 12 13 14 13 14 14 15 17 19 18 18 18 18 17 17 18 18 16 15 15 15 16 16 15 15 16 15 16 16
12 11 11 12 10 8 9 9 9 9 10 10 11 12 14 14 14 14 14 14 16 18 17 16 18 18 16 17 18 18 17 16 15 16 17 16 16 15 16 15 15 17
13 12 12 12 11 9 8 8 8 9 10 10 11 12 14 16 15 15 15 14 16 18 18 17 18 18 18 19 18 17 17 17 16 17 17 17 16 15 16 16 15 16
14 13 12 13 12 10 9 8 8 9 9 10 11 12 14 16 16 15 15 15 16 18 20 21 21 19 18 19 19 17 17 16 16 16 16 16 16 16 17 18 16 15
15 14 13 13 12 11 10 9 9 9 9 9 11 12 14 16 16 15 15 15 17 18 19 21 23 21 18 18 18 17 16 16 16 16 14 14 17 17 18 18 16 15
17 16 14 14 14 13 11 10 10 10 9 9 10 11 13 15 15 15 15 16 18 17 17 20 23 22 20 19 19 17 16 16 16 16 16 16 17 17 18 17 16 16
19 17 16 16 16 15 13 12 11 11 10 10 10 11 12 14 15 15 16 17 18 18 17 19 22 23 22 21 20 18 17 17 16 16 17 18 17 17 17 17 16 16
20 18 17 17 17 16 14 13 12 11 11 10 10 11 11 12 14 15 16 16 17 17 16 18 22 23 23 22 20 17 17 17 16 16 16 16 17 17 17 16 16 16
21 20 19 19 18 18 16 15 13 12 11 11 10 11 12 12 13 15 16 17 18 16 16 17 19 20 22 23 21 18 17 17 16 16 15 15 16 16 16 16 16 16
21 21 21 20 20 20 19 17 16 13 12 11 10 11 12 12 13 13 15 17 18 16 16 17 16 17 20 24 22 20 18 17 15 15 16 15 15 15 16 16 16 16
21 21 21 21 21 20 19 19 18 15 13 11 10 10 10 11 12 12 13 15 17 17 16 15 15 16 19 22 23 21 18 16 15 15 16 15 15 16 16 16 16 16
22 22 22 22 21 21 20 19 19 17 17 14 12 12 12 11 11 12 14 15 17 18 17 15 14 15 18 22 25 23 20 16 15 15 16 16 16 17 17 17 16 15
22 22 22 22 22 21 20 20 19 19 19 18 16 14 12 10 8 9 11 14 17 19 19 17 16 17 18 22 24 23 20 18 16 15 16 16 16 17 17 16 15 15
21 21 21 22 22 21 21 20 19 19 18 17 17 15 12 9 7 6 6 8 13 18 18 17 19 22 21 22 24 23 20 20 17 14 14 15 16 16 16 15 15 15
21 21 21 22 22 21 21 20 19 19 17 16 15 15 14 10 8 6 5 3 6 12 15 16 19 22 22 22 23 23 21 19 16 12 12 13 13 13 14 13 14 14
20 21 21 22 22 21 21 21 20 18 17 16 14 13 14 13 11 8 6 4 2 3 7 10 13 16 20 22 23 23 21 19 14 11 11 11 11 11 11 11 11 11
19 20 20 21 21 22 22 21 20 18 17 15 15 14 14 14 13 12 10 8 6 5 3 3 5 10 15 17 16 18 18 15 13 11 11 11 10 10 9 9 10 11
18 18 18 20 21 21 21 21 20 19 17 16 15 15 15 15 14 14 14 14 13 11 9 7 6 6 9 10 9 12 12 9 10 11 11 11 10 9 8 9 12 13
18 17 17 19 20 20 20 20 19 19 18 17 16 16 15 15 15 16 18 19 19 19 15 12 12 11 8 7 7 9 9 8 8 7 7 10 10 9 8 8 11 14
18 17 15 16 18 19 19 19 19 18 18 18 18 17 17 17 17 18 19 21 24 26 23 19 17 14 9 5 3 4 6 10 10 7 5 8 9 9 9 10 11 14

ECMWFNIL_925_spd_087.txt.gz
Wind_Speed
13 14 13 11 11 13 14 12 13 15 16 17 16 14 16 17 17 16 16 15 16 20 23 21 21 21 21 22 20 17 17 21 23 22 22 24 24 22 22 22 20 16
13 14 15 14 12 13 15 16 16 17 18 20 18 16 16 16 15 14 14 15 16 18 21 20 20 19 18 19 20 18 15 17 22 23 21 24 24 21 21 22 20 16
14 15 15 17 15 13 15 17 17 17 18 20 19 16 17 18 17 15 15 16 17 17 19 20 20 18 16 16 18 18 16 16 20 21 18 19 21 20 21 21 18 17
16 16 15 17 16 15 15 15 15 16 17 19 19 18 19 19 18 17 17 17 18 16 17 20 20 17 15 15 16 17 18 17 17 17 17 18 19 19 20 18 17 17
16 16 16 17 16 16 16 14 14 14 15 17 19 19 20 19 18 19 18 17 18 16 15 17 18 16 14 14 15 16 18 20 18 17 19 21 19 20 21 19 17 17
16 16 17 17 16 15 15 14 13 12 13 15 17 19 21 20 18 18 18 17 17 16 15 15 16 17 16 15 16 17 17 18 17 16 18 21 21 22 22 19 17 17
17 16 16 17 16 15 13 12 12 12 13 14 14 17 21 20 18 16 16 17 17 16 17 16 16 17 18 18 19 20 18 17 16 14 15 18 21 21 19 17 17 17
17 16 16 16 17 16 14 13 13 13 13 14 15 17 18 18 18 17 15 15 15 16 16 15 14 16 18 19 21 22 20 18 16 14 15 18 21 21 18 18 18 18
16 16 16 17 17 16 15 15 15 15 14 15 16 17 15 14 17 17 15 14 15 16 14 11 12 15 16 18 21 22 21 20 18 18 18 20 22 21 18 18 20 20
16 16 16 17 17 17 17 17 17 17 16 15 16 18 15 13 14 15 15 16 17 16 14 11 12 14 15 17 18 18 20 21 20 21 21 21 21 21 18 18 18 18
17 16 16 17 17 17 18 18 18 18 18 17 17 18 17 15 15 14 15 18 18 16 13 13 14 15 15 17 16 15 18 20 19 21 22 21 20 21 22 21 19 16
18 17 17 18 18 18 19 19 19 19 20 19 18 18 18 18 16 15 15 18 18 16 14 16 19 18 16 16 16 15 19 20 18 20 21 20 20 23 26 24 19 17
18 18 18 18 18 19 19 19 20 19 20 19 19 18 18 19 18 17 16 17 17 17 17 17 18 17 15 15 15 15 18 18 16 18 20 19 19 22 24 20 15 17
19 19 19 19 19 19 18 19 20 20 20 20 20 19 18 18 19 19 18 18 16 17 17 16 15 15 14 15 14 13 15 15 15 17 19 19 19 20 20 16 14 17
20 20 20 20 20 19 19 19 20 20 21 22 22 21 19 18 18 18 20 19 17 14 14 15 15 15 15 14 12 12 13 14 15 18 20 20 22 21 18 18 18 17
20 20 21 21 21 20 20 20 20 20 21 22 23 23 21 19 18 18 18 18 17 15 15 14 14 15 15 13 13 13 13 13 13 16 19 19 21 21 18 20 21 18
20 21 21 21 22 21 20 21 21 21 21 22 23 24 23 21 20 20 19 16 15 16 16 12 10 14 16 16 16 16 14 12 11 13 16 18 20 21 20 20 20 17
20 21 21 22 22 22 21 21 21 21 21 21 22 24 24 23 22 21 20 20 17 16 15 12 10 14 16 16 17 17 16 16 16 16 16 17 22 26 25 22 19 16
20 20 21 22 22 22 22 22 21 22 22 22 21 22 22 23 24 23 22 21 20 18 17 14 9 11 13 13 14 15 16 17 18 19 18 18 23 26 23 19 17 16
20 20 20 21 22 22 22 22 22 22 22 22 21 21 22 23 24 25 24 23 21 19 18 15 10 10 13 14 14 14 16 17 19 20 19 18 20 19 15 12 12 13
19 19 19 21 21 22 22 22 22 22 22 21 21 21 22 22 22 24 24 23 22 20 18 16 14 14 15 16 17 17 17 18 19 20 18 17 18 16 12 11 12 12
19 18 19 20 21 21 22 22 22 22 21 21 20 20 21 21 21 21 22 22 22 22 19 17 16 16 15 16 17 18 19 19 20 18 15 15 18 15 10 9 10 11
19 18 19 20 20 21 21 21 21 21 21 20 20 20 21 21 21 20 20 20 22 24 23 20 19 18 14 13 14 15 17 17 17 15 11 13 18 15 8 7 7 8
19 19 19 19 20 20 21 21 21 21 20 20 19 19 20 20 21 20 20 22 22 24 25 23 22 21 15 9 8 8 8 9 9 9 8 11 12 5 5 5 5 7
20 19 19 19 19 20 20 20 21 21 20 20 19 19 19 19 21 21 22 23 23 23 27 28 26 24 20 12 6 4 1 2 3 2 2 0 3 9 11 8 6 6
20 20 19 18 18 18 18 18 19 19 20 20 20 20 19 19 20 21 21 22 22 22 26 31 31 28 23 16 10 8 6 6 7 9 8 8 9 9 8 7 8 8

ECMWFNIL_925_spd_093.txt.gz
Wind_Speed
16 16 18 19 19 20 20 20 20 19 18 16 15 15 14 13 12 12 13 13 12 12 12 12 14 15 17 18 20 23 24 24 23 23 25 26 27 27 27 27 27 28
16 17 18 19 20 21 20 20 20 20 19 17 15 15 14 13 14 13 13 13 12 12 13 14 15 15 17 19 20 22 24 24 23 24 24 24 25 28 29 27 26 26
17 17 18 19 19 21 21 20 21 21 20 19 18 17 16 14 15 15 14 14 14 13 13 15 17 17 18 21 22 23 24 25 24 24 23 23 24 27 29 28 26 25
19 18 18 19 18 20 20 21 21 21 21 22 21 20 19 17 16 16 16 15 15 14 13 15 16 17 18 19 20 22 24 25 24 22 21 21 23 25 27 26 26 26
20 19 19 20 20 20 20 21 21 21 22 22 22 21 21 20 19 18 18 17 16 15 15 15 17 17 17 18 19 20 22 22 21 21 20 21 21 23 25 24 24 25
22 22 21 22 22 21 21 22 22 22 22 23 23 22 22 21 21 20 20 20 18 18 17 17 17 15 16 19 20 19 19 20 19 19 20 21 21 22 25 23 23 24
25 25 24 25 24 24 23 22 23 23 23 23 23 23 23 23 22 21 21 21 20 20 20 19 17 15 15 18 21 21 19 17 18 18 19 20 21 22 24 24 24 25
27 27 27 27 26 26 24 23 24 24 23 23 23 23 23 23 23 22 23 23 21 21 22 21 18 16 16 17 18 20 19 17 17 17 18 19 21 21 23 24 25 26
28 28 28 28 28 27 25 24 24 24 24 23 23 24 23 23 23 22 23 24 23 22 22 22 21 20 19 17 17 17 18 18 17 17 17 20 22 23 23 23 24 26
30 29 29 29 29 28 26 25 25 24 24 24 23 24 24 24 24 22 23 24 24 25 25 23 23 23 20 18 17 16 17 17 16 16 19 21 24 24 23 23 24 25
30 30 30 29 29 28 27 25 25 25 25 24 24 24 25 26 26 24 24 25 23 25 26 25 24 23 20 19 18 16 16 17 17 17 19 22 24 24 22 23 25 26
31 30 29 28 28 28 27 26 26 26 26 26 25 24 25 28 29 27 27 26 24 23 23 24 26 26 24 23 21 18 16 16 17 18 18 20 23 22 21 23 25 26
30 30 29 27 27 27 27 27 27 27 27 27 27 25 25 28 30 30 30 29 26 23 22 24 28 30 29 27 24 20 17 15 15 16 18 19 20 20 22 25 25 24
27 27 28 27 27 27 27 27 27 28 28 28 28 27 26 26 27 28 31 32 30 27 23 23 30 34 33 31 28 23 19 17 14 14 17 19 20 21 24 26 26 25
25 26 27 27 27 27 27 27 27 27 28 28 29 29 28 28 27 26 28 31 33 32 26 25 32 37 36 32 29 25 22 20 17 14 15 16 17 20 23 24 25 26
25 26 26 27 27 27 27 28 27 26 27 28 29 29 29 30 30 28 27 27 30 31 29 28 33 38 37 31 28 25 23 21 19 15 14 13 13 17 20 21 22 25
25 25 26 26 27 27 26 27 27 26 27 28 29 29 29 30 32 32 30 27 27 27 28 30 34 39 38 33 28 26 24 22 19 16 15 14 14 15 17 18 20 23
25 25 26 26 26 27 26 26 26 26 27 29 29 29 29 30 32 32 32 31 29 26 27 30 36 41 40 36 31 28 24 22 19 16 14 15 15 16 17 18 20 22
25 24 25 25 25 25 26 26 27 26 27 28 29 28 28 30 31 31 32 33 33 30 28 29 35 43 42 37 34 30 25 22 19 16 13 13 14 15 16 17 18 19
26 26 26 26 26 26 26 26 27 26 26 28 29 28 28 29 30 31 32 33 33 33 31 29 35 43 43 39 36 32 26 21 17 15 12 11 11 11 13 15 15 15
26 27 28 29 28 28 27 27 27 26 26 27 28 29 28 28 28 30 32 32 33 34 33 32 37 43 45 42 39 34 28 22 18 14 11 9 9 8 11 13 13 13
25 26 28 29 28 28 29 29 27 26 26 27 27 27 28 27 28 30 31 32 33 34 35 35 38 44 45 44 42 37 30 26 24 19 12 9 8 4 4 7 9 11
27 28 29 30 30 30 30 30 29 28 28 28 27 26 27 27 27 29 31 32 33 34 35 35 38 43 45 44 43 40 34 30 28 24 19 16 14 10 5 1 4 9
29 31 33 33 32 32 31 31 31 30 29 29 28 26 26 26 27 28 30 32 33 33 34 35 38 42 43 44 43 42 38 34 29 26 24 22 19 16 13 9 4 2
27 29 33 33 32 32 31 31 30 29 29 29 29 27 26 25 26 27 28 30 33 34 34 35 38 41 43 43 42 41 40 37 32 28 26 25 23 22 20 18 14 7
24 26 31 32 31 30 30 30 29 28 29 29 29 28 27 25 25 26 28 29 31 34 35 35 37 40 42 42 41 40 39 38 37 33 29 27 27 27 27 26 23 17

ECMWFNIL_925_spd_096.txt.gz
Wind_Speed
13 13 11 10 11 13 14 14 14 15 16 17 18 18 17 16 15 14 14 13 12 13 14 15 15 16 17 18 18 19 20 21 23 24 24 25 27 27 28 29 29 29
14 14 13 12 11 12 13 14 14 14 15 17 18 18 17 17 16 15 15 15 15 14 14 14 14 15 16 17 18 18 20 22 24 25 24 25 26 26 27 28 28 29
15 15 15 14 14 14 15 14 13 13 14 16 17 18 18 17 17 17 16 16 17 16 15 15 15 15 15 17 17 18 20 22 25 26 25 24 24 25 26 27 28 28
18 17 16 15 15 16 17 17 16 15 15 16 17 18 18 17 18 18 18 18 18 17 17 17 17 16 15 15 16 17 19 21 23 24 24 24 23 24 26 27 28 29
19 18 18 17 16 16 17 18 19 18 17 17 17 17 17 17 18 18 20 21 20 19 18 18 19 17 15 14 13 15 17 20 22 23 23 24 23 22 24 25 27 28
20 19 18 18 17 17 17 18 18 18 19 19 18 17 17 17 17 17 18 20 21 22 20 19 19 18 16 15 14 15 16 19 21 22 22 23 23 22 23 23 25 26
22 21 20 20 19 18 19 19 19 19 19 19 19 20 19 18 18 18 18 19 20 21 21 21 20 18 17 16 16 16 17 18 20 21 20 21 21 22 22 22 24 25
23 22 21 21 21 21 21 21 21 20 20 20 21 21 21 21 20 20 20 19 19 20 21 22 22 21 19 18 17 17 16 16 18 20 20 20 21 22 22 22 23 25
23 22 22 22 23 23 23 23 22 21 21 22 22 22 23 23 23 23 22 21 20 20 23 25 25 23 22 20 20 19 17 16 16 17 18 20 20 20 21 21 22 24
23 22 22 23 24 24 23 23 23 23 23 24 23 23 23 23 24 24 24 23 22 21 23 26 27 26 25 23 22 21 20 18 17 16 17 19 20 20 20 21 21 24
22 22 23 24 24 24 23 23 24 25 24 25 25 25 24 23 24 24 25 25 24 21 21 25 28 28 28 27 25 23 21 20 19 17 17 18 19 21 21 21 22 24
23 23 24 24 24 24 23 24 25 25 26 26 26 28 27 26 25 23 22 22 22 22 21 24 29 31 31 30 28 26 24 21 19 18 17 17 17 20 21 21 22 23
23 23 23 23 23 23 23 25 25 25 26 26 27 29 30 30 28 25 22 20 21 22 21 24 30 33 33 32 30 28 27 24 21 18 18 18 17 18 20 21 21 22
22 22 22 23 22 23 24 25 25 25 26 26 28 29 30 30 29 27 24 22 21 21 21 23 29 34 35 34 32 31 28 26 23 20 18 18 18 18 18 20 21 21
21 21 22 22 22 23 24 25 25 25 25 26 28 29 29 29 29 29 28 26 23 22 21 22 27 34 35 34 33 32 30 27 24 22 19 18 18 18 19 19 19 20
20 21 22 23 23 23 23 25 26 25 25 25 26 28 29 29 30 30 30 28 24 23 23 23 27 34 36 34 32 30 29 26 24 22 19 17 16 17 19 19 19 19
21 22 23 23 23 22 22 24 25 26 25 25 25 27 28 29 30 30 30 29 25 23 22 24 30 37 39 35 32 30 27 25 23 21 20 18 16 16 17 18 19 20
23 24 25 25 24 23 22 22 24 25 26 26 25 26 27 29 30 30 29 30 28 25 23 25 32 39 41 37 33 30 28 24 22 23 23 20 17 17 16 17 19 22
24 26 27 27 26 24 23 22 23 24 25 25 25 26 26 28 30 30 30 30 30 28 27 28 34 40 41 39 35 31 29 25 22 24 24 19 17 17 15 15 16 19
26 27 28 28 27 26 26 25 25 24 23 23 24 25 27 27 28 30 30 30 29 29 29 30 35 40 41 40 37 33 30 28 25 24 23 20 18 18 16 13 12 14
28 28 29 29 28 28 28 27 27 25 24 23 23 25 26 26 27 28 30 30 30 30 30 30 34 40 41 40 39 35 32 31 28 26 25 24 22 21 20 18 15 12
29 29 29 29 28 28 28 28 27 26 25 24 24 25 26 26 26 26 28 30 30 30 31 31 34 40 41 40 39 36 34 34 32 30 29 28 27 26 24 22 20 17
30 29 29 29 28 29 28 28 27 26 25 24 24 25 26 26 26 26 27 29 30 31 32 32 34 38 41 40 39 37 35 35 33 31 31 31 30 30 28 26 23 21
29 29 29 29 29 29 28 28 27 27 25 24 24 25 25 26 26 27 28 29 30 31 32 32 34 36 39 40 40 37 35 35 33 31 31 33 33 32 32 30 27 25
28 28 28 29 29 29 29 29 28 28 26 25 26 26 26 26 26 27 29 30 31 31 32 33 34 36 37 38 39 39 36 35 34 32 31 33 33 33 34 34 33 31
26 27 28 29 29 29 30 30 29 29 29 28 29 29 29 29 28 28 29 30 32 33 33 33 35 36 36 35 36 38 37 36 36 33 30 30 31 32 35 37 38 37

ECMWFNIL_925_spd_099.txt.gz
Wind_Speed
12 11 10 9 8 7 7 8 10 10 11 12 13 14 14 15 15 15 16 16 15 16 16 16 16 17 19 19 18 19 20 21 21 21 21 22 23 24 24 25 25 26
13 12 12 11 10 8 7 7 8 9 10 11 11 12 13 13 13 14 15 15 15 15 15 15 15 16 18 18 18 18 20 21 22 22 22 23 23 24 25 26 27 28
14 13 12 12 12 11 10 8 8 8 9 10 10 11 12 12 13 13 14 14 15 15 15 16 15 15 16 16 16 17 18 20 21 22 23 23 23 24 25 26 27 28
13 13 12 12 11 11 10 10 10 11 11 11 10 11 11 11 11 12 12 12 14 15 16 17 17 16 16 15 15 16 17 19 20 21 23 24 24 23 25 26 26 28
13 13 13 12 12 11 12 12 13 13 13 13 12 11 11 11 11 11 11 11 13 15 16 17 17 18 18 16 15 15 17 18 19 20 22 24 24 24 24 24 25 26
14 14 14 15 14 14 14 14 15 15 15 15 14 13 12 12 12 13 12 12 13 15 17 18 18 19 20 19 18 17 17 19 19 19 19 21 23 25 25 24 24 25
16 16 15 15 15 15 16 16 17 17 16 15 14 14 14 13 13 14 15 15 15 16 18 21 21 21 22 21 21 20 19 20 21 20 20 19 20 22 24 24 23 23
16 16 15 16 16 17 18 19 19 19 17 15 15 15 14 14 14 15 15 15 16 17 19 22 23 23 23 23 23 23 22 22 22 23 22 21 20 21 21 22 23 23
16 16 16 17 18 19 20 20 20 21 20 19 19 18 16 15 15 16 16 17 17 18 19 22 24 24 25 25 26 26 25 24 24 23 23 22 21 21 21 21 22 23
16 16 17 18 19 20 20 21 22 22 23 23 23 22 21 19 17 17 18 18 19 19 20 22 25 25 25 26 26 27 27 26 25 25 24 23 22 21 20 20 21 22
16 16 18 19 20 20 21 22 23 23 24 25 25 25 25 23 21 19 19 19 19 19 19 21 24 26 27 28 28 27 27 27 27 26 25 25 23 22 21 19 19 21
16 17 19 19 19 20 20 21 23 24 24 25 25 26 26 26 24 22 19 18 17 18 18 19 22 24 27 31 30 28 28 28 28 28 27 26 25 24 23 21 19 20
16 17 18 20 20 19 19 20 21 23 24 24 24 25 26 26 26 24 20 17 16 17 18 19 22 24 28 33 32 29 29 29 28 28 27 27 27 26 25 23 20 19
15 15 17 20 21 20 20 20 21 22 23 24 24 25 26 26 26 25 22 19 17 18 18 19 24 28 31 35 34 30 29 28 26 26 26 27 28 27 26 25 22 20
15 15 16 18 20 21 21 21 22 22 23 24 25 26 26 26 26 26 25 22 19 19 20 21 27 33 34 35 34 31 29 27 25 25 26 27 28 27 26 25 22 20
16 16 15 16 17 18 19 21 22 23 24 25 26 26 26 26 27 27 27 24 21 22 23 24 29 35 36 36 33 29 27 26 24 24 25 25 26 26 25 24 23 22
17 17 16 15 16 16 17 18 19 21 23 24 25 26 26 27 27 27 27 25 24 25 25 26 31 36 37 37 34 29 25 25 25 24 23 23 23 23 23 24 24 24
18 17 17 17 17 17 17 17 19 20 22 23 23 24 25 26 27 28 27 27 26 26 26 27 32 37 38 38 36 31 26 25 25 24 24 24 25 25 25 25 25 26
19 19 19 19 19 18 18 18 20 21 22 22 22 23 25 26 27 28 28 28 28 28 28 28 33 37 39 39 38 34 29 27 26 25 25 26 27 28 28 27 26 27
21 21 21 20 19 19 18 19 20 21 21 21 21 23 25 27 27 28 29 29 29 29 29 30 33 36 38 39 39 38 34 31 29 27 27 28 28 28 29 28 27 27
22 21 21 20 20 19 19 20 20 20 20 20 21 23 24 26 27 29 29 30 30 30 30 31 33 34 36 37 39 39 38 36 32 29 28 29 28 29 30 29 28 27
23 23 22 22 21 21 21 21 21 21 20 20 20 22 24 26 27 29 29 30 30 31 31 32 34 35 34 34 36 38 38 37 34 30 30 31 31 31 32 33 31 30
24 24 24 24 24 24 23 23 22 22 21 20 20 22 24 25 27 28 29 30 31 32 32 32 34 36 35 34 34 35 36 35 34 31 31 32 33 32 33 34 33 32
26 26 26 25 25 25 24 24 24 24 23 22 21 22 23 24 26 28 29 30 31 32 32 32 34 36 37 36 34 34 34 34 33 31 30 31 33 33 33 34 34 34
27 27 27 27 26 26 25 25 25 25 24 24 24 24 24 24 26 28 30 31 31 32 32 33 34 35 37 37 36 35 35 34 34 33 30 30 33 34 34 35 35 36
26 27 27 27 27 26 26 26 25 26 26 26 26 26 26 26 27 28 29 30 31 32 32 33 34 35 35 36 36 36 36 35 35 34 31 29 32 33 34 36 37 38

ECMWFNIL_925_spd_102.txt.gz
Wind_Speed
12 11 11 11 11 12 11 11 11 10 11 12 13 13 14 15 15 15 16 15 15 16 17 16 17 17 17 16 16 16 16 15 15 16 16 17 17 18 18 19 20 20
12 11 11 11 12 12 12 12 12 12 12 13 12 13 13 13 15 15 15 15 16 17 18 18 19 19 19 18 18 17 16 15 15 15 16 18 19 19 19 20 20 20
13 12 12 13 13 12 12 11 12 13 13 13 12 13 13 13 14 15 15 15 16 16 16 17 17 18 18 18 18 18 18 17 17 17 17 18 19 20 20 20 21 21
14 14 14 14 13 13 13 12 13 13 13 14 14 13 13 13 14 15 15 16 15 16 17 18 18 18 19 19 20 20 20 20 20 20 19 19 19 19 19 19 19 21
15 15 15 15 14 14 14 15 15 14 14 14 14 13 13 13 13 14 15 16 17 18 19 20 21 21 22 22 22 22 23 23 23 22 22 21 20 19 18 18 18 20
15 15 15 16 16 16 16 17 17 16 16 15 14 14 13 13 13 14 14 15 16 17 19 21 21 21 22 22 22 22 23 24 24 25 25 25 24 22 21 20 18 20
16 16 16 16 17 18 19 20 20 19 18 17 15 14 14 13 13 14 15 15 16 17 18 21 22 22 23 24 24 24 24 23 24 24 25 25 25 25 24 23 21 20
17 17 18 18 19 21 21 22 22 22 20 19 18 17 16 15 15 16 17 16 17 18 19 22 24 24 24 26 27 27 26 25 25 25 25 25 26 26 25 25 23 22
18 19 20 21 22 22 22 22 22 22 21 21 21 21 19 18 17 17 18 18 18 19 20 23 25 24 24 26 28 28 28 27 26 26 26 26 26 27 26 26 24 23
19 19 20 20 21 21 21 21 21 20 21 21 22 21 21 20 18 18 19 19 19 20 20 23 25 25 26 29 30 29 28 28 27 26 25 25 25 26 26 25 24 24
18 18 18 19 19 19 20 20 20 20 21 21 22 22 22 22 21 19 19 19 19 20 20 22 24 24 26 30 31 30 29 27 27 26 25 25 25 25 25 25 24 24
19 18 18 18 18 19 20 20 21 21 22 22 23 23 24 25 23 20 19 19 19 19 20 22 25 27 29 33 33 31 30 28 26 26 26 27 26 26 25 24 24 25
18 18 18 18 18 19 20 21 22 22 23 23 23 24 25 26 25 22 19 19 18 19 20 23 29 32 33 35 35 31 29 28 26 26 27 26 25 25 23 21 21 22
16 16 17 17 18 19 20 21 22 22 23 23 23 25 25 26 26 25 22 21 20 19 20 24 32 35 35 36 36 32 28 26 26 26 25 24 24 24 23 22 22 22
13 13 14 15 16 18 18 19 20 21 22 23 24 25 25 24 25 25 25 25 24 23 24 27 33 35 35 36 36 32 28 26 26 25 23 23 24 25 26 25 24 24
12 12 13 14 16 17 17 18 19 21 23 24 25 25 25 25 25 25 26 26 27 27 27 29 32 34 34 34 35 33 30 28 26 24 23 24 24 25 27 28 27 26
13 13 14 15 16 16 16 17 19 22 24 25 26 27 27 27 27 27 27 27 28 28 28 30 32 33 32 32 34 33 31 29 25 23 23 25 25 25 27 29 28 28
14 14 15 15 15 15 16 17 19 22 24 26 27 27 28 28 29 29 29 29 29 29 29 31 34 34 33 33 33 32 31 29 25 22 22 24 25 26 27 28 27 29
15 15 16 16 15 15 15 16 19 22 24 25 26 27 28 29 29 29 30 30 30 31 30 31 34 36 36 35 35 33 31 30 26 22 22 23 25 26 28 28 26 28
16 16 16 16 15 15 16 17 19 21 23 24 25 26 27 28 28 29 30 30 30 31 32 32 34 36 37 36 37 35 33 31 27 22 21 23 24 25 28 28 27 28
17 17 17 17 16 16 17 18 19 20 22 23 24 25 26 27 28 28 29 30 30 31 32 33 34 35 36 37 37 37 35 33 28 23 21 23 24 25 27 28 28 28
18 18 19 18 18 18 19 19 19 20 20 21 22 23 25 26 27 28 29 30 30 31 32 33 34 35 35 36 37 37 37 35 29 24 22 23 25 26 27 29 29 29
20 20 20 20 20 20 21 20 20 19 19 20 21 23 24 26 27 28 29 30 31 32 32 33 34 35 35 35 36 36 37 36 31 25 23 23 25 26 28 31 30 29
21 21 22 22 22 22 22 22 21 21 20 20 21 23 24 25 26 28 29 31 32 32 33 33 33 34 34 34 35 35 36 35 31 26 24 24 25 26 29 32 32 31
23 23 23 23 24 24 23 23 22 21 21 21 22 23 24 25 26 28 29 31 32 32 33 34 34 34 34 34 35 35 35 35 31 26 25 26 26 27 30 33 35 35
23 23 23 24 25 25 25 24 23 22 22 22 22 23 24 25 26 28 29 29 31 32 33 33 33 34 34 34 34 34 35 35 33 29 26 26 26 27 30 34 36 37

ECMWFNIL_925_spd_105.txt.gz
Wind_Speed
10 8 8 8 7 7 7 7 6 6 6 6 6 6 6 7 9 11 11 11 12 12 13 14 15 16 16 16 17 17 18 19 18 18 18 17 17 17 17 18 18 19
10 9 9 9 8 8 7 7 7 7 7 6 6 6 6 6 8 10 11 11 11 12 13 15 16 17 17 18 18 17 18 19 19 20 20 19 18 17 16 17 17 18
11 11 10 10 10 9 8 8 8 7 7 7 6 6 6 6 7 9 9 9 10 11 13 14 15 15 16 17 16 15 15 16 16 18 20 20 18 17 17 16 16 17
12 12 12 12 12 12 12 11 11 9 7 7 8 7 7 7 8 9 10 10 11 12 13 14 14 15 15 15 14 13 14 14 15 16 18 17 17 17 18 17 17 18
13 14 14 15 16 17 17 17 17 15 11 9 9 8 9 9 9 10 11 11 12 13 14 14 14 15 15 15 14 14 15 15 16 18 18 16 16 16 16 17 18 19
15 16 17 18 20 21 21 21 20 20 18 15 12 11 11 11 11 12 12 12 13 14 14 15 16 16 15 15 15 15 15 16 18 18 17 17 18 18 16 16 17 18
18 18 19 20 21 22 22 22 22 23 22 20 17 13 12 13 13 13 13 13 14 15 16 17 18 17 16 15 15 16 16 17 18 18 17 17 17 18 18 17 17 17
18 18 20 21 22 23 22 22 23 23 22 22 19 14 12 14 14 13 14 15 15 17 18 19 19 18 17 16 16 16 16 17 18 17 17 17 17 18 18 17 17 17
17 18 20 21 23 23 23 23 23 23 23 23 21 17 13 13 14 15 15 16 17 18 19 19 19 19 19 17 16 16 16 16 17 16 16 16 16 17 17 17 18 18
17 19 21 22 23 23 23 23 23 23 24 24 23 19 16 15 15 16 16 17 17 19 20 20 20 20 20 18 17 15 15 16 16 15 15 15 16 17 17 18 19 19
18 19 21 22 22 23 23 23 24 24 24 25 25 22 18 16 16 17 17 18 18 19 20 20 20 20 20 19 18 16 15 15 15 15 15 15 16 17 17 18 18 19
18 19 20 21 22 22 23 23 24 24 23 24 25 23 19 17 17 18 18 19 18 18 19 20 20 20 20 20 19 17 16 15 15 15 16 16 17 17 17 18 18 18
17 18 19 20 21 22 23 24 24 24 23 23 24 24 22 19 18 18 18 18 18 19 19 19 20 20 22 23 20 18 17 16 16 17 18 17 17 18 18 18 18 18
16 17 18 20 21 22 23 24 24 24 24 24 25 26 26 22 18 17 17 17 18 19 19 20 23 24 26 27 24 19 17 16 17 18 19 19 19 19 19 19 19 19
16 17 18 19 20 22 23 24 25 26 26 26 27 27 27 24 19 17 17 17 18 18 19 22 26 29 30 30 28 23 17 15 16 17 19 19 20 21 20 20 21 20
16 17 17 18 20 22 23 24 25 26 26 27 27 27 27 27 23 20 18 17 18 18 19 22 26 31 32 31 30 26 18 14 16 17 18 19 20 21 22 22 22 22
16 16 16 18 19 21 22 23 24 25 26 26 26 27 27 27 26 24 21 19 19 19 20 21 25 32 34 32 31 28 20 15 15 16 17 18 20 21 22 23 24 24
15 15 16 17 18 20 22 23 23 24 25 25 25 26 27 27 27 26 24 21 19 19 20 20 25 31 33 32 32 29 22 16 15 16 17 18 20 20 21 23 24 25
15 15 16 17 18 20 21 22 23 24 24 25 25 26 27 28 28 29 26 21 18 19 19 19 24 31 33 33 33 30 25 19 16 16 17 18 19 19 20 22 23 25
15 16 16 17 18 20 21 22 22 23 24 24 25 26 27 28 28 29 26 21 18 19 18 19 25 31 32 33 34 31 26 20 18 17 17 18 18 19 20 21 23 25
15 16 17 17 18 19 20 21 21 22 23 23 24 25 26 26 27 28 25 19 18 19 18 19 25 30 32 32 34 32 25 21 20 19 18 19 18 19 20 21 22 24
16 17 18 18 18 19 20 21 21 22 22 22 23 23 24 25 25 26 23 19 19 20 18 19 24 29 31 31 34 32 25 21 22 20 19 20 20 21 21 20 22 24
17 18 19 19 19 19 20 21 21 21 21 21 22 22 23 22 21 22 22 19 20 21 20 19 23 29 30 30 33 31 24 21 22 20 20 21 21 22 21 21 22 24
18 19 20 20 20 20 20 20 20 20 20 21 21 20 20 19 17 19 21 21 23 25 25 21 21 27 30 29 31 31 24 20 21 19 19 21 22 22 21 21 22 23
21 21 21 21 21 21 20 20 19 20 20 21 20 18 17 17 17 18 20 23 25 28 30 28 24 26 29 29 29 30 24 19 19 19 19 21 22 23 22 23 23 23
23 23 23 22 22 21 21 21 20 20 20 21 19 17 17 18 18 19 19 22 26 27 29 32 29 28 29 29 29 29 26 21 18 18 19 21 22 23 23 25 26 24

ECMWFNIL_925_spd_111.txt.gz
Wind_Speed
10 9 9 9 9 9 8 8 8 8 8 7 7 7 7 7 8 8 8 8 9 9 10 10 10 11 11 11 11 10 10 11 12 12 13 13 13 13 14 15 15 16
10 9 9 9 9 9 9 9 9 9 8 8 7 7 7 7 8 8 8 8 8 9 10 10 10 11 11 11 11 10 10 11 12 13 13 13 13 13 14 15 15 16
11 11 10 11 10 10 10 9 9 9 8 8 7 7 7 7 7 8 8 8 9 9 10 11 11 11 11 11 11 10 11 11 12 13 14 13 13 14 15 15 15 16
12 12 11 11 11 10 10 10 10 9 8 8 8 7 7 7 7 8 8 9 9 10 10 11 11 11 11 11 11 11 11 11 12 14 14 13 14 15 15 15 16 17
12 12 12 12 11 11 10 10 10 10 9 8 8 7 8 8 8 8 9 9 10 10 10 11 11 11 11 11 11 11 12 12 13 15 15 14 15 15 15 16 16 17
12 12 12 12 11 11 10 11 10 10 9 8 8 8 8 8 9 9 9 10 10 11 11 12 12 12 12 12 12 12 12 12 14 15 15 15 15 15 16 16 17 17
12 12 12 12 11 11 10 10 10 10 9 9 9 9 9 9 9 10 10 11 11 12 13 13 13 13 13 12 12 12 12 12 14 15 15 15 15 16 16 16 17 18
12 12 12 12 11 10 10 10 10 10 9 10 10 10 10 10 10 10 11 12 12 13 14 14 14 14 13 12 12 13 13 13 13 14 15 15 15 16 16 17 17 17
12 12 12 12 11 11 11 11 11 10 10 10 10 10 10 11 11 11 12 12 13 14 14 15 15 15 14 13 13 13 13 13 13 14 15 15 16 16 17 17 17 18
13 13 12 12 11 11 11 11 11 11 11 11 11 11 11 11 11 12 12 13 13 14 15 16 16 16 15 15 13 13 13 13 14 14 15 15 16 17 17 18 18 18
13 13 12 12 12 12 12 12 11 11 12 12 12 12 11 11 11 12 13 14 14 15 16 16 17 17 17 15 14 13 13 13 14 15 15 16 16 17 17 18 18 18
13 13 13 12 12 12 12 12 12 12 12 12 12 12 12 12 11 12 13 14 15 16 16 17 18 18 17 16 15 14 13 13 14 15 15 15 16 17 17 18 18 18
13 12 12 12 12 13 13 12 12 12 13 12 12 12 12 11 12 12 12 13 14 16 17 18 18 19 18 17 15 13 13 13 14 15 15 16 17 17 17 18 19 18
13 12 12 13 13 13 13 13 13 13 13 13 12 12 11 11 11 12 12 13 14 15 16 18 18 18 18 18 16 13 12 14 15 15 16 17 17 17 18 19 20 19
13 13 13 13 13 14 14 14 14 14 13 13 12 12 11 11 11 12 12 13 14 14 16 18 20 18 17 17 18 16 13 13 14 15 16 17 17 18 18 20 21 20
13 13 13 13 14 14 14 14 14 13 13 13 12 12 11 11 11 12 12 13 14 15 15 18 22 20 15 15 16 16 14 13 13 15 16 17 18 18 19 20 21 21
14 14 14 14 14 13 14 13 13 13 13 12 12 12 11 11 11 11 11 13 14 16 16 19 22 20 16 15 16 16 15 13 13 14 16 17 18 18 19 21 22 23
14 14 14 14 14 14 14 13 13 13 13 12 12 12 11 11 11 10 11 12 14 16 17 20 24 20 15 15 16 16 16 14 13 14 16 17 18 18 19 21 23 25
14 14 14 14 13 13 13 13 13 13 13 12 12 12 11 11 11 10 11 11 13 16 18 22 25 21 15 14 15 15 16 14 13 14 16 17 18 18 19 21 24 26
14 14 13 13 13 13 13 13 13 13 13 12 12 11 11 11 11 11 11 12 13 15 17 22 26 23 16 13 13 13 15 14 13 13 14 16 17 17 18 20 23 25
14 14 13 12 12 12 12 12 12 12 13 12 12 11 10 10 10 11 11 12 13 14 16 20 25 25 19 15 13 13 13 13 12 12 13 14 15 17 17 18 21 23
13 13 12 12 12 11 11 11 12 12 13 12 12 11 10 10 11 11 12 12 12 13 15 18 23 25 22 17 13 12 13 12 11 12 13 13 14 17 17 15 18 22
12 12 12 11 11 11 11 11 11 11 12 12 11 11 10 10 11 12 13 13 12 12 13 16 21 24 24 21 16 12 13 12 10 11 14 14 14 16 16 15 17 22
12 11 11 10 10 10 10 11 11 11 11 11 11 10 10 10 11 11 13 14 14 13 12 13 18 23 24 22 18 14 13 13 11 11 14 15 14 15 16 15 16 20
12 11 10 10 10 10 10 10 11 11 10 10 10 10 10 9 10 10 11 12 13 14 14 12 15 20 23 23 20 17 15 13 12 12 13 15 15 15 15 16 15 17
13 11 10 10 10 10 10 10 10 10 9 9 9 9 10 10 9 10 10 10 10 12 14 14 13 17 21 22 21 18 16 14 13 13 14 14 14 15 15 16 16 17

ECMWFNIL_925_spd_114.txt.gz
Wind_Speed
9 9 10 9 9 9 9 9 9 9 8 8 8 8 7 8 8 8 9 10 11 12 12 13 13 14 14 14 14 14 14 15 15 16 16 15 15 15 15 16 17 17
10 10 10 10 10 10 10 9 9 9 9 8 8 8 7 8 8 9 10 10 11 12 13 13 14 14 15 15 14 14 15 16 16 17 16 16 16 16 16 16 16 17
11 11 12 12 12 11 10 10 9 9 9 9 8 7 8 8 8 9 10 11 11 12 13 13 14 14 14 15 14 14 15 16 17 17 16 16 17 16 16 16 17 18
13 12 12 12 12 12 11 11 10 10 10 10 9 8 8 8 9 10 11 11 12 13 13 14 14 14 14 15 15 15 15 16 17 17 16 16 17 17 17 18 19 20
14 14 13 13 13 13 12 12 11 11 11 10 10 10 9 9 10 11 11 12 13 14 14 15 15 15 15 15 15 15 15 16 16 16 16 16 17 17 17 18 19 20
15 15 14 14 13 13 12 12 12 11 11 11 11 11 10 10 11 12 12 13 14 15 16 16 16 16 15 15 15 16 15 15 16 16 16 17 18 18 18 18 19 19
16 15 15 14 13 13 13 12 12 12 12 12 12 11 11 11 12 13 14 14 15 16 17 17 17 16 16 15 15 16 15 16 17 17 18 18 19 19 19 20 20 19
16 15 15 15 14 13 13 13 13 13 12 12 12 12 12 12 13 14 14 15 16 17 17 17 17 16 16 16 16 16 16 17 18 18 19 20 20 20 20 20 20 20
16 16 15 15 14 14 14 14 13 13 13 12 12 12 13 14 14 15 15 16 17 17 18 18 17 16 16 15 16 17 17 17 18 18 19 20 20 20 20 20 20 20
16 16 15 15 15 14 14 14 14 14 13 12 12 13 13 14 15 16 17 17 18 18 18 18 17 16 16 15 16 17 17 18 18 18 19 19 19 20 20 20 20 20
16 15 15 15 15 15 15 15 15 14 14 13 13 13 13 14 15 16 17 18 18 18 18 18 18 16 15 15 15 16 17 18 18 18 19 19 19 20 20 21 21 20
17 16 15 16 16 16 15 15 15 15 15 14 14 14 14 15 15 16 17 18 19 19 18 18 19 18 16 15 15 16 16 17 18 18 18 18 19 21 21 21 21 20
17 16 16 16 16 16 15 15 15 15 14 14 13 14 14 15 15 16 16 17 18 20 20 19 20 21 19 18 17 16 15 16 17 17 18 18 19 20 20 21 21 20
17 16 16 16 16 16 16 15 15 15 14 14 14 14 14 14 15 15 16 16 17 19 20 19 19 20 21 20 18 16 15 15 16 17 18 18 18 19 19 20 20 20
17 17 17 16 16 17 16 16 16 15 15 14 14 14 14 15 15 15 16 17 17 18 19 18 17 18 19 18 17 17 16 15 15 16 17 17 17 17 18 19 20 20
18 17 17 17 17 17 16 16 15 15 15 14 14 14 14 14 15 16 17 17 17 19 19 18 16 16 16 15 15 16 15 15 14 15 15 15 15 16 17 19 20 20
18 18 17 17 17 16 16 16 15 15 15 14 14 13 13 13 14 15 17 17 18 20 21 18 15 15 14 14 14 14 13 13 13 13 13 14 14 15 18 20 20 19
18 18 17 17 17 16 16 15 15 15 14 14 13 13 13 13 13 15 16 17 19 22 22 18 14 13 13 14 14 13 12 12 12 12 13 13 13 14 18 21 21 19
18 18 17 17 17 16 16 16 15 15 14 14 13 13 13 13 13 14 15 16 18 22 23 20 14 11 11 12 12 12 12 12 11 11 12 14 13 13 17 21 22 20
18 18 17 17 17 16 16 16 15 15 14 13 13 13 12 12 13 14 15 15 16 19 22 22 18 11 8 9 9 9 10 11 11 10 12 15 13 13 16 19 21 21
18 18 18 17 17 16 16 15 15 14 13 12 12 12 12 11 12 13 14 14 16 18 20 22 20 15 10 8 8 9 8 10 12 12 13 14 14 13 15 16 20 22
18 18 18 17 17 17 16 15 14 13 13 12 12 12 11 11 11 12 13 13 14 16 20 22 21 18 13 10 9 11 11 11 12 13 14 15 14 13 13 14 17 21
18 19 18 17 17 17 16 15 14 13 12 12 12 12 11 11 12 12 12 13 12 13 18 21 22 20 17 13 11 12 15 15 13 13 14 15 14 13 12 12 15 19
18 19 19 18 18 17 16 15 13 12 11 11 11 11 12 12 13 13 13 13 12 11 14 19 21 21 19 18 15 13 15 17 14 13 14 15 14 14 13 13 15 18
19 19 19 19 19 17 16 15 13 12 11 10 10 11 11 11 12 13 13 13 13 12 12 14 18 20 21 21 20 17 16 17 16 14 15 15 14 13 14 15 15 17
20 19 19 19 18 17 15 14 13 12 11 10 10 10 10 10 10 10 10 10 11 13 13 12 14 18 19 21 22 21 19 18 18 17 16 15 14 13 13 15 17 18

ECMWFNIL_925_spd_117.txt.gz
Wind_Speed
22 22 22 22 21 19 17 16 13 12 10 10 11 11 9 9 11 12 13 14 15 15 15 16 16 15 15 15 17 18 19 19 20 19 18 19 19 20 22 23 23 22
21 21 21 21 21 18 16 14 11 10 10 10 11 11 11 12 13 12 13 14 14 14 14 16 16 16 17 18 18 20 20 19 19 18 18 19 20 21 21 22 23 23
19 19 19 19 19 18 16 13 12 12 12 12 12 12 12 13 13 13 13 14 14 14 14 16 17 17 18 19 19 20 20 19 18 18 19 21 22 22 21 22 23 23
18 17 16 17 17 17 16 14 14 14 14 14 13 13 13 13 13 13 14 14 15 15 14 16 17 17 17 18 18 19 20 20 20 20 22 24 24 24 22 22 24 24
18 17 17 18 19 19 18 17 17 16 16 15 15 14 14 15 15 15 15 15 15 15 15 15 16 17 18 18 18 19 20 21 21 20 23 24 24 24 22 22 24 24
19 19 21 21 21 20 19 18 17 17 17 17 16 16 15 15 16 16 15 15 15 15 15 16 18 19 19 19 19 20 21 22 22 21 22 24 23 23 22 22 23 23
21 22 23 23 22 20 20 19 18 18 18 17 17 18 17 17 17 16 15 13 13 14 16 18 19 20 20 20 20 21 22 23 22 22 23 23 23 23 23 22 22 23
22 22 22 21 21 21 21 20 19 19 18 18 19 18 18 18 18 16 14 13 13 15 18 19 19 19 20 21 20 21 22 23 22 23 24 24 24 24 23 22 22 23
22 22 21 20 20 21 21 20 20 19 19 20 20 19 17 17 16 15 14 13 15 17 18 19 18 18 20 21 22 22 22 22 23 23 24 24 24 24 22 21 22 23
22 21 22 21 21 21 22 21 20 20 20 20 20 19 18 16 15 14 14 15 16 17 18 18 17 18 20 22 23 23 22 22 23 23 23 23 23 23 22 22 22 24
21 22 22 21 21 22 22 21 21 21 21 20 21 20 19 17 16 16 16 17 19 18 18 17 17 19 21 22 23 23 22 21 21 21 22 23 23 23 23 22 22 24
22 22 22 22 23 23 22 21 21 21 20 20 19 19 18 17 17 18 17 19 21 20 19 18 18 20 21 21 22 22 22 20 20 20 21 22 23 23 23 22 22 24
23 23 23 24 23 23 23 22 22 21 21 20 19 19 18 17 17 17 18 20 21 21 20 20 20 20 20 21 21 21 21 20 19 20 21 22 23 22 22 21 21 23
24 24 24 24 23 24 24 23 23 22 21 21 20 19 19 16 16 17 18 19 19 20 20 20 20 20 19 20 20 20 20 19 18 19 20 23 25 23 21 20 21 22
24 24 24 23 23 24 24 24 24 23 22 22 21 20 18 16 16 16 18 18 18 18 18 19 19 19 19 19 18 18 18 17 16 16 18 22 26 25 20 18 20 21
25 25 24 23 23 24 24 23 23 23 23 23 21 19 17 17 17 18 18 17 17 17 16 16 17 17 17 17 16 16 16 15 14 14 16 19 25 26 21 18 19 21
25 26 26 25 25 24 24 24 23 22 23 22 21 19 17 17 19 20 18 17 16 15 15 14 15 15 15 14 14 14 14 14 13 13 14 17 23 25 23 21 20 21
26 27 26 25 25 25 24 24 23 23 22 22 21 20 18 17 19 20 19 17 15 14 14 14 13 14 13 13 12 12 12 14 15 13 12 15 20 22 22 22 22 21
27 27 26 25 25 24 24 24 24 23 23 22 21 20 19 18 17 18 19 18 16 14 13 13 12 12 12 11 10 10 11 13 15 13 12 14 17 19 20 22 23 23
27 27 27 26 26 25 25 24 24 23 23 22 21 20 18 17 17 17 19 19 18 16 13 12 11 10 9 9 10 11 13 14 14 13 13 13 15 16 18 21 23 23
28 28 28 27 27 26 25 25 24 23 23 22 21 20 18 17 16 17 18 19 19 18 16 14 12 9 9 10 12 13 16 16 15 13 12 12 14 15 16 19 21 23
29 29 29 28 28 27 26 25 24 24 23 22 21 20 19 18 16 14 16 18 20 19 18 17 14 11 10 12 13 14 15 16 16 15 12 11 13 16 16 17 19 21
29 29 29 29 28 27 26 25 24 23 22 21 21 20 19 18 17 14 13 16 18 19 20 20 18 14 10 10 10 11 13 14 15 15 14 12 13 16 16 17 18 21
29 29 29 28 27 26 25 24 23 23 21 20 20 19 17 16 15 14 13 14 17 18 19 20 20 18 14 12 11 10 12 13 13 14 14 13 13 14 15 17 19 22
29 29 28 28 27 25 25 24 23 23 21 19 19 20 19 18 17 17 16 16 16 17 17 18 19 20 18 17 15 13 12 12 11 12 13 14 14 13 14 16 19 21
29 29 28 28 26 25 24 23 23 22 20 19 19 19 18 17 16 16 15 14 14 15 15 14 15 17 18 18 17 15 13 12 11 12 13 14 15 14 13 15 18 21

ECMWFNIL_925_spd_120.txt.gz
Wind_Speed
25 25 25 24 23 23 21 20 18 17 16 14 15 16 15 15 16 16 17 17 18 19 19 18 19 20 20 19 18 18 20 22 23 21 21 22 22 22 22 21 20 20
25 25 24 24 24 23 21 19 18 17 15 15 16 16 16 16 16 16 17 18 19 21 22 22 22 20 19 18 18 19 20 22 23 21 20 21 21 22 23 22 22 21
25 25 25 25 24 23 21 18 16 16 17 19 19 17 16 16 16 16 17 18 20 20 20 21 21 20 19 20 20 22 21 22 21 20 20 22 22 23 23 23 23 22
25 24 24 24 23 22 20 17 17 18 19 19 18 17 18 17 17 17 17 19 20 20 20 20 20 20 20 20 20 21 21 21 20 19 21 23 23 23 23 23 23 22
23 23 23 22 21 20 19 19 20 20 19 18 18 18 18 17 17 17 18 19 20 20 21 21 21 21 20 19 20 21 21 21 20 20 23 24 23 24 24 23 23 23
21 21 21 20 20 20 21 23 22 20 19 20 20 19 17 17 16 16 18 19 20 21 22 22 22 22 21 20 21 21 21 21 21 22 24 25 24 24 24 24 24 23
21 21 21 21 22 23 24 24 22 21 22 22 21 19 17 16 16 16 18 20 21 22 22 22 23 23 22 21 21 22 21 21 22 23 25 24 24 25 24 25 25 25
23 23 23 24 24 24 25 24 23 23 23 21 20 19 16 15 15 16 19 21 22 23 23 23 23 23 22 21 21 21 22 23 24 25 25 24 24 25 25 25 26 26
24 24 24 24 24 24 25 25 25 24 22 21 20 18 15 14 15 18 21 22 23 23 23 24 24 23 22 21 21 22 23 25 25 25 24 24 24 25 25 25 26 26
26 25 25 24 24 25 26 26 25 23 21 20 19 16 15 15 17 20 23 23 23 24 24 24 24 23 22 21 21 22 24 24 24 24 23 22 23 24 25 26 26 26
26 25 25 26 26 26 26 26 24 22 20 19 17 16 17 18 20 23 24 24 24 24 25 24 24 22 22 22 22 24 24 23 22 22 22 21 21 23 24 25 26 25
24 25 26 27 27 27 26 25 24 22 21 19 18 19 20 21 23 24 25 25 24 24 25 24 23 21 21 22 23 24 25 23 21 21 21 21 20 21 23 23 23 23
24 25 27 28 27 27 27 26 24 23 21 19 19 20 23 23 25 25 25 25 25 25 25 23 22 21 21 22 22 22 23 24 22 20 20 20 20 21 21 20 20 19
25 26 27 28 28 27 27 26 25 23 21 20 20 21 24 25 26 26 26 26 25 25 24 22 21 20 20 20 19 18 20 22 23 21 19 19 20 20 20 20 19 19
26 27 28 28 28 27 27 26 25 24 21 19 19 22 24 25 26 26 26 26 25 25 23 22 20 19 18 17 16 15 16 18 21 22 19 18 19 20 20 20 20 20
27 28 28 28 28 28 28 27 26 24 21 19 20 21 23 24 25 25 25 25 25 24 23 21 19 18 17 15 14 14 13 14 18 20 19 18 18 18 19 19 20 20
28 29 29 29 29 29 30 29 27 24 21 20 21 21 22 23 24 24 24 24 24 23 22 20 18 16 15 13 12 13 11 11 14 17 18 18 18 18 18 18 19 20
29 30 30 30 30 30 30 29 26 24 22 22 22 21 21 22 23 23 23 22 22 22 20 18 16 14 13 12 11 11 10 9 11 14 16 17 17 17 17 18 19 20
30 31 31 30 30 30 30 28 26 24 23 22 22 21 21 22 22 22 21 21 21 20 18 16 14 12 10 10 10 11 11 10 10 12 14 15 16 16 16 18 19 20
30 30 30 30 30 30 29 28 26 25 23 21 21 21 21 21 21 21 21 20 19 18 17 15 13 10 9 9 10 12 12 11 11 11 13 13 14 15 16 17 19 20
30 31 31 30 30 29 29 28 27 26 23 21 21 21 21 21 21 21 21 19 18 17 16 15 13 11 11 11 12 13 12 11 10 11 11 11 13 14 15 16 18 18
30 31 31 31 30 29 29 28 27 26 24 22 22 22 21 22 22 21 21 20 18 16 16 16 15 13 14 14 14 13 11 10 9 9 9 10 11 12 13 15 16 17
31 32 31 31 31 30 29 29 28 27 25 23 23 22 22 22 22 22 21 19 18 16 15 15 14 13 13 14 14 12 10 10 10 9 8 8 9 10 12 13 15 16
31 32 32 32 31 31 30 29 28 27 25 23 22 22 22 22 22 23 21 19 18 17 15 14 14 12 11 11 12 11 10 10 10 9 8 7 7 8 10 13 14 16
32 33 32 32 31 31 31 29 28 26 25 23 22 21 21 22 22 23 22 20 18 17 15 15 14 13 11 10 11 10 10 9 9 8 7 7 6 8 11 13 15 16
33 33 32 32 32 31 30 29 27 27 26 24 22 21 22 23 23 22 21 19 17 16 15 14 14 14 12 11 10 10 9 8 7 6 6 6 6 8 11 13 15 17

ECMWFNIL_925_spd_123.txt.gz
Wind_Speed
25 25 25 24 23 21 19 18 17 16 16 16 18 19 18 18 17 16 17 18 19 20 20 19 18 18 19 19 19 21 21 21 21 19 19 20 21 22 23 23 23 22
25 25 25 24 23 21 20 18 17 17 18 18 19 19 19 18 17 18 20 22 21 20 18 18 19 19 20 20 19 20 20 20 20 19 20 22 22 22 22 21 20 20
25 25 24 23 23 22 20 18 17 18 19 20 19 19 19 18 19 20 22 22 20 20 20 21 21 20 20 19 19 20 20 20 21 20 22 23 22 21 20 19 19 19
25 25 24 23 23 22 20 19 20 20 21 21 20 20 19 19 19 21 22 21 21 22 23 22 22 20 19 18 18 20 21 22 22 22 23 24 22 22 22 21 22 22
25 25 24 24 23 22 20 21 22 22 22 22 22 20 20 20 20 21 21 21 22 23 23 22 21 19 18 18 19 21 23 23 23 23 25 25 24 24 24 25 25 25
25 25 25 24 23 21 21 22 23 23 23 23 23 20 20 20 20 21 22 22 23 23 22 21 20 19 18 19 22 24 24 24 24 25 27 27 26 25 25 26 26 26
25 25 25 23 22 22 23 23 23 23 24 23 22 20 19 19 20 21 22 23 23 22 21 20 20 19 19 21 24 25 25 25 25 27 28 27 26 26 26 26 26 26
25 25 24 23 23 23 23 24 24 24 24 22 21 19 18 19 21 22 22 23 23 22 22 21 20 20 21 23 26 26 26 26 26 28 28 27 27 26 26 25 25 25
24 23 23 23 23 24 24 24 24 24 22 20 20 19 18 20 21 22 23 23 23 23 22 22 22 22 23 25 26 26 26 26 27 28 27 27 27 26 24 24 24 23
23 23 24 24 24 24 25 25 24 23 21 19 19 19 20 22 22 23 24 24 24 24 23 22 23 24 25 25 25 26 26 26 26 27 27 27 25 24 23 22 22 22
25 25 25 24 25 25 25 25 24 22 20 18 18 20 22 24 24 24 24 24 24 24 23 23 24 24 25 25 24 24 24 25 26 26 25 24 23 22 21 20 20 20
27 26 26 25 26 26 25 24 23 21 19 18 18 22 25 25 25 26 25 25 24 24 24 26 26 26 25 24 23 22 22 23 24 24 23 22 21 20 19 19 19 19
28 27 27 27 27 27 25 23 21 20 19 19 20 24 27 27 27 27 26 25 25 25 27 28 28 28 26 24 23 21 21 22 22 22 21 20 19 19 18 18 19 19
29 29 29 29 28 27 25 22 21 19 19 21 23 25 27 27 28 28 27 26 25 26 27 27 27 27 26 25 23 21 20 20 20 20 20 19 18 18 18 18 19 20
30 30 30 30 28 27 24 22 21 20 21 23 24 26 28 28 28 28 27 26 25 26 25 24 23 24 23 23 23 22 20 20 19 18 18 17 17 17 17 18 18 18
30 31 30 30 29 27 25 22 21 22 23 24 25 27 28 28 28 28 27 26 26 25 24 21 20 20 20 20 20 20 20 19 18 17 16 15 15 16 16 16 17 17
31 31 31 30 29 27 25 22 22 22 24 25 27 28 27 28 28 27 27 25 25 24 22 20 19 18 17 16 16 17 17 17 17 16 15 15 14 15 15 15 15 16
31 31 31 30 29 27 25 22 22 23 25 27 27 27 27 27 27 27 26 25 23 23 21 20 18 16 15 14 14 14 15 15 15 15 15 15 14 14 14 15 15 15
31 31 31 30 29 28 25 23 23 24 26 27 27 27 27 26 26 26 25 24 23 22 20 19 17 15 14 13 13 13 13 14 14 15 15 14 14 14 13 14 15 15
32 31 31 30 30 28 25 23 23 24 26 26 27 27 26 26 26 25 24 23 22 20 19 17 16 14 13 12 13 12 12 13 14 14 14 13 12 12 13 13 14 14
32 32 31 31 30 28 26 25 24 24 25 26 26 26 26 25 25 24 23 22 20 18 17 15 14 13 13 13 14 14 12 12 12 13 12 11 10 11 11 11 12 13
31 32 32 31 31 29 27 26 24 24 24 25 26 26 25 25 24 23 22 21 19 17 16 15 14 13 13 14 14 14 12 11 11 11 9 9 9 10 10 9 10 11
33 33 32 32 31 30 28 26 25 24 23 24 26 26 25 24 23 22 21 20 18 17 16 16 16 15 15 14 14 13 11 9 9 8 8 7 7 8 8 8 9 10
33 33 33 32 31 30 29 27 25 24 23 23 25 26 26 24 23 22 20 19 18 17 16 17 17 16 15 14 13 11 9 8 7 6 5 5 5 6 7 7 8 9
33 32 32 32 31 30 29 27 26 25 24 23 24 26 26 25 23 22 20 18 17 16 16 16 16 16 14 13 13 11 8 7 6 5 4 4 5 6 6 7 8 8
34 33 32 31 30 29 28 27 26 25 24 24 25 25 26 24 23 22 20 18 17 15 14 14 14 15 14 12 12 10 8 7 6 5 5 5 4 5 5 6 8 8

ECMWFNIL_925_spd_129.txt.gz
Wind_Speed
26 29 28 25 25 24 22 19 16 15 15 15 16 17 17 16 15 14 15 16 16 17 18 16 15 14 13 13 14 17 20 21 22 22 23 25 26 27 27 26 24 20
25 27 26 25 25 24 21 19 17 16 16 16 17 17 17 16 15 15 16 18 18 18 17 15 14 13 13 14 16 20 22 23 24 24 26 27 27 27 27 27 24 19
25 25 25 26 26 24 22 19 17 16 17 17 17 17 17 17 16 16 17 18 19 18 16 15 14 13 13 15 19 22 24 25 26 27 28 27 26 25 25 24 22 18
25 24 25 26 26 24 22 20 18 17 18 18 18 17 17 17 17 18 18 18 19 18 16 15 14 13 15 17 20 24 26 27 27 27 27 25 24 24 22 20 19 17
23 23 24 25 25 24 22 20 19 18 18 18 18 17 16 17 18 19 19 19 19 18 16 15 14 14 16 19 23 26 28 28 27 27 25 23 23 22 19 17 17 17
22 22 25 25 25 24 21 19 19 18 17 17 17 17 17 18 19 19 20 20 19 17 16 15 14 16 19 23 26 28 28 27 26 25 23 22 21 20 18 16 16 17
23 24 26 26 26 23 20 19 19 18 17 16 16 18 19 19 20 21 21 20 18 17 16 15 16 19 22 25 28 29 28 26 24 22 21 19 18 19 18 17 16 15
26 27 28 28 26 22 21 21 20 19 18 17 18 19 20 20 21 22 21 19 18 17 16 16 19 23 25 28 29 29 28 26 23 21 20 18 17 17 18 17 16 15
30 30 30 29 26 23 23 22 21 21 20 19 20 21 21 21 21 21 20 19 18 17 18 19 22 25 27 28 29 27 26 25 22 20 19 17 17 16 16 15 15 14
33 33 31 29 27 26 25 23 22 23 21 20 22 23 22 22 22 21 20 19 18 19 20 22 25 27 28 28 27 26 24 23 21 20 18 17 16 16 15 14 13 13
33 33 32 30 29 27 25 24 24 24 22 21 22 23 24 23 23 21 20 19 19 20 22 24 26 28 29 28 27 25 24 22 20 19 18 17 17 16 15 14 14 13
33 33 32 31 29 27 26 25 25 24 23 22 23 24 25 24 23 22 20 19 20 21 23 26 28 28 28 27 26 25 23 22 20 19 18 17 16 16 15 15 15 14
34 34 32 31 29 27 26 26 25 24 24 24 24 25 26 25 24 22 20 20 21 23 25 27 28 28 27 26 25 23 22 21 20 19 18 17 16 15 15 15 15 14
35 33 32 30 29 28 28 27 27 25 25 24 25 25 26 25 24 22 21 21 22 24 26 28 28 28 27 26 24 22 20 19 18 17 16 16 15 14 14 14 14 14
34 33 31 30 29 29 29 29 28 26 25 24 25 26 26 26 24 22 22 23 24 25 27 28 28 27 26 25 23 21 19 18 16 15 14 13 13 12 12 13 13 13
34 33 32 31 31 30 30 30 28 27 26 25 26 27 27 26 24 22 22 24 25 26 27 27 27 26 24 23 22 21 19 17 16 14 12 11 11 11 11 11 11 12
34 33 32 31 31 31 30 29 28 27 26 26 27 28 27 26 24 23 24 25 26 26 26 26 25 24 23 21 20 19 18 17 14 13 12 11 10 10 9 9 10 11
33 33 32 32 31 30 30 29 27 26 26 27 28 29 28 27 25 24 26 27 27 26 25 25 24 23 22 20 19 17 16 15 13 11 11 10 10 9 8 8 9 10
33 33 32 31 30 30 29 28 26 26 27 28 29 30 29 27 26 26 27 27 27 26 25 24 24 23 21 20 18 17 15 13 11 10 10 9 9 9 8 8 9 9
33 32 31 30 30 29 28 26 26 26 27 28 30 30 29 28 27 27 28 28 27 27 25 24 24 22 20 19 18 16 14 12 11 10 10 9 8 8 7 8 9 9
32 31 30 30 29 28 27 26 25 26 28 29 30 30 30 29 29 29 29 28 27 27 26 24 23 21 20 19 18 17 14 12 10 9 9 8 7 6 6 7 8 8
32 31 30 30 29 27 26 25 25 27 28 30 31 31 30 30 30 29 28 27 26 25 25 24 22 20 19 18 18 17 14 11 9 8 8 7 7 6 5 5 6 7
31 30 30 31 29 27 26 25 25 27 28 29 31 31 31 31 30 29 27 26 25 24 23 23 21 20 19 18 17 16 14 11 9 7 7 7 6 5 4 3 4 6
30 31 32 32 30 28 27 26 26 27 27 28 30 30 30 30 30 29 26 24 24 23 22 22 21 20 18 17 16 14 13 11 9 7 7 6 5 4 3 2 2 4
32 33 33 32 31 29 27 26 27 27 27 27 28 29 29 29 29 29 27 24 23 22 21 20 21 20 19 17 15 14 12 11 9 7 7 6 5 4 3 2 1 4
33 34 33 32 32 30 27 26 26 26 25 25 28 31 31 31 30 29 27 25 23 22 20 20 20 21 20 19 16 15 13 11 9 7 7 6 6 5 4 3 2 3